Date StartTime U_cm/s V_cm/s W_cm/s Ustd_cm/s Vstd_cm/s Wstd_cm/s Uvar_(cm/s)^2 Vvar_(cm/s)^2 Wvar_(cm/s)^2 KE_(m/s)^2 TurbulentKE_(m/s)^2 HorizWindSpeed_cm/s FrictionSpeec_cm/s DragCoef SpeedOfSound_m/s SonicTemperature_C Pressure_mb 
06/01/2014  00:00:00      -88.923      -31.701       -4.572       33.185       28.667       19.111     1101.249      821.792      365.224        0.561        0.114       94.405       12.080        0.016      341.445       16.161      860.668
06/01/2014  00:01:00      -83.535      -23.645       -2.000       20.468       30.252       12.922      418.949      915.165      166.986        0.452        0.075       86.816        5.799        0.004      341.532       16.308      860.653
06/01/2014  00:02:00      -97.524      -42.788       -1.853       43.149       18.564       17.990     1861.830      344.624      323.635        0.694        0.127      106.497       21.841        0.042      341.582       16.393      860.640
06/01/2014  00:03:00      -86.661        4.356       -0.211       40.376       27.326       21.298     1630.201      746.717      453.612        0.518        0.142       86.770       19.545        0.051      341.490       16.239      860.647
06/01/2014  00:04:00      -90.395       -2.169       -5.799       50.765       28.606       18.939     2577.072      818.317      358.705        0.598        0.188       90.421       18.248        0.041      341.543       16.330      860.652
06/01/2014  00:05:00       -6.105       52.701        1.671       21.337       31.067       12.894      455.283      965.165      166.257        0.220        0.079       53.053       12.947        0.060      341.785       16.741      860.652
06/01/2014  00:06:00       16.898        5.527        6.578       32.444       24.609       16.546     1052.642      605.614      273.763        0.115        0.097       17.779       11.265        0.401      341.163       15.686      860.644
06/01/2014  00:07:00      -11.832       66.945       -0.603       12.856       29.767       15.165      165.272      886.052      229.962        0.295        0.064       67.983       15.140        0.050      341.930       16.984      860.637
06/01/2014  00:08:00      -61.498      -16.204       -0.783       33.302       25.400        9.596     1109.019      645.185       92.089        0.295        0.092       63.596        9.430        0.022      341.563       16.361      860.635
06/01/2014  00:09:00     -148.459      -54.983       -7.651       34.527       19.890       16.735     1192.104      395.612      280.065        1.349        0.093      158.314       16.384        0.011      341.417       16.115      860.639
06/01/2014  00:10:00     -153.897      -47.381       -8.225       39.258       36.917       25.421     1541.174     1362.868      646.207        1.477        0.178      161.026       15.271        0.009      341.364       16.025      860.642
06/01/2014  00:11:00      -81.436      -38.465        2.742       39.936       27.488       21.292     1594.919      755.609      453.356        0.546        0.140       90.063       17.168        0.036      341.329       15.966      860.647
06/01/2014  00:12:00      -46.101      -12.732        1.204       33.194       16.649       12.373     1101.857      277.179      153.103        0.191        0.077       47.827       12.249        0.066      341.243       15.822      860.651
06/01/2014  00:13:00      -27.575       23.883        0.005       16.340       15.960       13.005      266.982      254.716      169.141        0.101        0.035       36.480       10.898        0.089      341.165       15.687      860.658
06/01/2014  00:14:00      -57.820       41.087       -7.345       25.117       30.848       20.784      630.875      951.601      431.974        0.355        0.101       70.931       20.306        0.082      341.280       15.883      860.657
06/01/2014  00:15:00      -68.276       68.061      -19.619       21.745       27.425       14.219      472.856      752.139      202.190        0.555        0.071       96.405       10.817        0.013      341.745       16.671      860.654
06/01/2014  00:16:00      -44.249       69.233      -12.917       11.708       23.580        9.009      137.068      555.997       81.160        0.385        0.039       82.165        8.489        0.011      341.625       16.469      860.655
06/01/2014  00:17:00      -44.524       40.750      -15.217       10.520       26.581        7.588      110.672      706.538       57.571        0.237        0.044       60.356        9.770        0.026      341.465       16.197      860.661
06/01/2014  00:18:00      -17.503      -25.917        1.856       12.755       13.559       13.233      162.682      183.835      175.123        0.075        0.026       31.274       10.800        0.119      341.407       16.098      860.668
06/01/2014  00:19:00      -24.392      -28.370       -1.273       14.234       11.664       13.302      202.612      136.060      176.941        0.096        0.026       37.414        5.679        0.023      341.295       15.908      860.682
06/01/2014  00:20:00      -70.487      -42.276      -11.403       27.049       12.878       10.293      731.641      165.836      105.938        0.394        0.050       82.193        7.097        0.007      341.165       15.689      860.677
06/01/2014  00:21:00     -104.608      -48.460       -5.656       22.768       23.243       15.633      518.395      540.253      244.398        0.731        0.065      115.288        8.432        0.005      341.008       15.422      860.674
06/01/2014  00:22:00     -133.867      -49.862       -8.273       22.260       22.321       17.351      495.501      498.226      301.055        1.088        0.065      142.851       11.182        0.006      340.972       15.362      860.675
06/01/2014  00:23:00     -105.087      -46.413       -8.442       43.181       34.568       21.288     1864.570     1194.933      453.181        0.839        0.176      114.880        9.734        0.007      340.996       15.402      860.693
06/01/2014  00:24:00      -59.799      -40.357       -7.015       24.299       20.050       14.404      590.449      402.017      207.476        0.323        0.060       72.143       10.143        0.020      341.014       15.432      860.707
06/01/2014  00:25:00      -54.668      -14.605       -2.308        9.266       17.467       10.042       85.853      305.098      100.833        0.185        0.025       56.585        6.183        0.012      340.994       15.397      860.709
06/01/2014  00:26:00      -49.602       -3.171       -7.618       14.912       10.994        4.892      222.356      120.867       23.932        0.145        0.018       49.703        4.621        0.009      341.110       15.596      860.705
06/01/2014  00:27:00      -38.560      -12.637       -2.315       15.076       19.330        9.071      227.282      373.638       82.290        0.117        0.034       40.578        6.349        0.024      341.415       16.111      860.698
06/01/2014  00:28:00      -79.000      -57.698        2.377       50.406       42.091       29.180     2540.737     1771.662      851.481        0.737        0.258       97.827       26.065        0.071      341.051       15.497      860.694
06/01/2014  00:29:00     -157.154      -97.747       -0.564       61.052       64.253       36.271     3727.362     4128.489     1315.605        2.171        0.459      185.073       36.266        0.038      341.116       15.603      860.712
06/01/2014  00:30:00     -162.044      -85.445       -6.934       46.218       40.222       26.318     2136.059     1617.802      692.644        1.903        0.222      183.192       23.509        0.016      341.243       15.819      860.713
06/01/2014  00:31:00      -72.612      -11.507       -1.640       31.221       29.155       25.392      974.769      850.021      644.735        0.394        0.123       73.518       13.680        0.035      341.311       15.935      860.707
06/01/2014  00:32:00      -35.421        7.606       -2.763       16.171       17.180       10.771      261.491      295.156      116.005        0.100        0.034       36.228        9.493        0.069      341.606       16.436      860.699
06/01/2014  00:33:00       -4.541       29.518        1.252       20.231       14.080       10.877      409.298      198.243      118.306        0.081        0.036       29.866        8.003        0.072      341.424       16.129      860.709
06/01/2014  00:34:00      -46.473       11.738       -2.371       23.722       11.958       10.407      562.730      142.998      108.314        0.156        0.041       47.933       10.442        0.047      341.219       15.781      860.719
06/01/2014  00:35:00      -19.027       -8.093        4.233       13.580       18.109        7.755      184.429      327.926       60.144        0.051        0.029       20.677        7.157        0.120      341.057       15.506      860.729
06/01/2014  00:36:00      -12.351      -11.958        5.677       18.997       12.427       12.909      360.895      154.437      166.648        0.050        0.034       17.191        4.507        0.069      340.909       15.254      860.750
06/01/2014  00:37:00       -6.725       -8.042       -3.183       25.717       15.412       16.546      661.388      237.527      273.765        0.065        0.059       10.483       15.487        2.182      340.565       14.675      860.777
06/01/2014  00:38:00      -10.521        7.044       13.780        8.836       10.937        8.989       78.077      119.621       80.805        0.031        0.014       12.661        5.507        0.189      340.250       14.141      860.793
06/01/2014  00:39:00      -24.785        3.071       12.593       23.594       21.740       10.070      556.694      472.612      101.406        0.096        0.057       24.974        6.717        0.072      340.490       14.546      860.811
06/01/2014  00:40:00      -74.545      -43.581       -0.963       23.334       24.053       12.781      544.497      578.541      163.352        0.437        0.064       86.350       10.595        0.015      341.096       15.571      860.825
06/01/2014  00:41:00      -88.975      -37.535        1.046       33.698       31.043       18.215     1135.561      963.674      331.795        0.588        0.122       96.568       14.472        0.022      341.051       15.497      860.835
06/01/2014  00:42:00     -101.019      -35.876       -1.974       26.381       27.331       15.182      695.968      746.969      230.498        0.658        0.084      107.200       15.609        0.021      341.020       15.444      860.837
06/01/2014  00:43:00      -84.084      -20.658       -1.174       29.127       22.976       17.192      848.357      527.912      295.548        0.458        0.084       86.584       12.282        0.020      340.953       15.329      860.824
06/01/2014  00:44:00      -91.303      -47.071        9.135       31.054       26.865       19.578      964.356      721.753      383.299        0.635        0.103      102.723       18.800        0.033      340.951       15.325      860.819
06/01/2014  00:45:00      -96.579      -11.662        0.231       21.822       22.924       14.335      476.195      525.490      205.484        0.534        0.060       97.280       12.394        0.016      340.894       15.230      860.810
06/01/2014  00:46:00      -65.852      -13.387       -0.191       33.760       22.632       15.964     1139.706      512.190      254.850        0.321        0.095       67.199       18.829        0.079      340.838       15.135      860.805
06/01/2014  00:47:00      -59.661      -12.664        5.801       29.339       21.963       14.830      860.751      482.352      219.920        0.266        0.078       60.990       16.422        0.073      340.707       14.914      860.800
06/01/2014  00:48:00      -84.278      -31.908        4.990       29.602       23.135       14.013      876.266      535.213      196.351        0.488        0.080       90.116       12.868        0.020      340.822       15.107      860.790
06/01/2014  00:49:00       12.396      -22.854        7.280       22.265       25.250       16.022      495.728      637.539      256.720        0.106        0.069       25.999       13.974        0.289      340.281       14.194      860.774
06/01/2014  00:50:00      -45.220      -60.202        4.223       35.135       40.258       18.436     1234.475     1620.689      339.873        0.444        0.160       75.293       21.710        0.083      340.775       15.027      860.774
06/01/2014  00:51:00      -37.424     -106.697       12.776       50.401       51.253       30.765     2540.247     2626.866      946.485        0.953        0.306      113.070       28.719        0.065      340.887       15.218      860.784
06/01/2014  00:52:00     -124.039      -63.476       -3.880       34.123       36.833       22.514     1164.401     1356.639      506.875        1.123        0.151      139.337       15.853        0.013      340.889       15.221      860.795
06/01/2014  00:53:00     -129.904      -51.328       -4.754       25.785       21.409       16.378      664.889      458.333      268.249        1.046        0.070      139.677       10.292        0.005      340.839       15.136      860.798
06/01/2014  00:54:00      -92.993      -28.583       -6.569       17.017       17.169       11.231      289.566      294.764      126.137        0.511        0.036       97.287        5.622        0.003      340.730       14.953      860.802
06/01/2014  00:55:00      -83.069      -36.365       -0.466       40.242       29.122       16.068     1619.429      848.120      258.173        0.547        0.136       90.680       18.683        0.042      340.706       14.911      860.815
06/01/2014  00:56:00     -127.954      -53.605       -2.738       17.517       21.216       16.393      306.856      450.138      268.736        1.014        0.051      138.729       11.843        0.007      340.755       14.995      860.807
06/01/2014  00:57:00     -120.229      -20.837       -7.778       42.522       35.124       18.436     1808.151     1233.678      339.903        0.917        0.169      122.021       17.070        0.020      340.621       14.767      860.805
06/01/2014  00:58:00     -125.934        1.469      -15.576       53.205       29.157       20.091     2830.797      850.143      403.660        1.009        0.204      125.943       17.797        0.020      340.324       14.265      860.797
06/01/2014  00:59:00     -106.270      -54.153        2.105       38.842       27.038       22.345     1508.731      731.054      499.317        0.848        0.137      119.272       21.711        0.033      340.326       14.269      860.795
06/01/2014  01:00:00     -122.101      -77.525       -6.077       32.107       26.651       22.849     1030.841      710.293      522.076        1.161        0.113      144.633       19.318        0.018      340.427       14.438      860.782
06/01/2014  01:01:00     -142.184      -79.508       -2.529       36.957       25.761       23.337     1365.843      663.651      544.607        1.456        0.129      162.905       20.402        0.016      340.460       14.496      860.770
06/01/2014  01:02:00     -115.602      -42.743        2.601       28.836       33.741       16.836      831.528     1138.465      283.444        0.873        0.113      123.251       12.402        0.010      340.474       14.521      860.763
06/01/2014  01:03:00     -121.403      -60.492       -1.423       42.046       24.455       21.077     1767.829      598.060      444.240        1.060        0.141      135.639       22.193        0.027      340.559       14.661      860.757
06/01/2014  01:04:00     -134.241      -52.723       -4.414       26.745       27.784       14.804      715.295      771.938      219.163        1.126        0.085      144.223        8.942        0.004      340.594       14.723      860.769
06/01/2014  01:05:00     -118.592      -17.081        1.180       53.640       35.177       27.738     2877.253     1237.437      769.417        0.962        0.244      119.816       30.626        0.065      340.424       14.434      860.791
06/01/2014  01:06:00     -153.271      -25.973      -18.145       25.343       23.564       19.384      642.289      555.272      375.757        1.303        0.079      155.456       16.630        0.011      340.388       14.375      860.802
06/01/2014  01:07:00      -96.829      -39.166       -7.527       43.423       29.886       20.809     1885.559      893.179      433.033        0.709        0.161      104.450       13.878        0.018      340.427       14.440      860.799
06/01/2014  01:08:00      -88.590      -34.640      -11.595       50.441       38.557       20.323     2544.310     1486.613      413.040        0.681        0.222       95.121       15.140        0.025      340.516       14.589      860.811
06/01/2014  01:09:00     -139.192      -58.327      -11.191       44.998       33.726       18.210     2024.789     1137.441      331.604        1.320        0.175      150.918       14.239        0.009      340.324       14.267      860.807
06/01/2014  01:10:00     -153.575      -65.166       -8.305       23.193       19.966       20.309      537.895      398.627      412.447        1.462        0.067      166.829       11.086        0.004      340.197       14.050      860.801
06/01/2014  01:11:00     -142.789      -44.382      -10.333       29.180       27.618       15.469      851.486      762.728      239.303        1.216        0.093      149.527       12.682        0.007      340.234       14.114      860.796
06/01/2014  01:12:00     -132.479        0.335       -8.596       30.289       24.343       17.856      917.408      592.602      318.847        0.973        0.091      132.480       16.530        0.016      340.276       14.186      860.806
06/01/2014  01:13:00     -113.822       -5.847       -9.311       35.490       36.842       25.345     1259.528     1357.311      642.355        0.817        0.163      113.972       22.386        0.039      340.371       14.346      860.795
06/01/2014  01:14:00     -122.468      -36.779       -0.091       28.880       24.780       19.490      834.054      614.061      379.855        0.909        0.091      127.872       18.829        0.022      340.350       14.309      860.780
06/01/2014  01:15:00     -120.761      -60.219       -3.739       19.454       24.521       13.874      378.454      601.281      192.474        0.970        0.059      134.943       11.279        0.007      340.401       14.396      860.773
06/01/2014  01:16:00      -98.169      -73.502        6.464       39.535       27.609       21.272     1563.002      762.239      452.507        0.893        0.139      122.637       21.959        0.032      340.465       14.504      860.764
06/01/2014  01:17:00     -141.668      -65.858        0.708       30.757       27.327       18.262      945.977      746.762      333.485        1.322        0.101      156.227       17.749        0.013      340.627       14.779      860.752
06/01/2014  01:18:00     -164.222      -37.705      -16.689       23.041       23.709       17.493      530.867      562.098      306.011        1.503        0.070      168.495       13.050        0.006      340.360       14.326      860.748
06/01/2014  01:19:00     -165.959      -32.401      -13.400       45.543       43.480       23.309     2074.174     1890.471      543.325        1.664        0.225      169.092       24.365        0.021      340.135       13.946      860.752
06/01/2014  01:20:00     -147.944      -57.784       -1.396       36.635       34.212       22.899     1342.113     1170.445      524.375        1.413        0.152      158.828       21.381        0.018      340.078       13.850      860.753
06/01/2014  01:21:00     -111.817      -68.208        7.115       73.717       29.507       23.281     5434.259      870.690      542.027        1.203        0.342      130.979       13.826        0.011      340.191       14.040      860.746
06/01/2014  01:22:00     -128.813      -54.996       -3.007       26.206       33.125       18.716      686.741     1097.255      350.296        1.088        0.107      140.062       16.254        0.013      340.181       14.025      860.742
06/01/2014  01:23:00     -114.634      -40.046        0.679       33.950       35.458       21.517     1152.632     1257.264      462.986        0.881        0.144      121.427       14.963        0.015      340.139       13.952      860.742
06/01/2014  01:24:00      -96.546       39.742      -12.543       41.884       42.228       23.019     1754.302     1783.239      529.889        0.756        0.203      104.406       27.002        0.067      340.053       13.807      860.732
06/01/2014  01:25:00     -118.965       52.817       -7.339       29.785       29.255       21.584      887.134      855.876      465.878        0.960        0.110      130.163       19.367        0.022      340.281       14.194      860.733
06/01/2014  01:26:00      -77.765      -20.570       -0.826       44.455       42.693       21.126     1976.284     1822.664      446.287        0.536        0.212       80.440       19.709        0.060      340.289       14.207      860.738
06/01/2014  01:27:00      -78.727      -55.683        3.978       63.874       36.703       25.879     4079.887     1347.125      669.699        0.770        0.305       96.429       26.781        0.077      339.853       13.471      860.739
06/01/2014  01:28:00      -71.137      -49.907        4.904       39.703       46.085       26.766     1576.352     2123.784      716.439        0.599        0.221       86.897       24.270        0.078      340.012       13.740      860.743
06/01/2014  01:29:00      -82.807      -78.765        8.417       68.704       43.949       30.510     4720.239     1931.550      930.864        1.036        0.379      114.285       33.299        0.085      340.107       13.899      860.747
06/01/2014  01:30:00     -135.254      -96.681        6.245       42.085       47.868       24.822     1771.147     2291.310      616.108        1.618        0.234      166.255       24.059        0.021      340.191       14.042      860.740
06/01/2014  01:31:00     -123.688      -80.318        4.023       64.074       41.084       32.631     4105.538     1687.855     1064.813        1.431        0.343      147.478       36.060        0.060      340.218       14.086      860.739
06/01/2014  01:32:00     -152.695      -69.434       -4.777       46.546       35.833       23.460     2166.494     1284.029      550.371        1.608        0.200      167.741       22.128        0.017      340.275       14.182      860.753
06/01/2014  01:33:00     -144.870      -84.525        6.176       68.531       47.624       34.141     4696.526     2268.083     1165.598        1.815        0.407      167.726       37.276        0.049      340.223       14.094      860.753
06/01/2014  01:34:00     -142.388     -125.537       -7.509       52.114       46.998       29.840     2715.902     2208.785      890.433        2.095        0.291      189.826       29.947        0.025      340.249       14.137      860.748
06/01/2014  01:35:00     -186.354     -117.606       -6.873       43.721       46.793       30.022     1911.507     2189.596      901.310        2.680        0.250      220.361       24.927        0.013      340.292       14.209      860.735
06/01/2014  01:36:00     -148.585      -88.377       -4.264       32.755       40.638       20.806     1072.860     1651.452      432.876        1.653        0.158      172.882       10.542        0.004      340.271       14.175      860.729
06/01/2014  01:37:00     -159.018      -42.575       -0.632       44.967       60.057       29.433     2022.022     3606.903      866.276        1.680        0.325      164.619       27.461        0.028      340.223       14.093      860.721
06/01/2014  01:38:00     -143.575      -50.176        7.662       63.204       54.994       32.315     3994.763     3024.293     1044.287        1.563        0.403      152.090       33.618        0.049      340.187       14.034      860.720
06/01/2014  01:39:00     -163.933      -71.059       -8.785       49.878       51.076       25.025     2487.789     2608.736      626.273        1.886        0.286      178.671       16.477        0.009      340.126       13.929      860.719
06/01/2014  01:40:00     -104.976      -25.755        1.953       49.639       49.014       27.534     2464.058     2402.336      758.139        0.865        0.281      108.089       24.115        0.050      339.997       13.714      860.705
06/01/2014  01:41:00     -112.980      -59.966        1.897       62.271       42.305       23.971     3877.627     1789.707      574.622        1.130        0.312      127.908       23.306        0.033      340.005       13.727      860.690
06/01/2014  01:42:00      -95.515      -43.685       -0.740       32.980       46.321       20.381     1087.673     2145.650      415.394        0.734        0.182      105.031       21.925        0.044      340.060       13.821      860.690
06/01/2014  01:43:00     -130.466        0.883       -1.420       57.215       32.377       30.089     3273.524     1048.297      905.358        1.112        0.261      130.469       33.357        0.065      340.120       13.922      860.705
06/01/2014  01:44:00     -156.161       -5.865       -1.065       56.347       42.281       31.247     3175.006     1787.715      976.400        1.518        0.297      156.271       30.241        0.037      339.965       13.660      860.717
06/01/2014  01:45:00     -142.189      -60.591       -1.138       37.057       37.784       20.895     1373.209     1427.644      436.614        1.356        0.162      154.561       15.361        0.010      339.824       13.422      860.705
06/01/2014  01:46:00     -132.734      -91.265        3.026       70.240       44.096       27.206     4933.698     1944.425      740.189        1.679        0.381      161.082       25.821        0.026      339.902       13.552      860.692
06/01/2014  01:47:00     -157.214      -45.401       -1.713       44.019       35.876       26.022     1937.685     1287.099      677.145        1.534        0.195      163.638       20.517        0.016      339.832       13.435      860.690
06/01/2014  01:48:00     -141.376      -61.727        1.186       38.773       24.627       20.163     1503.335      606.477      406.537        1.316        0.126      154.264       19.449        0.016      339.878       13.513      860.674
06/01/2014  01:49:00      -98.213      -47.238        6.405       58.660       27.246       27.664     3440.975      742.349      765.300        0.843        0.247      108.983       30.777        0.080      339.928       13.599      860.657
06/01/2014  01:50:00      -93.885      -49.190        5.059       35.726       33.370       24.938     1276.360     1113.550      621.928        0.714        0.151      105.991       21.553        0.041      339.964       13.658      860.667
06/01/2014  01:51:00     -130.386      -66.484       -6.501       40.892       29.801       24.466     1672.131      888.118      598.590        1.231        0.158      146.358       22.444        0.024      339.914       13.573      860.675
06/01/2014  01:52:00     -128.607      -41.128       -9.579       23.457       37.091       18.200      550.243     1375.725      331.256        1.029        0.113      135.024       14.587        0.012      339.875       13.508      860.675
06/01/2014  01:53:00     -116.402       -6.710       -8.340       28.374       19.980       16.819      805.073      399.209      282.873        0.758        0.074      116.595       15.921        0.019      339.823       13.421      860.691
06/01/2014  01:54:00      -89.219      -52.509        1.943       37.367       23.326       17.787     1396.285      544.109      316.384        0.649        0.113      103.524       14.835        0.021      339.855       13.476      860.696
06/01/2014  01:55:00      -60.405      -60.946        4.921       46.044       29.109       17.636     2120.071      847.341      311.028        0.533        0.164       85.809       13.564        0.025      339.952       13.638      860.693
06/01/2014  01:56:00     -113.640      -55.277       -3.384       46.265       30.295       21.638     2140.464      917.789      468.196        0.975        0.176      126.371       19.777        0.024      339.902       13.554      860.687
06/01/2014  01:57:00     -137.935      -59.902       -1.304       31.366       41.517       19.708      983.818     1723.643      388.395        1.286        0.155      150.380       13.656        0.008      339.898       13.546      860.697
06/01/2014  01:58:00     -177.700      -52.805       -4.891       35.638       36.970       21.851     1270.050     1366.810      477.478        1.875        0.156      185.380       13.722        0.005      339.840       13.449      860.712
06/01/2014  01:59:00     -171.840      -57.859       -8.396       43.684       36.187       19.660     1908.326     1309.488      386.523        1.828        0.180      181.319       15.499        0.007      339.765       13.322      860.711
06/01/2014  02:00:00     -124.294      -53.452       -1.785       61.672       51.473       30.197     3803.486     2649.449      911.888        1.284        0.368      135.300       29.921        0.049      339.793       13.369      860.708
06/01/2014  02:01:00     -136.759      -63.314       -2.615       47.969       54.284       31.570     2300.999     2946.783      996.681        1.448        0.312      150.704       26.411        0.031      339.808       13.393      860.704
06/01/2014  02:02:00     -143.253      -51.168        0.609       45.413       49.004       28.061     2062.344     2401.427      787.445        1.419        0.263      152.117       25.924        0.029      339.757       13.311      860.716
06/01/2014  02:03:00     -147.281      -51.103       -2.885       51.895       41.388       21.757     2693.116     1712.980      473.378        1.459        0.244      155.895       21.159        0.018      339.698       13.210      860.719
06/01/2014  02:04:00     -124.430      -57.527        5.627       46.585       34.769       23.734     2170.160     1208.917      563.300        1.138        0.197      137.085       18.393        0.018      339.701       13.215      860.725
06/01/2014  02:05:00      -98.281      -39.546        6.192       55.677       37.563       26.316     3099.896     1411.013      692.552        0.823        0.260      105.939       26.360        0.062      339.676       13.172      860.725
06/01/2014  02:06:00     -137.629      -67.208        3.497       62.573       34.026       29.509     3915.416     1157.791      870.763        1.471        0.297      153.162       29.638        0.037      339.726       13.257      860.721
06/01/2014  02:07:00     -105.187      -26.500        0.958       53.084       43.088       28.854     2817.915     1856.599      832.545        0.864        0.275      108.474       29.401        0.073      339.609       13.060      860.722
06/01/2014  02:08:00     -127.384      -11.341       -1.835       43.963       38.104       25.468     1932.763     1451.911      648.618        1.020        0.202      127.888       24.277        0.036      339.558       12.974      860.727
06/01/2014  02:09:00     -118.121      -47.503       -1.237       43.764       35.973       19.911     1915.282     1294.024      396.455        0.991        0.180      127.315       15.732        0.015      339.570       12.994      860.742
06/01/2014  02:10:00     -120.397      -43.898       -2.828       43.980       34.872       20.501     1934.211     1216.069      420.286        1.000        0.179      128.150       13.711        0.011      339.610       13.061      860.745
06/01/2014  02:11:00     -112.702      -27.124       -6.992       38.804       27.973       21.465     1505.733      782.499      460.746        0.812        0.137      115.920       22.826        0.039      339.588       13.024      860.748
06/01/2014  02:12:00     -119.685      -42.980        0.361       32.457       35.608       22.295     1053.471     1267.909      497.064        0.949        0.141      127.168       17.818        0.020      339.605       13.052      860.762
06/01/2014  02:13:00     -106.558      -50.154       -3.484       47.152       33.078       22.030     2223.288     1094.137      485.305        0.884        0.190      117.771       18.792        0.025      339.585       13.020      860.767
06/01/2014  02:14:00     -101.669      -58.647        7.047       44.094       37.546       24.199     1944.258     1409.691      585.597        0.888        0.197      117.372       21.955        0.035      339.640       13.112      860.761
06/01/2014  02:15:00      -97.920      -17.782        5.165       49.530       32.780       27.106     2453.268     1074.520      734.741        0.710        0.213       99.522       25.774        0.067      339.597       13.040      860.752
06/01/2014  02:16:00      -63.393      -46.382        8.504       55.109       31.339       22.503     3037.027      982.107      506.373        0.538        0.226       78.549       28.035        0.127      339.687       13.191      860.752
06/01/2014  02:17:00      -64.919      -47.416       -0.502       43.390       32.883       19.006     1882.687     1081.310      361.214        0.489        0.166       80.391       14.347        0.032      339.669       13.162      860.748
06/01/2014  02:18:00      -55.807      -60.626       10.283       49.917       31.273       24.068     2491.682      978.027      579.251        0.547        0.202       82.401       26.664        0.105      339.723       13.253      860.738
06/01/2014  02:19:00      -89.864      -58.198        2.802       44.716       37.306       26.113     1999.550     1391.731      681.868        0.777        0.204      107.063       20.782        0.038      339.668       13.158      860.736
06/01/2014  02:20:00      -64.345      -50.983        3.790       47.557       37.117       22.710     2261.675     1377.654      515.722        0.545        0.208       82.095       21.416        0.068      339.635       13.104      860.736
06/01/2014  02:21:00      -82.178     -101.090       -7.891       51.876       42.406       26.672     2691.127     1798.291      711.371        1.112        0.260      130.278       21.629        0.028      339.663       13.150      860.725
06/01/2014  02:22:00      -88.001      -58.890        7.542       52.630       51.018       30.387     2769.916     2602.818      923.372        0.878        0.315      105.888       29.354        0.077      339.648       13.125      860.703
06/01/2014  02:23:00      -66.620      -48.669        1.315       45.310       40.564       23.826     2053.015     1645.414      567.676        0.554        0.213       82.504       22.938        0.077      339.660       13.146      860.695
06/01/2014  02:24:00      -76.889      -73.753        3.068       52.930       42.305       25.501     2801.537     1789.751      650.291        0.830        0.262      106.543       24.792        0.054      339.612       13.064      860.699
06/01/2014  02:25:00     -113.601      -42.540      -19.973       27.341       29.739       17.081      747.504      884.407      291.758        0.852        0.096      121.305       11.766        0.009      339.406       12.717      860.700
06/01/2014  02:26:00     -110.406       -9.600       -4.416       40.936       36.249       19.787     1675.729     1314.003      391.511        0.784        0.169      110.822       21.837        0.039      339.332       12.593      860.699
06/01/2014  02:27:00     -100.913      -43.810       -3.295       34.398       27.306       16.490     1183.211      745.600      271.921        0.716        0.110      110.012       13.484        0.015      339.441       12.776      860.698
06/01/2014  02:28:00      -80.555      -19.005       -2.638       30.211       20.942       15.867      912.692      438.562      251.766        0.423        0.080       82.767       17.803        0.046      339.276       12.498      860.701
06/01/2014  02:29:00      -97.394       -6.206      -10.361       25.435       13.921       16.474      646.952      193.783      271.402        0.537        0.056       97.592       12.879        0.017      339.337       12.602      860.696
06/01/2014  02:30:00     -100.553      -14.094       -9.839       15.021       14.169       11.998      225.639      200.773      143.960        0.549        0.029      101.536        6.578        0.004      339.397       12.702      860.698
06/01/2014  02:31:00     -119.161      -15.750       -2.780       35.845       25.055       17.112     1284.870      627.740      292.837        0.833        0.110      120.197       18.691        0.024      339.343       12.611      860.702
06/01/2014  02:32:00     -133.094      -39.423        0.206       48.951       38.548       26.617     2396.177     1485.984      708.470        1.193        0.230      138.810       25.790        0.035      339.258       12.467      860.706
06/01/2014  02:33:00     -140.155      -37.926       -0.719       45.341       38.254       28.039     2055.819     1463.365      786.175        1.269        0.215      145.196       24.720        0.029      339.339       12.605      860.703
06/01/2014  02:34:00     -132.966      -55.954        3.169       57.298       32.001       24.109     3283.033     1024.039      581.233        1.285        0.244      144.260       21.568        0.022      339.305       12.546      860.701
06/01/2014  02:35:00     -123.847      -58.968       -1.715       34.622       43.294       24.933     1198.666     1874.374      621.665        1.126        0.185      137.169       20.303        0.022      339.274       12.494      860.698
06/01/2014  02:36:00     -122.912      -74.144        4.980       60.002       40.460       29.776     3600.203     1637.035      886.584        1.338        0.306      143.543       27.419        0.036      339.373       12.662      860.702
06/01/2014  02:37:00     -127.373      -56.951        5.607       62.241       54.701       30.036     3873.926     2992.168      902.189        1.363        0.388      139.525       35.194        0.064      339.315       12.564      860.702
06/01/2014  02:38:00     -147.980      -58.889        0.493       55.836       48.861       29.367     3117.677     2387.368      862.432        1.587        0.318      159.267       26.455        0.028      339.217       12.398      860.705
06/01/2014  02:39:00     -143.747      -39.749        0.017       59.648       50.143       29.296     3557.878     2514.366      858.261        1.459        0.347      149.141       29.567        0.039      339.010       12.049      860.722
06/01/2014  02:40:00     -163.374      -65.355       -2.092       51.331       41.906       27.624     2634.919     1756.074      763.068        1.806        0.258      175.961       27.660        0.025      339.022       12.071      860.732
06/01/2014  02:41:00     -135.191      -72.744        1.679       29.645       30.585       22.409      878.828      935.417      502.150        1.294        0.116      153.520       15.132        0.010      339.056       12.129      860.735
06/01/2014  02:42:00     -129.350      -45.216       -4.483       29.486       36.246       23.918      869.404     1313.738      572.055        1.078        0.138      137.026       21.474        0.025      339.174       12.327      860.733
06/01/2014  02:43:00     -123.523      -55.479       -3.267       53.303       40.212       25.113     2841.165     1616.998      630.645        1.172        0.254      135.410       28.150        0.043      339.200       12.369      860.731
06/01/2014  02:44:00     -140.803      -71.226       -5.305       38.887       30.425       22.916     1512.164      925.652      525.148        1.394        0.148      157.793       18.752        0.014      339.196       12.363      860.736
06/01/2014  02:45:00     -123.125      -55.358        4.949       40.795       30.221       25.083     1664.234      913.294      629.165        1.073        0.160      134.997       20.800        0.024      339.119       12.234      860.737
06/01/2014  02:46:00     -118.714      -67.401       -5.027       23.448       30.915       19.274      549.795      955.744      371.482        1.027        0.094      136.513       13.605        0.010      339.076       12.161      860.733
06/01/2014  02:47:00     -123.157      -31.811       -5.842       35.265       28.072       20.708     1243.609      788.020      428.835        0.934        0.123      127.199       18.113        0.020      339.040       12.101      860.729
06/01/2014  02:48:00     -145.169      -50.399      -11.774       30.145       22.533       20.689      908.692      507.731      428.015        1.280        0.092      153.669       17.037        0.012      338.971       11.985      860.726
06/01/2014  02:49:00      -94.544      -44.427        5.991       43.039       31.219       22.260     1852.362      974.650      495.511        0.713        0.166      104.462       23.027        0.049      339.011       12.051      860.718
06/01/2014  02:50:00     -105.906      -36.825       -8.261       43.653       21.411       18.453     1905.595      458.447      340.529        0.767        0.135      112.125       20.681        0.034      338.952       11.954      860.706
06/01/2014  02:51:00     -108.662      -48.091       -4.548       26.821       19.737       16.141      719.349      389.538      260.541        0.775        0.068      118.828        9.294        0.006      338.946       11.942      860.702
06/01/2014  02:52:00      -86.650      -49.477        4.466       58.569       29.274       19.237     3430.354      856.938      370.054        0.732        0.233       99.781       25.180        0.064      339.006       12.045      860.700
06/01/2014  02:53:00     -113.038      -48.281       -2.258       20.514       23.404       16.619      420.811      547.760      276.179        0.818        0.062      122.917        9.837        0.006      338.973       11.987      860.692
06/01/2014  02:54:00     -120.104      -39.319       -1.581       31.563       24.995       18.451      996.210      624.765      340.443        0.897        0.098      126.376       15.934        0.016      339.053       12.123      860.698
06/01/2014  02:55:00     -108.623      -66.783       -1.276       40.649       27.386       23.273     1652.344      750.005      541.630        0.960        0.147      127.510       25.301        0.039      339.193       12.358      860.710
06/01/2014  02:56:00      -52.733      -60.190        7.038       48.292       29.906       21.761     2332.119      894.395      473.519        0.508        0.185       80.023       27.791        0.121      339.242       12.442      860.706
06/01/2014  02:57:00      -61.728      -49.578        2.420       50.711       26.239       20.867     2571.587      688.499      435.415        0.498        0.185       79.172       17.732        0.050      339.253       12.460      860.703
06/01/2014  02:58:00      -79.099      -50.904        7.256       42.445       32.995       21.383     1801.580     1088.692      457.215        0.612        0.167       94.063       23.858        0.064      339.182       12.341      860.698
06/01/2014  02:59:00      -68.466      -51.420        4.300       36.318       28.657       23.385     1318.967      821.233      546.843        0.502        0.134       85.625       21.045        0.060      339.180       12.337      860.705
06/01/2014  03:00:00      -71.679      -64.648        4.623       54.536       37.609       24.158     2974.125     1414.451      583.603        0.715        0.249       96.526       27.315        0.080      339.221       12.404      860.702
06/01/2014  03:01:00      -70.270      -51.204        8.550       51.154       37.883       20.849     2616.772     1435.128      434.662        0.606        0.224       86.947       26.762        0.095      339.165       12.311      860.701
06/01/2014  03:02:00      -60.820      -43.459        1.295       40.450       29.038       24.533     1636.242      843.200      601.868        0.433        0.154       74.752       20.593        0.076      339.190       12.353      860.703
06/01/2014  03:03:00      -69.461      -57.031        3.638       49.674       36.288       19.409     2467.556     1316.817      376.707        0.613        0.208       89.875       18.209        0.041      339.206       12.380      860.704
06/01/2014  03:04:00     -103.558      -60.342        8.640       45.478       38.753       27.078     2068.286     1501.759      733.210        0.937        0.215      119.856       24.713        0.043      339.198       12.365      860.694
06/01/2014  03:05:00     -103.092      -62.405       -8.444       45.495       36.992       25.773     2069.754     1368.403      664.256        0.935        0.205      120.509       27.067        0.050      339.194       12.360      860.682
06/01/2014  03:06:00      -90.537      -45.846        3.249       50.225       43.319       26.593     2522.559     1876.540      707.166        0.771        0.255      101.483       26.062        0.066      339.159       12.301      860.678
06/01/2014  03:07:00     -136.463      -46.732        0.183       38.165       26.986       23.287     1456.603      728.241      542.278        1.177        0.136      144.243       20.722        0.021      339.140       12.271      860.682
06/01/2014  03:08:00     -132.702      -55.176       -1.918       46.419       41.500       24.404     2154.754     1722.290      595.543        1.256        0.224      143.715       24.004        0.028      339.107       12.215      860.682
06/01/2014  03:09:00     -118.078      -40.637       -7.216       24.572       31.477       16.523      603.771      990.810      273.023        0.876        0.093      124.876       11.427        0.008      338.961       11.970      860.680
06/01/2014  03:10:00      -99.228      -57.772       -4.448       37.760       29.767       20.979     1425.847      886.048      440.122        0.798        0.138      114.820       18.147        0.025      339.103       12.208      860.674
06/01/2014  03:11:00      -93.570      -46.560        0.720       34.809       36.967       23.706     1211.696     1366.589      561.961        0.703        0.157      104.514       20.693        0.039      339.083       12.173      860.680
06/01/2014  03:12:00     -109.376      -87.395      -12.606       42.534       38.496       20.520     1809.118     1481.968      421.057        1.174        0.186      140.003       19.332        0.019      339.244       12.445      860.689
06/01/2014  03:13:00      -61.731      -72.744        2.991       37.932       42.278       20.528     1438.874     1787.416      421.389        0.638        0.182       95.406       17.821        0.035      339.248       12.449      860.693
06/01/2014  03:14:00      -90.210      -79.024       -7.245       26.265       43.165       22.388      689.829     1863.230      501.231        0.874        0.153      119.928       15.194        0.016      339.289       12.520      860.694
06/01/2014  03:15:00      -97.636      -55.348        7.803       42.341       39.999       22.286     1792.765     1599.912      496.669        0.827        0.194      112.232       20.562        0.034      339.219       12.401      860.690
06/01/2014  03:16:00      -68.731      -68.663        4.582       47.616       31.677       29.830     2267.243     1003.438      889.801        0.681        0.208       97.152       25.757        0.070      339.159       12.301      860.685
06/01/2014  03:17:00     -101.285      -99.791       -6.665       45.865       36.790       21.887     2103.602     1353.519      479.054        1.210        0.197      142.186       20.008        0.020      339.192       12.357      860.677
06/01/2014  03:18:00      -95.953      -53.188        0.527       29.481       34.656       21.674      869.113     1201.051      469.778        0.729        0.127      109.709       17.632        0.026      339.135       12.262      860.684
06/01/2014  03:19:00     -102.168      -60.271       -7.912       51.528       28.292       20.973     2655.097      800.461      439.887        0.901        0.195      118.621       18.440        0.024      339.091       12.186      860.678
06/01/2014  03:20:00      -95.283      -59.762       -5.998       41.321       26.758       22.117     1707.393      715.978      489.145        0.780        0.146      112.474       18.730        0.028      339.153       12.292      860.677
06/01/2014  03:21:00      -98.393      -64.415        3.087       49.340       30.702       19.548     2434.405      942.587      382.138        0.880        0.188      117.603       21.262        0.033      339.118       12.232      860.675
06/01/2014  03:22:00      -82.967      -48.743        1.827       43.092       29.705       17.386     1856.888      882.401      302.286        0.615        0.152       96.226       14.968        0.024      339.147       12.281      860.681
06/01/2014  03:23:00      -89.686      -42.491        1.202       38.569       23.345       18.806     1487.536      544.999      353.661        0.612        0.119       99.243       20.093        0.041      339.038       12.098      860.686
06/01/2014  03:24:00      -59.025      -40.613        3.238       36.400       20.182       15.975     1324.943      407.305      255.208        0.357        0.099       71.647       15.292        0.046      339.080       12.168      860.703
06/01/2014  03:25:00      -56.026      -44.120        9.203       48.517       20.252       14.748     2353.885      410.149      217.511        0.408        0.149       71.312       14.856        0.043      339.095       12.194      860.711
06/01/2014  03:26:00      -98.169      -88.090       -3.845       49.339       40.302       20.183     2434.377     1624.256      407.335        1.094        0.223      131.898       16.737        0.016      339.089       12.182      860.718
06/01/2014  03:27:00      -76.463      -90.493        6.739       69.198       53.221       38.666     4788.316     2832.477     1495.056        1.160        0.456      118.472       32.610        0.076      339.044       12.107      860.719
06/01/2014  03:28:00     -103.303      -79.481       -5.191       47.540       34.165       25.864     2260.047     1167.254      668.951        1.056        0.205      130.340       20.378        0.024      339.016       12.063      860.714
06/01/2014  03:29:00     -111.155     -120.424        1.285       61.939       65.967       34.594     3836.412     4351.690     1196.771        1.812        0.469      163.882       39.954        0.059      339.007       12.045      860.713
06/01/2014  03:30:00      -71.401     -102.650        9.642       57.686       45.549       31.244     3327.671     2074.680      976.186        1.105        0.319      125.040       22.514        0.032      338.978       11.998      860.712
06/01/2014  03:31:00     -107.718      -87.143       -5.813       67.038       48.545       32.749     4494.046     2356.621     1072.469        1.358        0.396      138.553       35.838        0.067      338.983       12.005      860.713
06/01/2014  03:32:00      -71.419      -48.315        5.294       49.575       48.605       27.056     2457.659     2362.446      732.053        0.651        0.278       86.227       24.294        0.079      338.925       11.906      860.710
06/01/2014  03:33:00     -100.337      -86.584      -10.881       33.539       48.871       18.916     1124.869     2388.334      357.834        1.078        0.194      132.530       17.089        0.017      338.932       11.919      860.708
06/01/2014  03:34:00      -43.321      -80.499       10.273       50.517       50.297       34.151     2551.929     2529.809     1166.313        0.735        0.312       91.416       29.874        0.107      338.954       11.957      860.697
06/01/2014  03:35:00      -68.342      -42.383        7.362       51.352       28.002       27.826     2637.049      784.106      774.263        0.536        0.210       80.417       25.397        0.100      338.883       11.837      860.692
06/01/2014  03:36:00     -109.163      -46.299       -6.478       27.705       23.699       17.035      767.544      561.658      290.179        0.786        0.081      118.576        5.911        0.002      338.829       11.747      860.678
06/01/2014  03:37:00      -78.586      -38.256        2.657       48.513       41.247       24.266     2353.496     1701.352      588.820        0.614        0.232       87.403       23.584        0.073      338.845       11.774      860.675
06/01/2014  03:38:00      -83.138      -16.203       -7.323       28.854       31.842       19.530      832.531     1013.904      381.425        0.473        0.111       84.702       13.355        0.025      338.933       11.921      860.676
06/01/2014  03:39:00     -107.809      -30.252       -1.499       30.353       47.415       17.424      921.278     2248.172      303.588        0.801        0.174      111.973       13.677        0.015      338.830       11.748      860.682
06/01/2014  03:40:00      -83.616      -25.321       -9.844       28.575       33.319       17.365      816.519     1110.160      301.556        0.498        0.111       87.365       10.292        0.014      338.864       11.804      860.689
06/01/2014  03:41:00      -96.987       -1.144       -6.789       39.957       29.346       22.322     1596.586      861.193      498.287        0.620        0.148       96.994       22.799        0.055      338.680       11.495      860.701
06/01/2014  03:42:00     -119.561      -10.504       -7.419       31.158       32.614       18.675      970.794     1063.673      348.772        0.842        0.119      120.021       10.459        0.008      338.606       11.373      860.705
06/01/2014  03:43:00     -102.765      -17.856       -3.091       46.820       29.604       21.813     2192.119      876.383      475.786        0.722        0.177      104.304       24.555        0.055      338.609       11.376      860.717
06/01/2014  03:44:00     -112.742        0.087       -9.341       31.465       26.489       22.529      990.037      701.682      507.536        0.750        0.110      112.742       20.807        0.034      338.636       11.421      860.729
06/01/2014  03:45:00      -96.323      -26.281       -5.549       32.049       35.442       18.667     1027.150     1256.136      348.444        0.632        0.132       99.844       12.997        0.017      338.658       11.460      860.720
06/01/2014  03:46:00      -63.310      -21.761        6.491       33.932       28.679       18.771     1151.358      822.508      352.354        0.342        0.116       66.946       14.503        0.047      338.567       11.308      860.715
06/01/2014  03:47:00     -101.008      -45.874        2.409       35.661       37.085       20.988     1271.694     1375.266      440.494        0.770        0.154      110.937       21.496        0.038      338.577       11.323      860.711
06/01/2014  03:48:00     -119.142      -41.402       -3.058       25.254       25.894       14.913      637.769      670.515      222.399        0.872        0.077      126.131       10.982        0.008      338.497       11.189      860.712
06/01/2014  03:49:00     -137.418      -32.012       -7.778       27.140       19.526       18.424      736.602      381.249      339.449        1.071        0.073      141.098       11.837        0.007      338.382       10.996      860.709
06/01/2014  03:50:00     -112.311      -35.086       -2.984       39.995       38.717       25.277     1599.627     1498.978      638.926        0.879        0.187      117.664       22.763        0.037      338.329       10.907      860.709
06/01/2014  03:51:00     -132.723      -31.653       -4.181       31.114       31.213       15.226      968.082      974.234      231.817        1.040        0.109      136.445       15.243        0.012      338.319       10.890      860.722
06/01/2014  03:52:00     -111.428      -14.488       -4.282       43.318       28.786       22.512     1876.417      828.621      506.771        0.793        0.161      112.366       24.577        0.048      338.327       10.903      860.731
06/01/2014  03:53:00     -118.195      -25.790       -0.351       34.042       33.785       26.526     1158.876     1141.441      703.612        0.882        0.150      120.976       22.927        0.036      338.300       10.858      860.731
06/01/2014  03:54:00     -151.999      -17.734       -7.297       34.189       27.792       22.326     1168.870      772.394      498.436        1.296        0.122      153.030       14.432        0.009      338.339       10.924      860.739
06/01/2014  03:55:00     -122.462      -37.345       -2.903       39.707       34.131       18.357     1576.631     1164.926      336.965        0.974        0.154      128.030       17.527        0.019      338.357       10.953      860.751
06/01/2014  03:56:00     -104.142       -9.686       -1.939       41.567       29.782       23.256     1727.826      886.977      540.854        0.705        0.158      104.591       21.051        0.041      338.368       10.973      860.763
06/01/2014  03:57:00     -125.945      -37.978       -5.353       40.387       33.360       20.089     1631.128     1112.890      403.563        1.024        0.157      131.546       14.891        0.013      338.391       11.012      860.764
06/01/2014  03:58:00     -120.935      -36.153       -1.346       46.873       34.120       22.148     2197.105     1164.205      490.549        0.989        0.193      126.223       16.002        0.016      338.296       10.850      860.769
06/01/2014  03:59:00     -120.987      -46.223       -0.762       55.721       31.937       21.843     3104.860     1019.943      477.124        1.069        0.230      129.516       23.141        0.032      338.271       10.808      860.774
06/01/2014  04:00:00     -120.924      -40.792       -3.305       38.780       38.267       24.094     1503.870     1464.365      580.508        0.992        0.177      127.619       21.396        0.028      338.299       10.856      860.783
06/01/2014  04:01:00     -128.247      -33.974        2.799       43.035       38.908       26.165     1852.003     1513.823      684.616        1.083        0.203      132.671       24.617        0.034      338.293       10.847      860.780
06/01/2014  04:02:00     -143.454      -50.218        1.234       53.974       47.257       24.178     2913.237     2233.220      584.569        1.442        0.287      151.990       25.032        0.027      338.284       10.830      860.784
06/01/2014  04:03:00     -135.931      -50.662        3.709       57.267       47.418       28.419     3279.502     2248.476      807.612        1.370        0.317      145.065       29.787        0.042      338.323       10.897      860.786
06/01/2014  04:04:00      -98.629      -76.912        1.585       51.583       47.631       26.163     2660.829     2268.758      684.497        1.063        0.281      125.072       30.408        0.059      338.398       11.023      860.789
06/01/2014  04:05:00     -127.056      -90.904       -1.057       51.156       43.117       26.839     2616.903     1859.086      720.330        1.480        0.260      156.227       24.430        0.024      338.382       10.995      860.793
06/01/2014  04:06:00      -60.888      -81.043        7.840       47.843       51.146       32.191     2288.977     2615.943     1036.274        0.814        0.297      101.367       31.347        0.096      338.437       11.088      860.794
06/01/2014  04:07:00     -107.862      -94.516        1.049       58.842       41.664       29.016     3462.366     1735.929      841.934        1.330        0.302      143.414       29.349        0.042      338.485       11.169      860.795
06/01/2014  04:08:00     -103.314      -68.231       -5.360       39.344       34.651       23.432     1547.916     1200.721      549.062        0.933        0.165      123.811       17.141        0.019      338.527       11.238      860.794
06/01/2014  04:09:00      -70.309      -51.370        5.171       54.277       34.616       19.721     2946.023     1198.284      388.898        0.607        0.227       87.076       14.555        0.028      338.549       11.277      860.795
06/01/2014  04:10:00      -44.826      -36.118       10.441       50.074       37.090       24.580     2507.411     1375.697      604.198        0.395        0.224       57.567       23.761        0.170      338.538       11.258      860.790
06/01/2014  04:11:00     -104.017      -53.341       -2.905       39.461       40.044       18.156     1557.143     1603.523      329.629        0.858        0.175      116.896       19.432        0.028      338.441       11.094      860.787
06/01/2014  04:12:00     -119.241      -24.173      -11.169       24.929       26.098       15.965      621.461      681.119      254.872        0.824        0.078      121.666       10.291        0.007      338.338       10.921      860.784
06/01/2014  04:13:00     -117.215      -20.546      -10.072       30.076       27.309       19.973      904.589      745.773      398.916        0.816        0.102      119.003       18.596        0.024      338.217       10.717      860.788
06/01/2014  04:14:00     -105.649      -18.856        2.163       36.751       26.485       23.648     1350.603      701.433      559.222        0.707        0.131      107.318       19.264        0.032      338.196       10.682      860.803
06/01/2014  04:15:00      -86.261      -29.087        0.208       46.436       28.333       23.383     2156.283      802.787      546.746        0.590        0.175       91.034       26.031        0.082      338.232       10.745      860.807
06/01/2014  04:16:00     -115.414      -51.310        1.264       36.041       37.778       20.118     1298.974     1427.197      404.719        0.954        0.157      126.306       14.729        0.014      338.243       10.765      860.797
06/01/2014  04:17:00     -114.846      -52.677       -3.062       27.994       22.566       15.235      783.654      509.231      232.116        0.875        0.076      126.350       14.178        0.013      338.182       10.661      860.785
06/01/2014  04:18:00      -96.765      -55.501       -1.888       29.892       23.371       17.317      893.551      546.221      299.867        0.709        0.087      111.552       14.872        0.018      338.170       10.639      860.787
06/01/2014  04:19:00      -53.803      -35.981        1.642       45.821       21.732       15.074     2099.526      472.280      227.225        0.349        0.140       64.726        7.910        0.015      338.284       10.830      860.783
06/01/2014  04:20:00     -104.793      -40.687       -0.735       27.047       26.987       16.328      731.539      728.307      266.620        0.718        0.086      112.415       11.298        0.010      338.182       10.660      860.778
06/01/2014  04:21:00     -102.757      -45.154       -9.448       30.441       34.935       22.520      926.673     1220.468      507.166        0.767        0.133      112.240       18.585        0.027      338.120       10.556      860.778
06/01/2014  04:22:00      -78.047      -33.546        5.680       32.770       23.862       18.953     1073.897      569.403      359.202        0.463        0.100       84.951       15.621        0.034      338.157       10.617      860.786
06/01/2014  04:23:00      -98.945      -24.573       -1.509       29.191       21.896       16.148      852.091      479.415      260.765        0.599        0.080      101.951       12.860        0.016      337.987       10.331      860.792
06/01/2014  04:24:00     -115.615      -46.980       -2.760       36.060       31.429       17.028     1300.339      987.803      289.968        0.908        0.129      124.796       12.679        0.010      338.033       10.410      860.795
06/01/2014  04:25:00      -83.984      -41.032        4.219       24.855       19.992       19.026      617.789      399.690      361.979        0.507        0.069       93.472       15.184        0.026      337.994       10.344      860.793
06/01/2014  04:26:00      -77.995      -56.265        2.320       33.440       17.461       17.956     1118.233      304.887      322.413        0.550        0.087       96.172       17.720        0.034      338.103       10.528      860.791
06/01/2014  04:27:00      -94.039      -41.217        2.619       37.109       23.998       19.848     1377.110      575.917      393.943        0.645        0.117      102.676       18.206        0.031      338.130       10.572      860.789
06/01/2014  04:28:00      -68.239      -42.890        7.517       36.770       30.210       20.287     1352.066      912.620      411.571        0.461        0.134       80.598       17.659        0.048      338.152       10.609      860.774
06/01/2014  04:29:00      -61.574      -49.782        4.777       40.306       32.818       21.309     1624.586     1077.021      454.054        0.472        0.158       79.181       22.841        0.083      338.128       10.568      860.764
06/01/2014  04:30:00      -90.069      -74.545        0.716       38.556       27.036       21.496     1486.545      730.931      462.062        0.817        0.134      116.916       16.731        0.020      338.167       10.635      860.756
06/01/2014  04:31:00      -58.171      -48.258        6.406       39.100       22.720       17.088     1528.818      516.180      291.984        0.404        0.117       75.583       15.594        0.043      338.122       10.559      860.765
06/01/2014  04:32:00      -79.648      -48.483       -3.066       20.969       19.022       17.118      439.719      361.839      293.023        0.490        0.055       93.244       13.455        0.021      338.134       10.579      860.772
06/01/2014  04:33:00     -114.286      -50.245       -0.041       32.518       22.736       19.313     1057.401      516.929      372.974        0.877        0.097      124.844       18.973        0.023      338.002       10.358      860.774
06/01/2014  04:34:00     -100.163      -56.758        0.764       30.494       31.325       19.123      929.880      981.234      365.698        0.777        0.114      115.126       13.831        0.014      338.023       10.392      860.772
06/01/2014  04:35:00      -91.683      -69.421        5.615       47.293       29.287       21.823     2236.625      857.723      476.253        0.841        0.179      115.000       13.788        0.014      338.089       10.503      860.776
06/01/2014  04:36:00     -111.876      -77.331       -2.591       32.969       37.843       24.062     1086.967     1432.110      578.962        1.080        0.155      136.001       18.272        0.018      338.025       10.396      860.790
06/01/2014  04:37:00      -87.854      -71.278        8.530       39.344       35.736       19.907     1547.925     1277.034      396.293        0.805        0.161      113.132       18.873        0.028      338.045       10.430      860.791
06/01/2014  04:38:00      -83.077      -55.242       -0.610       29.409       21.955       13.300      864.913      482.035      176.881        0.574        0.076       99.767        9.638        0.009      338.151       10.605      860.795
06/01/2014  04:39:00      -62.786      -33.116        5.480       37.086       28.074       15.374     1375.370      788.132      236.352        0.373        0.120       70.984       14.866        0.044      338.111       10.539      860.800
06/01/2014  04:40:00      -63.402      -38.217        8.226       39.338       27.135       20.390     1547.476      736.316      415.753        0.412        0.135       74.029       20.410        0.076      338.072       10.476      860.792
06/01/2014  04:41:00      -59.022      -60.508        5.058       48.974       40.023       17.131     2398.443     1601.837      293.469        0.573        0.215       84.527       20.363        0.058      338.140       10.590      860.782
06/01/2014  04:42:00      -91.542      -61.392        1.705       48.621       36.049       19.235     2364.022     1299.525      369.986        0.809        0.202      110.222       16.843        0.023      338.182       10.659      860.776
06/01/2014  04:43:00      -47.519      -44.335       15.074       46.613       34.786       25.375     2172.789     1210.074      643.910        0.424        0.201       64.989       17.927        0.076      338.115       10.547      860.783
06/01/2014  04:44:00      -83.933      -40.568       13.219       70.380       34.430       23.018     4953.329     1185.443      529.850        0.777        0.333       93.223       31.647        0.115      338.105       10.529      860.775
06/01/2014  04:45:00      -90.118      -63.026        4.733       51.201       40.212       26.244     2621.581     1616.994      688.756        0.852        0.246      109.970       24.761        0.051      338.077       10.483      860.787
06/01/2014  04:46:00      -78.570      -36.894       -0.703       44.790       29.529       18.606     2006.112      871.940      346.179        0.538        0.161       86.801       20.873        0.058      338.141       10.591      860.811
06/01/2014  04:47:00      -83.007      -53.651        7.493       36.703       42.202       23.198     1347.086     1781.020      538.129        0.674        0.183       98.836       21.537        0.047      338.118       10.552      860.828
06/01/2014  04:48:00     -104.525      -54.297      -11.041       51.716       31.087       24.081     2674.502      966.398      579.903        0.911        0.211      117.786       17.315        0.022      338.061       10.457      860.827
06/01/2014  04:49:00     -112.007      -50.969        0.632       38.346       28.060       18.006     1470.425      787.392      324.205        0.886        0.129      123.059       16.481        0.018      338.054       10.445      860.835
06/01/2014  04:50:00      -75.101      -37.748        4.242       34.288       28.017       17.112     1175.633      784.963      292.831        0.467        0.113       84.054       14.831        0.031      338.041       10.423      860.842
06/01/2014  04:51:00      -85.887      -72.636       -3.101       30.293       19.140       12.934      917.685      366.327      167.279        0.706        0.073      112.484        6.966        0.004      338.119       10.554      860.837
06/01/2014  04:52:00      -78.434      -54.552       -5.987       35.113       30.094       19.968     1232.891      905.662      398.725        0.585        0.127       95.539       17.474        0.033      338.073       10.477      860.830
06/01/2014  04:53:00      -67.302      -44.656        4.996       49.871       25.644       23.401     2487.081      657.634      547.586        0.512        0.185       80.769       18.125        0.050      338.039       10.420      860.826
06/01/2014  04:54:00      -77.969      -71.044       -1.934       40.813       35.827       23.335     1665.726     1283.587      544.541        0.731        0.175      105.482       17.705        0.028      338.081       10.490      860.825
06/01/2014  04:55:00      -81.741      -60.816        0.928       38.229       33.505       22.058     1461.487     1122.591      486.549        0.673        0.154      101.884       20.021        0.039      338.054       10.446      860.828
06/01/2014  04:56:00      -93.638      -61.984       -1.661       27.123       23.843       14.701      735.634      568.484      216.109        0.707        0.076      112.295       13.033        0.013      338.064       10.461      860.837
06/01/2014  04:57:00      -84.763      -45.641        4.843       49.114       22.758       19.508     2412.156      517.907      380.579        0.630        0.166       96.270       22.508        0.055      338.049       10.436      860.838
06/01/2014  04:58:00      -87.408      -53.206        6.050       37.817       26.463       20.365     1430.112      700.272      414.729        0.653        0.127      102.328       21.081        0.042      337.996       10.348      860.829
06/01/2014  04:59:00     -117.726      -67.398        2.738       40.671       26.788       19.154     1654.147      717.590      366.887        1.057        0.137      135.654       17.490        0.017      337.970       10.305      860.824
06/01/2014  05:00:00     -106.675      -61.953        7.298       39.326       29.684       24.239     1546.556      881.125      587.505        0.914        0.151      123.360       22.926        0.035      337.885       10.160      860.832
06/01/2014  05:01:00     -117.425      -60.209       -5.010       27.963       26.548       18.956      781.926      704.789      359.319        0.964        0.092      131.961       14.046        0.011      337.916       10.213      860.816
06/01/2014  05:02:00     -114.644      -48.407       -3.160       33.663       23.098       16.081     1133.221      533.530      258.603        0.871        0.096      124.445       17.698        0.020      337.891       10.171      860.822
06/01/2014  05:03:00      -55.298      -39.681        5.817       38.825       25.801       17.195     1507.348      665.691      295.651        0.357        0.123       68.062       18.618        0.075      337.934       10.244      860.833
06/01/2014  05:04:00      -79.011      -57.331       -2.743       35.364       32.549       21.185     1250.615     1059.445      448.785        0.615        0.138       97.619       22.441        0.053      337.897       10.182      860.836
06/01/2014  05:05:00     -105.361      -62.959       -6.483       19.831       26.858       17.271      393.282      721.340      298.271        0.826        0.071      122.739        7.794        0.004      337.956       10.279      860.840
06/01/2014  05:06:00      -83.855      -85.032       -2.448       36.914       30.273       25.491     1362.623      916.433      649.814        0.860        0.146      119.424       20.462        0.029      338.022       10.391      860.854
06/01/2014  05:07:00      -76.979      -93.490        6.367       51.107       53.947       31.254     2611.974     2910.243      976.828        1.060        0.325      121.104       33.882        0.078      337.964       10.295      860.862
06/01/2014  05:08:00      -89.775      -70.049       -1.465       58.943       48.099       33.880     3474.230     2313.475     1147.852        0.995        0.347      113.870       26.657        0.055      337.884       10.159      860.863
06/01/2014  05:09:00      -99.463      -94.541       -6.526       74.924       69.312       34.470     5613.642     4804.108     1188.177        1.524        0.580      137.225       36.252        0.070      337.909       10.202      860.877
06/01/2014  05:10:00     -115.534      -84.845       -1.623       38.678       56.270       28.508     1495.982     3166.314      812.725        1.301        0.274      143.342       18.498        0.017      337.928       10.234      860.892
06/01/2014  05:11:00      -91.832      -48.914        4.182       46.167       31.853       21.701     2131.368     1014.608      470.913        0.723        0.181      104.047       24.622        0.056      337.871       10.139      860.899
06/01/2014  05:12:00      -97.541      -51.050      -16.540       30.029       26.067       21.332      901.751      679.468      455.040        0.721        0.102      110.092       15.826        0.021      337.939       10.251      860.900
06/01/2014  05:13:00      -58.262      -47.180       -1.907       39.761       23.398       18.635     1580.972      547.467      347.248        0.405        0.124       74.969        9.831        0.017      337.931       10.238      860.903
06/01/2014  05:14:00      -88.431      -65.269       -6.203       53.765       39.286       20.100     2890.700     1543.353      404.005        0.848        0.242      109.909       19.887        0.033      337.914       10.211      860.891
06/01/2014  05:15:00     -123.182      -97.351        4.028       60.461       45.192       35.086     3655.588     2042.336     1231.016        1.580        0.346      157.006       34.444        0.048      337.885       10.160      860.877
06/01/2014  05:16:00     -138.744     -103.904       -5.290       70.024       56.953       37.510     4903.389     3243.637     1406.997        1.981        0.478      173.337       42.319        0.060      337.852       10.105      860.867
06/01/2014  05:17:00     -169.785     -142.310       -6.979       56.898       55.263       33.775     3237.411     3054.021     1140.745        2.828        0.372      221.538       23.150        0.011      337.841       10.083      860.863
06/01/2014  05:18:00     -102.120      -61.066       11.013       64.047       46.044       32.195     4101.975     2120.071     1036.533        1.077        0.363      118.985       36.053        0.092      337.827       10.063      860.852
06/01/2014  05:19:00     -140.067      -33.849       -9.793       38.769       33.448       27.813     1503.033     1118.743      773.589        1.213        0.170      144.099       18.353        0.016      337.822       10.056      860.842
06/01/2014  05:20:00     -129.747      -98.477       -5.873       43.353       50.402       31.016     1879.486     2540.391      961.997        1.597        0.269      162.886       29.761        0.033      337.811       10.037      860.838
06/01/2014  05:21:00     -134.640      -56.383       -3.934       34.312       39.689       24.475     1177.311     1575.256      599.034        1.234        0.168      145.969       20.024        0.019      337.838       10.081      860.840
06/01/2014  05:22:00      -99.299      -27.761        0.425       59.901       36.306       23.965     3588.104     1318.146      574.341        0.805        0.274      103.107       26.906        0.068      337.700        9.852      860.833
06/01/2014  05:23:00     -101.826      -93.619       -0.404       38.137       36.018       24.744     1454.404     1297.320      612.259        1.125        0.168      138.323       19.407        0.020      337.825       10.060      860.828
06/01/2014  05:24:00      -94.036      -54.992       -0.266       48.355       36.461       22.944     2338.178     1329.369      526.430        0.803        0.210      108.935       22.343        0.042      337.755        9.944      860.835
06/01/2014  05:25:00      -63.404      -42.777        3.499       43.309       33.412       24.580     1875.634     1116.394      604.176        0.473        0.180       76.485       24.552        0.103      337.770        9.968      860.842
06/01/2014  05:26:00      -65.648      -79.419        3.987       49.954       48.329       30.933     2495.380     2335.694      956.849        0.821        0.289      103.039       32.095        0.097      337.727        9.897      860.850
06/01/2014  05:27:00      -75.553      -38.620        5.039       57.851       39.072       29.309     3346.712     1526.649      859.021        0.648        0.287       84.851       27.316        0.104      337.706        9.860      860.868
06/01/2014  05:28:00      -84.698     -114.907       -1.451       46.644       53.081       27.097     2175.651     2817.586      734.258        1.305        0.286      142.749       24.791        0.030      337.678        9.813      860.882
06/01/2014  05:29:00     -111.271      -60.961        0.447       43.464       44.441       23.975     1889.115     1975.012      574.780        1.027        0.222      126.876       20.899        0.027      337.668        9.796      860.884
06/01/2014  05:30:00     -111.696      -57.704        2.545       52.458       38.095       23.691     2751.869     1451.239      561.260        1.029        0.238      125.721       22.360        0.032      337.623        9.723      860.883
06/01/2014  05:31:00     -148.366      -84.817        5.946       73.165       57.902       31.035     5353.184     3352.584      963.160        1.945        0.483      170.899       30.725        0.032      337.611        9.700      860.877
06/01/2014  05:32:00     -190.595      -74.054       -2.011       52.924       39.633       28.425     2800.972     1570.741      808.006        2.350        0.259      204.476       21.981        0.012      337.556        9.607      860.874
06/01/2014  05:33:00     -166.282      -69.066       -3.766       48.670       43.880       24.891     2368.798     1925.423      619.538        1.867        0.246      180.055       18.431        0.010      337.633        9.738      860.861
06/01/2014  05:34:00      -95.909      -41.480       -0.584       49.949       41.457       25.273     2494.875     1718.710      638.726        0.788        0.243      104.495       27.011        0.067      337.652        9.772      860.863
06/01/2014  05:35:00     -124.733      -43.925       -3.207       48.254       33.224       22.493     2328.407     1103.810      505.937        1.072        0.197      132.241       22.374        0.029      337.573        9.638      860.856
06/01/2014  05:36:00      -83.200      -48.512      -13.222       25.772       46.974       19.941      664.181     2206.579      397.643        0.636        0.163       96.310       14.114        0.021      337.568        9.631      860.854
06/01/2014  05:37:00      -79.196      -54.909        5.751       55.316       33.806       22.342     3059.834     1142.837      499.187        0.701        0.235       96.369       17.843        0.034      337.510        9.532      860.871
06/01/2014  05:38:00     -103.343      -11.345        2.725       45.171       29.171       25.929     2040.404      850.930      672.310        0.719        0.178      103.964       22.472        0.047      337.421        9.384      860.876
06/01/2014  05:39:00      -71.529      -29.915        0.397       45.785       43.302       21.939     2096.284     1875.046      481.340        0.523        0.223       77.532       16.637        0.046      337.409        9.363      860.879
06/01/2014  05:40:00      -63.017       -0.579       12.676       41.702       35.826       26.542     1739.092     1283.503      704.503        0.393        0.186       63.020       26.208        0.173      337.414        9.371      860.892
06/01/2014  05:41:00      -79.071      -14.791        2.402       39.229       28.365       18.298     1538.921      804.576      334.815        0.458        0.134       80.443       16.825        0.044      337.385        9.322      860.904
06/01/2014  05:42:00      -42.202      -34.294        5.258       44.152       24.787       14.628     1949.362      614.391      213.973        0.288        0.139       54.379       18.027        0.110      337.462        9.452      860.909
06/01/2014  05:43:00      -94.652      -22.528       -6.450       42.989       35.273       22.603     1848.016     1244.175      510.897        0.655        0.180       97.296       19.920        0.042      337.437        9.409      860.926
06/01/2014  05:44:00      -47.326      -44.259        7.754       45.394       30.035       18.812     2060.614      902.075      353.903        0.379        0.166       64.797       12.781        0.039      337.563        9.620      860.944
06/01/2014  05:45:00      -82.449      -86.527       -8.512       33.668       40.888       16.576     1133.535     1671.853      274.771        0.872        0.154      119.519       12.602        0.011      337.511        9.536      860.956
06/01/2014  05:46:00      -55.425      -82.711        9.998       43.819       46.200       26.328     1920.083     2134.406      693.180        0.738        0.237       99.564       26.955        0.073      337.477        9.476      860.967
06/01/2014  05:47:00      -55.896      -72.898        3.994       57.596       27.704       27.114     3317.322      767.533      735.174        0.664        0.241       91.862       23.625        0.066      337.493        9.503      860.977
06/01/2014  05:48:00      -86.692      -58.218       -2.910       40.611       41.703       21.202     1649.228     1739.166      449.537        0.737        0.192      104.426       21.010        0.040      337.467        9.459      860.991
06/01/2014  05:49:00      -50.049      -36.245        3.846       34.566       29.057       22.726     1194.840      844.299      516.457        0.319        0.128       61.795       20.507        0.110      337.538        9.580      860.993
06/01/2014  05:50:00      -64.257      -51.370        4.182       42.675       42.391       18.689     1821.126     1797.020      349.270        0.538        0.198       82.267       20.286        0.061      337.520        9.548      860.989
06/01/2014  05:51:00     -101.751      -67.556        3.531       42.954       40.694       25.928     1845.053     1655.972      672.255        0.955        0.209      122.136       25.292        0.043      337.489        9.497      860.976
06/01/2014  05:52:00     -100.731      -56.039        6.852       64.755       36.710       24.758     4193.181     1347.600      612.939        0.974        0.308      115.270       29.671        0.066      337.527        9.562      860.966
06/01/2014  05:53:00     -102.068      -51.785        9.825       57.714       38.251       29.270     3330.860     1463.171      856.750        0.942        0.283      114.453       23.779        0.043      337.524        9.555      860.960
06/01/2014  05:54:00     -104.967      -54.353        1.402       65.179       62.621       29.778     4248.344     3921.407      886.732        1.151        0.453      118.205       31.691        0.072      337.561        9.619      860.953
06/01/2014  05:55:00      -93.800      -45.313       -3.064       46.851       38.997       29.869     2195.001     1520.768      892.133        0.773        0.230      104.172       26.453        0.064      337.610        9.700      860.952
06/01/2014  05:56:00     -135.414      -76.816       -6.822       54.138       57.120       30.281     2930.948     3262.732      916.931        1.570        0.356      155.685       28.664        0.034      337.601        9.686      860.951
06/01/2014  05:57:00     -101.093      -73.762       -1.490       52.577       43.758       26.206     2764.310     1914.753      686.745        1.051        0.268      125.142       22.622        0.033      337.605        9.692      860.956
06/01/2014  05:58:00      -74.955       -4.387        0.088       47.189       28.941       24.397     2226.838      837.607      595.193        0.465        0.183       75.083       21.772        0.084      337.449        9.429      860.965
06/01/2014  05:59:00      -82.562      -25.148        3.978       50.635       28.318       24.504     2563.935      801.933      600.463        0.571        0.198       86.307       26.129        0.092      337.364        9.289      860.970
06/01/2014  06:00:00      -85.442      -28.075       -5.316       38.939       42.458       24.552     1516.264     1802.697      602.805        0.602        0.196       89.936       25.663        0.081      337.435        9.407      860.973
06/01/2014  06:01:00     -144.877       -2.255      -12.807       39.857       34.372       19.094     1588.577     1181.411      364.598        1.215        0.157      144.895       15.719        0.012      337.286        9.158      860.974
06/01/2014  06:02:00     -113.072      -24.891        6.579       45.810       36.578       24.122     2098.554     1337.963      581.847        0.873        0.201      115.779       22.950        0.039      337.254        9.103      860.974
06/01/2014  06:03:00      -88.614      -56.388        1.374       43.703       53.700       21.632     1909.927     2883.645      467.960        0.815        0.263      105.034       24.285        0.053      337.360        9.280      860.978
06/01/2014  06:04:00     -120.150      -72.820        1.858       45.489       39.423       21.579     2069.281     1554.195      465.675        1.191        0.204      140.495       18.835        0.018      337.435        9.407      860.978
06/01/2014  06:05:00     -156.456      -71.018        3.002       58.105       45.668       30.923     3376.237     2085.551      956.232        1.797        0.321      171.820       32.933        0.037      337.368        9.293      860.970
06/01/2014  06:06:00     -151.469      -19.810       11.623       85.837       56.484       41.111     7367.979     3190.410     1690.145        1.786        0.612      152.759       46.249        0.092      337.313        9.201      860.962
06/01/2014  06:07:00     -176.894      -52.062        9.319       86.697       61.276       31.607     7516.361     3754.744      999.022        2.318        0.614      184.396       39.046        0.045      337.345        9.255      860.965
06/01/2014  06:08:00     -154.173      -94.701       -3.275       57.792       45.142       25.590     3339.953     2037.787      654.839        1.939        0.302      180.935       22.191        0.015      337.336        9.240      860.972
06/01/2014  06:09:00     -139.389      -64.259        2.193       69.585       64.521       34.777     4842.102     4162.936     1209.451        1.689        0.511      153.488       36.399        0.056      337.318        9.209      860.984
06/01/2014  06:10:00     -155.413      -47.087        0.539       49.461       44.967       29.136     2446.406     2021.993      848.931        1.584        0.266      162.390       24.063        0.022      337.274        9.137      860.987
06/01/2014  06:11:00     -114.214      -18.610       -2.543       38.011       31.896       24.683     1444.807     1017.346      609.272        0.823        0.154      115.720       23.468        0.041      337.334        9.238      861.011
06/01/2014  06:12:00      -66.744      -17.214        0.222       22.901       23.750       15.790      524.434      564.058      249.339        0.304        0.067       68.928       10.856        0.025      337.404        9.353      861.032
06/01/2014  06:13:00      -66.892      -11.647       -8.077       22.867       18.795       13.987      522.880      353.258      195.623        0.287        0.054       67.898       10.844        0.026      337.416        9.374      861.052
06/01/2014  06:14:00      -37.423      -25.305        3.535       30.652       27.533       17.828      939.522      758.046      317.821        0.203        0.101       45.176       19.117        0.179      337.530        9.566      861.069
06/01/2014  06:15:00      -59.360      -48.775        2.865       27.570       27.851       15.330      760.089      775.659      235.022        0.384        0.089       76.829       11.320        0.022      337.459        9.446      861.074
06/01/2014  06:16:00      -95.269      -22.454       -0.489       27.799       18.459       14.931      772.795      340.727      222.920        0.546        0.067       97.880       13.610        0.019      337.507        9.527      861.076
06/01/2014  06:17:00     -107.699      -27.111       -3.425       37.222       30.592       17.119     1385.508      935.863      293.064        0.748        0.131      111.059       14.586        0.017      337.490        9.498      861.089
06/01/2014  06:18:00     -135.181      -52.321       -4.714       34.370       31.570       22.768     1181.320      996.690      518.379        1.186        0.135      144.953       22.601        0.024      337.435        9.408      861.094
06/01/2014  06:19:00     -136.654      -25.056       -9.054       37.470       22.279       17.009     1403.978      496.361      289.308        1.079        0.109      138.932       18.337        0.017      337.497        9.510      861.084
06/01/2014  06:20:00     -101.978      -35.771        5.998       40.014       24.210       18.385     1601.099      586.131      338.024        0.712        0.126      108.070       20.886        0.037      337.519        9.548      861.092
06/01/2014  06:21:00      -49.834      -43.798        5.143       28.181       28.090       25.968      794.145      789.032      674.324        0.334        0.113       66.345       20.096        0.092      337.640        9.751      861.105
06/01/2014  06:22:00      -36.768      -26.492        9.309       31.459       27.274       18.512      989.665      743.874      342.688        0.211        0.104       45.318       16.681        0.135      337.708        9.865      861.111
06/01/2014  06:23:00      -72.487      -52.531       -4.568       39.416       25.419       13.520     1553.604      646.125      182.787        0.521        0.119       89.520       18.647        0.043      337.739        9.917      861.121
06/01/2014  06:24:00      -60.750      -61.355       -3.281       39.855       31.114       17.996     1588.404      968.082      323.867        0.517        0.144       86.342       17.259        0.040      337.770        9.969      861.135
06/01/2014  06:25:00      -30.397      -32.163       11.476       36.586       24.191       20.896     1338.526      585.225      436.636        0.222        0.118       44.254       22.234        0.252      337.927       10.232      861.131
06/01/2014  06:26:00      -37.658      -91.080        0.464       35.768       23.078       15.823     1279.367      532.595      250.355        0.589        0.103       98.558       12.546        0.016      337.825       10.061      861.133
06/01/2014  06:27:00      -10.765      -61.218       15.701       31.831       24.888       23.976     1013.239      619.404      574.857        0.316        0.110       62.157       25.001        0.162      337.909       10.202      861.140
06/01/2014  06:28:00      -49.535      -59.037       -4.841       28.872       23.581       16.591      833.578      556.085      275.275        0.381        0.083       77.066       12.964        0.028      337.851       10.104      861.147
06/01/2014  06:29:00      -69.140      -83.840       -4.985       20.360       21.006       19.305      414.511      441.261      372.677        0.653        0.061      108.671       16.264        0.022      337.810       10.037      861.155
06/01/2014  06:30:00      -51.787      -55.585       -6.325       29.924       29.532       16.203      895.425      872.116      262.552        0.392        0.102       75.972       17.866        0.055      337.875       10.144      861.154
06/01/2014  06:31:00      -50.927      -70.102       -0.676       24.939       19.262       17.329      621.966      371.034      300.303        0.440        0.065       86.647       12.503        0.021      337.889       10.169      861.162
06/01/2014  06:32:00      -48.511      -77.963        2.611       32.236       32.347       14.932     1039.128     1046.344      222.962        0.537        0.115       91.823       10.273        0.013      337.905       10.194      861.166
06/01/2014  06:33:00      -66.426      -77.738        5.038       38.283       38.720       29.681     1465.570     1499.211      880.952        0.716        0.192      102.252       29.814        0.085      337.925       10.230      861.174
06/01/2014  06:34:00      -86.702      -74.693        0.548       51.215       49.079       29.289     2622.938     2408.772      857.869        0.949        0.294      114.440       27.588        0.058      337.867       10.133      861.161
06/01/2014  06:35:00     -118.907     -107.726      -13.915       48.979       53.499       28.161     2398.971     2862.124      793.061        1.599        0.303      160.449       23.200        0.021      337.851       10.104      861.169
06/01/2014  06:36:00     -130.925     -112.293       -9.061       35.228       34.099       22.073     1241.020     1162.746      487.222        1.636        0.145      172.485       20.506        0.014      337.873       10.141      861.151
06/01/2014  06:37:00     -100.006      -93.282        3.267       47.012       45.546       26.874     2210.163     2074.411      722.198        1.186        0.250      136.758       23.792        0.030      337.923       10.226      861.154
06/01/2014  06:38:00     -106.499      -91.470      -10.719       43.491       40.153       22.219     1891.443     1612.250      493.675        1.191        0.200      140.388       19.285        0.019      337.928       10.233      861.154
06/01/2014  06:39:00      -68.121      -69.755       -3.079       37.657       34.312       21.610     1418.050     1177.289      466.973        0.629        0.153       97.500       17.456        0.032      337.996       10.347      861.152
06/01/2014  06:40:00      -92.202      -82.631       -2.782       32.415       31.157       23.168     1050.706      970.747      536.752        0.895        0.128      123.811        8.984        0.005      337.975       10.312      861.149
06/01/2014  06:41:00      -53.076      -51.844        7.723       32.818       28.531       19.847     1077.037      814.026      393.891        0.392        0.114       74.195       18.811        0.064      338.033       10.408      861.153
06/01/2014  06:42:00      -55.304      -76.205        0.522       27.497       35.928       20.154      756.078     1290.857      406.165        0.566        0.123       94.158       15.675        0.028      338.026       10.399      861.151
06/01/2014  06:43:00      -55.594      -69.834        5.700       25.729       44.057       21.198      661.983     1941.052      449.373        0.553        0.153       89.260       18.235        0.042      338.097       10.517      861.152
06/01/2014  06:44:00      -56.986      -63.366       -2.286       52.873       35.802       30.435     2795.592     1281.789      926.301        0.613        0.250       85.221       30.450        0.128      338.113       10.544      861.145
06/01/2014  06:45:00      -50.520      -48.142       -0.064       51.451       36.656       23.207     2647.179     1343.678      538.544        0.470        0.226       69.785       19.581        0.079      338.157       10.617      861.133
06/01/2014  06:46:00      -79.425      -81.370       -2.643       36.015       31.554       16.946     1297.106      995.659      287.180        0.776        0.129      113.708       13.189        0.013      338.137       10.584      861.136
06/01/2014  06:47:00      -55.773      -43.010        6.291       34.146       33.842       19.404     1165.962     1145.257      376.499        0.384        0.134       70.431       15.027        0.046      338.220       10.723      861.131
06/01/2014  06:48:00      -49.832      -54.774       -7.239       26.825       29.753       16.020      719.602      885.269      256.634        0.370        0.093       74.050        9.948        0.018      338.211       10.709      861.142
06/01/2014  06:49:00      -71.124      -59.213       -4.641       37.435       27.226       24.362     1401.379      741.230      593.513        0.566        0.137       92.546       19.448        0.044      338.203       10.695      861.131
06/01/2014  06:50:00      -71.854      -77.956       -1.453       37.588       33.857       20.604     1412.856     1146.328      424.529        0.711        0.149      106.019       17.694        0.028      338.216       10.716      861.133
06/01/2014  06:51:00      -82.700      -60.509        2.721       46.086       29.786       22.508     2123.931      887.210      506.593        0.701        0.176      102.472       20.543        0.040      338.261       10.793      861.122
06/01/2014  06:52:00      -86.686      -78.991        6.511       41.029       33.616       21.253     1683.419     1130.025      451.683        0.853        0.163      117.278       22.195        0.036      338.269       10.806      861.108
06/01/2014  06:53:00      -85.354      -59.649        7.631       39.385       30.978       28.444     1551.154      959.622      809.053        0.711        0.166      104.131       23.251        0.050      338.267       10.804      861.106
06/01/2014  06:54:00      -59.964      -49.840       -0.772       24.073       30.377       14.505      579.499      922.785      210.403        0.390        0.086       77.973       12.337        0.025      338.347       10.936      861.098
06/01/2014  06:55:00      -80.426      -56.823       -0.874       24.630       28.415       18.774      606.657      807.438      352.460        0.573        0.088       98.474       14.452        0.022      338.396       11.020      861.099
06/01/2014  06:56:00      -65.667      -58.937       -0.378       28.749       31.411       19.670      826.497      986.669      386.891        0.499        0.110       88.237       17.396        0.039      338.484       11.167      861.099
06/01/2014  06:57:00      -78.482      -67.780       -5.178       25.450       23.882       19.765      647.688      570.343      390.674        0.619        0.080      103.699       13.762        0.018      338.453       11.113      861.092
06/01/2014  06:58:00      -45.858      -27.487        1.748       43.165       22.851       16.553     1863.225      522.146      274.003        0.276        0.133       53.464       21.404        0.160      338.687       11.509      861.099
06/01/2014  06:59:00      -33.043      -36.610        4.148       14.289       24.527       16.598      204.173      601.583      275.497        0.177        0.054       49.317        8.542        0.030      338.507       11.205      861.105
06/01/2014  07:00:00      -39.232      -22.819        4.094       24.315       15.637       12.547      591.200      244.506      157.440        0.153        0.050       45.386       12.130        0.071      338.590       11.344      861.107
06/01/2014  07:01:00      -42.836      -48.697        0.256       25.090       25.614       14.386      629.512      656.083      206.943        0.285        0.075       64.856       14.466        0.050      338.603       11.368      861.113
06/01/2014  07:02:00      -54.437      -45.295       -5.578       30.530       20.939       17.239      932.101      438.428      297.184        0.336        0.083       70.816       16.097        0.052      338.657       11.458      861.119
06/01/2014  07:03:00      -81.753      -97.703      -12.768       30.826       27.055       16.782      950.215      731.965      281.619        0.918        0.098      127.394       13.876        0.012      338.545       11.268      861.120
06/01/2014  07:04:00      -68.951      -82.324        0.582       41.536       36.114       21.224     1725.255     1304.187      450.466        0.751        0.174      107.385       21.000        0.038      338.578       11.325      861.123
06/01/2014  07:05:00      -64.084      -54.321       -0.395       48.547       36.755       25.821     2356.855     1350.910      666.709        0.572        0.219       84.009       23.235        0.076      338.684       11.501      861.129
06/01/2014  07:06:00      -50.760      -55.942        0.425       26.368       33.644       21.296      695.254     1131.912      453.531        0.399        0.114       75.538       18.768        0.062      338.699       11.528      861.141
06/01/2014  07:07:00      -30.385      -24.937        2.629       21.951       26.098       14.843      481.857      681.089      220.306        0.147        0.069       39.308       11.324        0.083      338.793       11.686      861.146
06/01/2014  07:08:00      -56.017      -49.006        1.923       18.299       38.728       13.564      334.865     1499.844      183.983        0.378        0.101       74.427       17.792        0.057      338.633       11.417      861.160
06/01/2014  07:09:00      -58.703      -46.916        4.337       43.792       30.341       21.605     1917.755      920.574      466.757        0.448        0.165       75.147       19.068        0.064      338.760       11.631      861.156
06/01/2014  07:10:00      -66.644      -42.585       12.520       39.517       32.855       21.794     1561.555     1079.482      474.997        0.476        0.156       79.088       22.273        0.079      338.729       11.580      861.154
06/01/2014  07:11:00      -41.354      -33.221        7.098       32.092       23.144       19.080     1029.872      535.656      364.063        0.240        0.096       53.046       18.894        0.127      338.883       11.837      861.148
06/01/2014  07:12:00      -56.729      -20.906        7.809       43.521       21.411       16.498     1894.121      458.446      272.185        0.317        0.131       60.459       12.474        0.043      338.818       11.729      861.154
06/01/2014  07:13:00      -67.199      -42.085        0.073       36.743       28.408       18.989     1350.029      807.002      360.572        0.440        0.126       79.290       18.676        0.055      338.769       11.647      861.152
06/01/2014  07:14:00      -78.363      -52.990       -0.867       30.655       26.882       15.366      939.731      722.622      236.114        0.542        0.095       94.598       16.968        0.032      338.720       11.562      861.164
06/01/2014  07:15:00      -83.028      -65.087       -1.588       29.309       25.511       17.023      858.993      650.794      289.792        0.647        0.090      105.499       17.971        0.029      338.789       11.680      861.170
06/01/2014  07:16:00      -80.098      -58.077       -7.762       24.858       25.202       18.269      617.942      635.129      333.762        0.572        0.079       98.938       13.165        0.018      338.765       11.638      861.172
06/01/2014  07:17:00      -63.265      -46.405        1.491       22.713       26.905       19.335      515.892      723.894      373.835        0.389        0.081       78.459       15.932        0.041      338.830       11.748      861.171
06/01/2014  07:18:00      -43.108      -45.897        0.127       21.076       17.499       16.717      444.179      306.223      279.443        0.250        0.051       62.967       11.115        0.031      338.839       11.763      861.186
06/01/2014  07:19:00      -26.834      -14.475       -3.297       17.027       27.067       16.941      289.930      732.602      287.003        0.112        0.065       30.490       12.525        0.169      338.987       12.010      861.192
06/01/2014  07:20:00      -16.427        3.541       11.783       13.426       13.403       10.638      180.261      179.651      113.168        0.045        0.024       16.805        7.748        0.213      339.293       12.527      861.190
06/01/2014  07:21:00      -12.579        1.963       23.599       12.198       11.249       15.364      148.789      126.547      236.056        0.062        0.026       12.732        8.314        0.426      340.142       13.960      861.202
06/01/2014  07:22:00      -16.865        4.775       24.144       19.856       14.227       18.472      394.262      202.406      341.215        0.091        0.047       17.528       14.703        0.704      339.923       13.589      861.218
06/01/2014  07:23:00        3.224        8.802       31.224       12.857       10.991       10.412      165.296      120.806      108.411        0.073        0.020        9.374        4.719        0.253      339.904       13.557      861.227
06/01/2014  07:24:00       -8.323       16.215       25.953       14.869       14.723       12.101      221.079      216.781      146.424        0.079        0.029       18.226        9.426        0.267      339.572       12.998      861.243
06/01/2014  07:25:00      -20.098       -1.409       16.182       13.831       14.787       15.070      191.307      218.643      227.119        0.065        0.032       20.147       12.111        0.361      339.844       13.455      861.243
06/01/2014  07:26:00      -32.482      -13.868        6.155       21.664       21.830       18.901      469.347      476.546      357.262        0.129        0.065       35.318       16.026        0.206      339.546       12.955      861.246
06/01/2014  07:27:00       -9.752      -11.862       12.120       14.888       18.330       16.172      221.665      336.002      261.548        0.060        0.041       15.356       13.170        0.736      339.670       13.161      861.238
06/01/2014  07:28:00       -7.310        0.101       22.281       13.665        8.583       16.624      186.744       73.662      276.347        0.054        0.027        7.311        9.778        1.789      340.228       14.104      861.236
06/01/2014  07:29:00      -10.131        1.608       23.029       12.223       10.261       14.457      149.392      105.289      209.017        0.055        0.023       10.258        9.159        0.797      340.267       14.170      861.238
06/01/2014  07:30:00      -28.033      -30.249        6.233       26.328       23.257       18.987      693.157      540.895      360.510        0.167        0.080       41.241       17.854        0.187      339.406       12.718      861.252
06/01/2014  07:31:00      -29.424      -33.156       12.893       33.231       28.161       22.362     1104.306      793.015      500.051        0.226        0.120       44.329       26.177        0.349      339.670       13.163      861.252
06/01/2014  07:32:00      -13.105      -13.087       12.943       16.686       18.947       18.261      278.438      358.996      333.482        0.074        0.049       18.520       13.924        0.565      339.837       13.445      861.255
06/01/2014  07:33:00       -7.250       17.490       25.648       15.451       16.918       19.637      238.719      286.231      385.619        0.096        0.046       18.933       11.059        0.341      340.294       14.216      861.260
06/01/2014  07:34:00       -3.189        0.305       21.607       12.853        6.598       11.884      165.192       43.527      141.230        0.041        0.017        3.204        3.927        1.503      340.374       14.350      861.264
06/01/2014  07:35:00      -14.450       10.318        9.380       17.415       16.453       12.559      303.276      270.703      157.724        0.057        0.037       17.756        7.444        0.176      339.780       13.349      861.260
06/01/2014  07:36:00       -5.906       16.396       21.979       15.438       28.700       17.312      238.320      823.668      299.713        0.107        0.068       17.427       14.837        0.725      340.237       14.118      861.254
06/01/2014  07:37:00      -17.767        4.209       13.037       15.941       16.442       17.568      254.119      270.324      308.638        0.067        0.042       18.259        9.605        0.277      340.083       13.861      861.253
06/01/2014  07:38:00      -38.810       24.197       -3.220       12.478       25.109       18.169      155.692      630.485      330.106        0.161        0.056       45.735       11.433        0.062      339.602       13.049      861.250
06/01/2014  07:39:00      -24.035       27.059       -6.734       14.271       19.599       18.424      203.661      384.129      339.436        0.114        0.046       36.192       10.916        0.091      339.654       13.136      861.263
06/01/2014  07:40:00      -28.429       27.180       -4.444       20.153       19.445       20.451      406.144      378.093      418.245        0.138        0.060       39.332       10.631        0.073      339.682       13.183      861.265
06/01/2014  07:41:00      -28.971       28.545       -6.347       14.514       13.521       19.250      210.656      182.814      370.576        0.123        0.038       40.671       12.030        0.087      339.748       13.294      861.268
06/01/2014  07:42:00      -42.695       23.252      -12.067        8.905       13.004        8.706       79.295      169.101       75.786        0.142        0.016       48.616        4.366        0.008      339.473       12.831      861.269
06/01/2014  07:43:00      -21.908       24.736      -11.505       16.095       16.709       14.765      259.056      279.177      217.996        0.099        0.038       33.043       10.569        0.102      339.906       13.562      861.274
06/01/2014  07:44:00      -27.580       12.032       -5.203       14.706       17.821       12.274      216.272      317.605      150.648        0.081        0.034       30.090       10.998        0.134      339.651       13.130      861.284
06/01/2014  07:45:00      -31.940       15.448       15.655       19.764       19.542       15.929      390.619      381.880      253.729        0.126        0.051       35.480       14.262        0.162      340.250       14.143      861.285
06/01/2014  07:46:00      -72.472       36.575      -10.188       18.873       16.187       16.167      356.190      262.033      261.372        0.379        0.044       81.178       11.820        0.021      339.542       12.945      861.276
06/01/2014  07:47:00      -17.641        5.200        9.624       18.878       14.292       20.998      356.379      204.250      440.927        0.072        0.050       18.392       14.986        0.664      340.122       13.926      861.268
06/01/2014  07:48:00      -30.813        2.931       13.036       15.883       12.268       11.540      252.272      150.513      133.166        0.083        0.027       30.952        8.957        0.084      339.949       13.634      861.258
06/01/2014  07:49:00       -7.450       -1.535       36.110       11.272       13.487       11.061      127.051      181.898      122.337        0.090        0.022        7.606        6.523        0.736      341.056       15.505      861.260
06/01/2014  07:50:00       -8.339       -1.508       25.604       10.022       13.784       11.473      100.445      189.997      131.637        0.057        0.021        8.474        5.201        0.377      341.030       15.460      861.251
06/01/2014  07:51:00      -10.737       -4.632       21.755       18.918       12.114       20.451      357.897      146.739      418.263        0.077        0.046       11.694       16.538        2.000      340.643       14.807      861.242
06/01/2014  07:52:00       -2.542       21.191       38.228        9.848       23.498       15.071       96.988      552.163      227.137        0.140        0.044       21.343       10.539        0.244      340.673       14.856      861.245
06/01/2014  07:53:00        1.835       21.102       29.723       15.545       14.150       15.605      241.654      200.213      243.515        0.101        0.034       21.182        9.414        0.198      340.462       14.500      861.232
06/01/2014  07:54:00       -9.549        0.611       36.235       10.407       23.527       14.928      108.308      553.542      222.839        0.114        0.044        9.569       14.557        2.314      340.933       15.298      861.226
06/01/2014  07:55:00      -13.277       -6.654       20.575        8.979       11.005       15.435       80.616      121.112      238.243        0.054        0.022       14.851        8.712        0.344      340.588       14.713      861.236
06/01/2014  07:56:00       -3.103       10.580       40.602       11.649       20.314       13.238      135.703      412.654      175.240        0.125        0.036       11.026        6.699        0.369      341.402       16.090      861.230
06/01/2014  07:57:00        7.300       22.220       43.796       22.125       22.784       17.303      489.499      519.113      299.381        0.189        0.065       23.388        9.631        0.170      340.962       15.345      861.228
06/01/2014  07:58:00        0.504       32.031       51.061       16.361       22.946       16.785      267.678      526.517      281.727        0.235        0.054       32.035       12.577        0.154      340.373       14.349      861.225
06/01/2014  07:59:00       23.238       28.955       23.008       29.372       17.732       21.345      862.721      314.414      455.588        0.177        0.082       37.127        9.494        0.065      340.062       13.823      861.221
06/01/2014  08:00:00       29.691       18.415       17.697       38.707       26.466       19.916     1498.212      700.437      396.651        0.206        0.130       34.938       17.655        0.255      340.836       15.133      861.227
06/01/2014  08:01:00       94.124       45.722        4.396       31.241       22.791       22.353      976.022      519.412      499.652        0.648        0.100      104.641        4.271        0.002      340.033       13.775      861.227
06/01/2014  08:02:00       18.072       34.345       13.273       31.574       34.571       30.470      996.920     1195.170      928.441        0.240        0.156       38.810       21.228        0.299      340.405       14.403      861.223
06/01/2014  08:03:00       24.902       35.089       12.985       29.294       30.297       25.752      858.135      917.937      663.166        0.223        0.122       43.027       16.553        0.148      340.623       14.772      861.219
06/01/2014  08:04:00       -1.947       82.762        6.892       18.476       39.701       26.968      341.378     1576.187      727.260        0.477        0.132       82.785       26.779        0.105      340.767       15.015      861.220
06/01/2014  08:05:00       26.421       14.658       21.656       42.979       32.017       27.099     1847.169     1025.114      734.369        0.249        0.180       30.214       15.470        0.262      340.829       15.121      861.217
06/01/2014  08:06:00       17.804       39.250       46.696       37.910       26.760       19.758     1437.198      716.117      390.365        0.329        0.127       43.099       14.167        0.108      340.702       14.905      861.212
06/01/2014  08:07:00       60.211       64.781       39.919       23.053       21.749       27.049      531.427      473.002      731.633        0.558        0.087       88.442       15.552        0.031      340.008       13.733      861.217
06/01/2014  08:08:00       43.396        5.570       -3.888       27.804       41.761       24.897      773.083     1744.017      619.885        0.253        0.157       43.752       24.692        0.319      340.059       13.818      861.218
06/01/2014  08:09:00       17.786        1.594       13.547       32.925       20.296       24.793     1084.045      411.932      614.699        0.131        0.106       17.857       15.778        0.781      340.420       14.428      861.221
06/01/2014  08:10:00       18.177       21.800       38.280       42.513       25.827       19.146     1807.336      667.044      366.572        0.256        0.142       28.384       18.207        0.411      340.543       14.639      861.226
06/01/2014  08:11:00        2.091       -4.426       39.448       27.801       46.478       25.068      772.917     2160.188      628.391        0.257        0.178        4.895       20.773       18.008      340.872       15.194      861.236
06/01/2014  08:12:00       26.213        9.327       27.384       35.132       31.688       34.318     1234.253     1004.108     1177.758        0.247        0.171       27.823       27.372        0.968      340.951       15.327      861.238
06/01/2014  08:13:00       -4.478      -28.714       35.102       15.902       36.049       24.037      252.876     1299.547      577.801        0.210        0.107       29.061       14.888        0.262      341.308       15.931      861.245
06/01/2014  08:14:00       17.956       12.123       32.392       33.968       26.160       27.824     1153.840      684.371      774.165        0.206        0.131       21.666       16.967        0.613      340.941       15.310      861.250
06/01/2014  08:15:00      -11.374       -4.158       32.677       13.346       18.002       13.513      178.106      324.059      182.603        0.095        0.034       12.111       10.711        0.782      341.446       16.164      861.253
06/01/2014  08:16:00        5.122      -19.784       37.465       31.739       39.172       21.355     1007.359     1534.410      456.048        0.241        0.150       20.436       17.034        0.695      341.122       15.616      861.258
06/01/2014  08:17:00       15.188        5.056       28.835       24.338       34.957       27.121      592.328     1222.005      735.561        0.182        0.127       16.007       25.793        2.596      341.096       15.572      861.267
06/01/2014  08:18:00       18.304       17.728        0.515       20.752       21.478       27.133      430.643      461.295      736.182        0.114        0.081       25.482        9.314        0.134      340.488       14.543      861.268
06/01/2014  08:19:00       49.249       46.463        8.097       20.349       22.164       23.683      414.064      491.257      560.872        0.306        0.073       67.707       16.778        0.061      340.221       14.092      861.267
06/01/2014  08:20:00       27.776       18.588       20.964       19.171       17.234       18.062      367.539      297.017      326.225        0.127        0.050       33.422        7.772        0.054      340.592       14.720      861.275
06/01/2014  08:21:00       50.018       -5.316       26.876       40.390       40.631       28.256     1631.345     1650.843      798.416        0.367        0.204       50.300       27.612        0.301      340.792       15.057      861.275
06/01/2014  08:22:00       23.783       17.501       24.204       28.229       27.195       25.223      796.869      739.551      636.197        0.181        0.109       29.528       15.367        0.271      340.696       14.895      861.289
06/01/2014  08:23:00       33.690        3.830       13.598       46.665       23.077       28.559     2177.602      532.565      815.618        0.243        0.176       33.907       29.532        0.759      340.891       15.224      861.285
06/01/2014  08:24:00       39.756        3.261       33.224       33.952       39.437       32.687     1152.754     1555.302     1068.470        0.324        0.189       39.890       27.582        0.478      341.125       15.623      861.283
06/01/2014  08:25:00       44.101       58.858       47.349       27.367       27.192       23.677      748.958      739.408      560.601        0.485        0.102       73.547       18.986        0.067      340.349       14.309      861.274
06/01/2014  08:26:00       30.240       27.382       42.978       28.857       26.253       22.886      832.748      689.207      523.757        0.278        0.102       40.795       18.189        0.199      340.534       14.621      861.267
06/01/2014  08:27:00       67.793       -7.031       11.836       26.059       35.446       26.374      679.084     1256.449      695.608        0.371        0.132       68.157       23.057        0.114      340.593       14.721      861.252
06/01/2014  08:28:00       35.833       20.067       27.237       33.631       23.213       25.620     1131.042      538.865      656.383        0.238        0.116       41.069       15.275        0.138      340.870       15.190      861.252
06/01/2014  08:29:00       35.448       26.268       18.535       25.374       19.381       28.058      643.831      375.629      787.231        0.205        0.090       44.119       18.753        0.181      340.572       14.686      861.244
06/01/2014  08:30:00       34.022       17.898        1.971       23.596       21.803       30.439      556.773      475.361      926.510        0.172        0.098       38.443       17.491        0.207      340.869       15.189      861.236
06/01/2014  08:31:00       -3.369        2.695       26.741       21.182       17.357       15.379      448.691      301.278      236.504        0.086        0.049        4.314       11.245        6.794      341.745       16.672      861.236
06/01/2014  08:32:00      -40.336      -20.274       12.714       29.894       28.298       20.678      893.656      800.764      427.565        0.216        0.106       45.144       21.851        0.234      341.322       15.956      861.230
06/01/2014  08:33:00      -22.220       -2.335       31.931       21.512       31.089       15.969      462.776      966.513      255.002        0.160        0.084       22.343       17.131        0.588      341.485       16.232      861.230
06/01/2014  08:34:00       -0.055       10.382       11.054       21.680       16.578       20.823      470.017      274.824      433.607        0.070        0.059       10.382       12.539        1.459      341.258       15.848      861.224
06/01/2014  08:35:00       11.403      -13.617       16.193       24.693       19.225       23.273      609.736      369.588      541.617        0.105        0.076       17.761        9.885        0.310      341.209       15.763      861.210
06/01/2014  08:36:00        9.689       27.546       25.110       15.180       24.198       25.674      230.447      585.521      659.133        0.148        0.074       29.200       16.942        0.337      341.300       15.918      861.210
06/01/2014  08:37:00        0.822       25.452       38.594       20.054       15.934       22.942      402.177      253.905      526.323        0.166        0.059       25.465       17.962        0.497      341.595       16.417      861.210
06/01/2014  08:38:00        9.359       13.514       12.213       20.252       15.713       22.495      410.133      246.907      506.027        0.079        0.058       16.438        9.702        0.348      341.255       15.843      861.214
06/01/2014  08:39:00       25.003       10.406       13.354       14.787       17.876       20.925      218.665      319.543      437.876        0.094        0.049       27.082       12.034        0.197      341.405       16.096      861.215
06/01/2014  08:40:00       -3.628       11.502       19.338       19.371       23.370       21.494      375.238      546.171      462.005        0.095        0.069       12.060       12.741        1.116      341.946       17.014      861.210
06/01/2014  08:41:00       20.721       27.561       18.916       35.403       24.954       24.359     1253.338      622.713      593.363        0.201        0.123       34.481       20.285        0.346      341.806       16.774      861.204
06/01/2014  08:42:00        0.284        3.708       25.946       16.856       16.828       15.390      284.141      283.189      236.860        0.075        0.040        3.718        7.899        4.513      342.734       18.353      861.203
06/01/2014  08:43:00       -7.931        9.885       50.383       16.942       21.814       16.032      287.043      475.853      257.014        0.186        0.051       12.673       13.348        1.109      343.087       18.952      861.201
06/01/2014  08:44:00       11.394        8.842       48.950       23.499       35.936       17.953      552.188     1291.401      322.324        0.238        0.108       14.422       17.321        1.442      342.054       17.196      861.196
06/01/2014  08:45:00       19.154       31.235       48.176       24.218       35.606       14.579      586.534     1267.805      212.550        0.286        0.103       36.640        5.264        0.021      342.135       17.333      861.205
06/01/2014  08:46:00       41.753       -2.679       33.899       32.215       24.898       32.402     1037.836      619.899     1049.867        0.280        0.135       41.839       10.082        0.058      341.700       16.597      861.196
06/01/2014  08:47:00       42.768       32.424       27.706       30.910       25.185       21.591      955.453      634.273      466.184        0.285        0.103       53.670       13.831        0.066      341.479       16.221      861.189
06/01/2014  08:48:00       71.062       42.242       23.626       52.413       37.414       32.057     2747.118     1399.804     1027.625        0.628        0.259       82.669       25.542        0.095      341.537       16.320      861.188
06/01/2014  08:49:00       68.644       56.055        6.195       29.109       31.321       23.750      847.316      980.980      564.079        0.514        0.120       88.624       20.538        0.054      341.462       16.192      861.175
06/01/2014  08:50:00       85.420       45.692        6.389       36.061       33.183       29.566     1300.404     1101.118      874.136        0.635        0.164       96.873       20.321        0.044      341.605       16.433      861.174
06/01/2014  08:51:00       57.811       72.055       51.049       58.425       46.897       49.759     3413.515     2199.334     2476.006        0.961        0.404       92.379       28.322        0.094      341.819       16.796      861.158
06/01/2014  08:52:00      133.206       91.500       39.155       41.209       30.143       46.049     1698.223      908.583     2120.525        1.619        0.236      161.605       29.546        0.033      341.392       16.071      861.158
06/01/2014  08:53:00      118.892       70.431        8.621       54.044       45.398       31.260     2920.703     2060.936      977.205        1.256        0.298      138.188       13.324        0.009      341.494       16.246      861.144
06/01/2014  08:54:00       99.784       62.126       -0.429       33.249       30.395       26.315     1105.503      923.856      692.466        0.827        0.136      117.543       23.175        0.039      341.612       16.445      861.136
06/01/2014  08:55:00      130.498       82.179        8.717       29.308       31.822       30.592      858.981     1012.657      935.900        1.333        0.140      154.218       21.170        0.019      341.491       16.240      861.124
06/01/2014  08:56:00      130.251       86.863        2.846       33.428       30.718       24.211     1117.434      943.603      586.196        1.358        0.132      156.558       14.918        0.009      341.398       16.083      861.125
06/01/2014  08:57:00      101.228       56.123       -1.024       38.061       42.949       33.869     1448.667     1844.644     1147.088        0.892        0.222      115.745       17.144        0.022      341.482       16.225      861.122
06/01/2014  08:58:00       48.680       39.995        4.818       30.930       32.622       36.958      956.672     1064.193     1365.898        0.369        0.169       63.003       27.592        0.192      341.756       16.690      861.109
06/01/2014  08:59:00       27.220       -8.056       21.950       30.414       24.873       28.580      924.998      618.658      816.790        0.182        0.118       28.387       22.955        0.654      341.827       16.810      861.113
06/01/2014  09:00:00        8.468        2.987       35.203       14.385       32.796       11.527      206.914     1075.600      132.877        0.137        0.071        8.979        8.348        0.864      342.072       17.226      861.100
06/01/2014  09:01:00      -17.129       18.355       -5.513       27.989       23.392       20.694      783.360      547.168      428.231        0.121        0.088       25.106       11.856        0.223      341.823       16.803      861.088
06/01/2014  09:02:00      -16.615       -0.841       27.300       20.571       34.865       25.122      423.178     1215.571      631.128        0.165        0.113       16.636       20.688        1.546      341.841       16.835      861.087
06/01/2014  09:03:00       26.702       12.495       19.670       25.560       25.003       17.306      653.290      625.157      299.511        0.142        0.079       29.481       10.801        0.134      341.714       16.620      861.078
06/01/2014  09:04:00       18.653      -16.112       16.831       29.866       27.594       32.463      891.976      761.432     1053.829        0.180        0.135       24.649       22.224        0.813      341.574       16.383      861.073
06/01/2014  09:05:00       69.460       54.031       29.687       42.418       32.698       42.857     1799.307     1069.189     1836.707        0.666        0.235       88.000       31.679        0.130      341.540       16.323      861.078
06/01/2014  09:06:00       79.106       60.358        0.765       46.209       41.883       29.107     2135.257     1754.217      847.225        0.732        0.237       99.503       12.739        0.016      341.475       16.214      861.067
06/01/2014  09:07:00       41.705        8.821       33.031       32.796       29.620       27.596     1075.557      877.352      761.529        0.281        0.136       42.628       22.527        0.279      341.916       16.963      861.064
06/01/2014  09:08:00       -6.843      -19.751       -8.418       27.600       38.317       22.738      761.767     1468.204      517.037        0.163        0.137       20.903       16.955        0.658      341.534       16.314      861.056
06/01/2014  09:09:00       -8.749      -30.323       17.520       30.336       31.251       22.792      920.292      976.607      519.474        0.186        0.121       31.560        7.895        0.063      341.973       17.057      861.060
06/01/2014  09:10:00       26.098      -30.766       13.026       22.727       34.779       24.800      516.504     1209.552      615.047        0.207        0.117       40.344       11.734        0.085      341.985       17.079      861.059
06/01/2014  09:11:00       13.515       -3.581       34.205       18.192       34.795       17.415      330.956     1210.723      303.267        0.160        0.092       13.981       19.135        1.873      342.424       17.826      861.051
06/01/2014  09:12:00       23.922       -5.210       11.963       29.273       45.945       33.022      856.892     2110.979     1090.477        0.240        0.203       24.483       27.560        1.267      341.943       17.008      861.040
06/01/2014  09:13:00       28.213      -33.843       17.294       34.973       38.710       30.521     1223.146     1498.442      931.520        0.295        0.183       44.061       22.329        0.257      341.999       17.103      861.023
06/01/2014  09:14:00       39.655       17.565       45.132       37.160       23.693       27.168     1380.856      561.357      738.121        0.330        0.134       43.371       21.941        0.256      342.150       17.359      861.018
06/01/2014  09:15:00       28.482       12.659       21.781       36.990       24.178       29.168     1368.237      584.591      850.790        0.212        0.140       31.168       22.206        0.508      342.474       17.910      861.006
06/01/2014  09:16:00       30.802       35.533       31.707       39.919       25.409       28.581     1593.516      645.630      816.896        0.314        0.153       47.025       16.327        0.121      342.033       17.159      860.998
06/01/2014  09:17:00       47.073       29.918       36.172       35.872       33.781       39.260     1286.829     1141.149     1541.313        0.419        0.198       55.776       27.365        0.241      342.201       17.446      860.990
06/01/2014  09:18:00       26.720       34.041       45.150       28.686       49.170       26.694      822.907     2417.673      712.561        0.393        0.198       43.275       21.019        0.236      342.480       17.920      860.972
06/01/2014  09:19:00       49.131      -67.537        4.855       47.142       47.444       37.441     2222.402     2250.899     1401.811        0.644        0.294       83.517       37.845        0.205      341.673       16.550      860.967
06/01/2014  09:20:00       57.423      -25.327       42.855       31.650       36.383       27.270     1001.744     1323.706      743.651        0.442        0.153       62.761       26.793        0.182      342.170       17.392      860.953
06/01/2014  09:21:00       43.022       25.344       39.460       41.921       33.673       28.808     1757.344     1133.866      829.904        0.388        0.186       49.932       28.044        0.315      342.025       17.146      860.939
06/01/2014  09:22:00      118.682      112.298        5.417       48.315       39.925       36.281     2334.383     1594.044     1316.309        1.598        0.262      163.390       24.500        0.022      342.120       17.304      860.928
06/01/2014  09:23:00       92.042       81.173       18.708       50.052       40.203       35.790     2505.237     1616.255     1280.943        1.041        0.270      122.723       26.192        0.046      342.363       17.720      860.925
06/01/2014  09:24:00       35.502       45.944       34.203       47.865       33.089       41.815     2291.088     1094.887     1748.502        0.484        0.257       58.063       28.926        0.248      342.456       17.879      860.915
06/01/2014  09:25:00       36.559       54.823       19.651       33.442       30.208       31.007     1118.400      912.515      961.412        0.386        0.150       65.895       24.028        0.133      342.592       18.110      860.911
06/01/2014  09:26:00        9.884      -19.304        8.202       26.978       32.041       23.123      727.812     1026.638      534.695        0.141        0.114       21.688       18.564        0.733      342.243       17.518      860.895
06/01/2014  09:27:00       23.329      -41.846       11.723       59.843       36.229       39.497     3581.180     1312.512     1560.022        0.444        0.323       47.910       14.384        0.090      341.968       17.049      860.876
06/01/2014  09:28:00       58.619       -5.572       22.078       42.119       36.654       32.934     1774.001     1343.519     1084.637        0.408        0.210       58.883       27.792        0.223      342.259       17.544      860.876
06/01/2014  09:29:00       64.469       -8.270       25.510       50.741       52.866       35.778     2574.601     2794.819     1280.062        0.576        0.332       64.997       30.215        0.216      342.100       17.274      860.866
06/01/2014  09:30:00      -12.496        7.969        5.785       33.438       28.153       24.125     1118.084      792.594      581.999        0.137        0.125       14.821       10.705        0.522      342.341       17.684      860.859
06/01/2014  09:31:00        9.258       26.452        2.177       51.188       17.259       30.074     2620.193      297.857      904.456        0.231        0.191       28.025       16.072        0.329      342.422       17.821      860.836
06/01/2014  09:32:00       12.565      -34.935       24.614       29.961       41.204       24.235      897.632     1697.801      587.335        0.258        0.159       37.126       15.697        0.179      342.647       18.204      860.823
06/01/2014  09:33:00       31.649      -10.886       22.362       50.139       37.899       28.131     2513.965     1436.317      791.335        0.318        0.237       33.469       15.778        0.222      342.680       18.259      860.813
06/01/2014  09:34:00      100.813      107.382       11.043       35.853       41.463       34.641     1285.427     1719.197     1200.011        1.301        0.210      147.289       25.319        0.030      342.354       17.705      860.797
06/01/2014  09:35:00       46.640       58.576        4.034       41.330       35.395       32.339     1708.195     1252.799     1045.830        0.481        0.200       74.877       18.394        0.060      342.810       18.481      860.786
06/01/2014  09:36:00       54.756       62.280       13.906       43.183       42.933       42.021     1864.773     1843.260     1765.729        0.627        0.274       82.928       28.709        0.120      342.859       18.562      860.771
06/01/2014  09:37:00       33.172       77.746        7.288       37.473       32.510       36.002     1404.207     1056.874     1296.116        0.548        0.188       84.527       27.892        0.109      342.441       17.854      860.751
06/01/2014  09:38:00       51.724       44.019       31.091       38.450       25.792       23.533     1478.411      665.230      553.802        0.414        0.135       67.920       17.692        0.068      342.949       18.718      860.729
06/01/2014  09:39:00      133.836       83.341       19.198       48.322       36.728       41.037     2334.977     1348.938     1684.001        1.530        0.268      157.663       19.950        0.016      342.781       18.430      860.724
06/01/2014  09:40:00      174.540      104.325       18.867       40.401       41.689       36.398     1632.252     1737.940     1324.826        2.320        0.235      203.342       12.560        0.004      342.710       18.309      860.704
06/01/2014  09:41:00       90.612       46.005        3.391       84.300       47.484       29.021     7106.441     2254.698      842.246        1.027        0.510      101.622       21.555        0.045      342.855       18.555      860.713
06/01/2014  09:42:00       47.065      -29.366        1.416       40.796       49.759       32.056     1664.280     2475.930     1027.580        0.412        0.258       55.475       18.715        0.114      342.370       17.732      860.707
06/01/2014  09:43:00       41.955      -10.996       16.205       35.339       56.379       31.491     1248.817     3178.622      991.684        0.378        0.271       43.372       33.235        0.587      342.472       17.906      860.695
06/01/2014  09:44:00       28.803       42.538       16.695       34.089       53.502       47.681     1162.052     2862.450     2273.477        0.461        0.315       51.372       37.294        0.527      342.768       18.409      860.697
06/01/2014  09:45:00       12.652       -8.476       18.386       35.267       33.566       27.114     1243.761     1126.651      735.165        0.184        0.155       15.229        8.228        0.292      342.805       18.471      860.684
06/01/2014  09:46:00       33.280        1.134       34.132       41.051       42.189       32.356     1685.210     1779.938     1046.933        0.339        0.226       33.299       14.986        0.203      343.103       18.979      860.680
06/01/2014  09:47:00      114.943       16.448       71.116      107.537       84.791       71.289    11564.102     7189.440     5082.089        2.118        1.192      116.114       70.659        0.370      343.007       18.815      860.670
06/01/2014  09:48:00       65.576       24.794       52.434       59.387       59.976       43.467     3526.770     3597.131     1889.341        0.834        0.451       70.106       37.020        0.279      343.098       18.971      860.662
06/01/2014  09:49:00      163.360      101.530       37.968       79.392       51.755       50.868     6303.076     2678.603     2587.565        2.500        0.578      192.341       35.333        0.034      342.833       18.516      860.656
06/01/2014  09:50:00       69.491       71.005       48.819       59.994       49.177       41.620     3599.295     2418.399     1732.221        1.000        0.387       99.352       37.529        0.143      342.778       18.427      860.656
06/01/2014  09:51:00       46.760      -15.414        0.201       31.593       41.242       25.750      998.100     1700.932      663.073        0.289        0.168       49.235       16.839        0.117      342.932       18.689      860.644
06/01/2014  09:52:00       25.665       27.215       36.002       53.933       65.399       46.709     2908.730     4277.070     2181.763        0.603        0.468       37.408       42.226        1.274      343.047       18.884      860.620
06/01/2014  09:53:00       52.289      -50.714       30.192       71.190       64.120       44.496     5068.005     4111.342     1979.894        0.869        0.558       72.843       46.097        0.400      343.247       19.224      860.618
06/01/2014  09:54:00       64.507       98.621       76.644       59.316       59.558       68.709     3518.338     3547.113     4720.930        1.577        0.589      117.844       55.434        0.221      342.921       18.668      860.627
06/01/2014  09:55:00       41.356      -64.730        2.927       44.330       80.744       29.997     1965.146     6519.656      899.822        0.764        0.469       76.813       29.774        0.150      342.974       18.760      860.636
06/01/2014  09:56:00       94.148     -116.275       -0.241       29.770       55.553       22.161      886.243     3086.097      491.123        1.342        0.223      149.612       20.239        0.018      343.143       19.048      860.642
06/01/2014  09:57:00       31.697      -58.060       42.203       60.566       96.425       57.147     3668.197     9297.777     3265.789        1.119        0.812       66.149       64.335        0.946      343.968       20.453      860.637
06/01/2014  09:58:00       32.263       -7.731       61.611       58.054       94.240       48.130     3370.220     8881.104     2316.452        0.973        0.728       33.176       55.744        2.823      343.779       20.132      860.642
06/01/2014  09:59:00       61.915       52.406       51.562       60.120       42.338       38.143     3614.431     1792.470     1454.900        0.805        0.343       81.117       30.714        0.143      343.238       19.208      860.643
06/01/2014  10:00:00      148.917       54.632       17.592       60.155       54.999       49.427     3618.571     3024.901     2443.073        1.728        0.454      158.622       35.960        0.051      343.146       19.051      860.641
06/01/2014  10:01:00       52.860       46.146       59.025       55.041       39.171       37.998     3029.516     1534.389     1443.859        0.721        0.300       70.168       25.254        0.130      343.754       20.088      860.636
06/01/2014  10:02:00       62.774       42.408       41.319       80.607       59.604       45.088     6497.505     3552.635     2032.899        0.976        0.604       75.756       38.428        0.257      343.752       20.086      860.644
06/01/2014  10:03:00       17.090       28.067       40.113       46.278       58.859       43.339     2141.645     3464.373     1878.241        0.509        0.374       32.861       35.822        1.188      343.849       20.251      860.641
06/01/2014  10:04:00       49.873        2.168       19.694       31.474       46.783       36.509      990.596     2188.636     1332.930        0.370        0.226       49.920       24.411        0.239      343.391       19.468      860.643
06/01/2014  10:05:00      129.965       85.402       43.519       86.950       64.103       54.620     7560.241     4109.167     2983.316        2.036        0.733      155.513       13.700        0.008      343.678       19.959      860.630
06/01/2014  10:06:00       92.930       74.211       78.241      126.529       68.386       57.979    16009.704     4676.651     3361.583        2.215        1.202      118.926       64.468        0.294      343.726       20.039      860.621
06/01/2014  10:07:00       97.070       83.294       29.125       89.096       81.240       62.490     7938.155     6599.917     3904.941        1.782        0.922      127.908       47.867        0.140      344.022       20.546      860.621
06/01/2014  10:08:00      157.771      103.280       32.756       67.046       54.918       49.349     4495.182     3015.991     2435.348        2.329        0.497      188.569       28.699        0.023      343.669       19.941      860.622
06/01/2014  10:09:00      178.198      132.659       32.561      104.508       55.675       58.706    10921.952     3099.652     3446.376        3.394        0.873      222.156       32.399        0.021      343.640       19.891      860.611
06/01/2014  10:10:00      228.093      153.135       16.257       53.450       49.476       60.492     2856.859     2447.879     3659.289        4.235        0.448      274.730       31.490        0.013      343.355       19.402      860.611
06/01/2014  10:11:00       45.886       49.613       29.124       55.634       48.532       36.229     3095.147     2355.380     1312.520        0.609        0.338       67.580       19.424        0.083      344.016       20.535      860.612
06/01/2014  10:12:00      171.129      106.814       37.572      116.042       55.795       70.541    13465.856     3113.071     4975.967        3.183        1.078      201.728       44.351        0.048      343.758       20.093      860.604
06/01/2014  10:13:00      102.542       -3.958       20.595       81.920      100.996       55.401     6710.849    10200.284     3069.250        1.546        0.999      102.619       57.878        0.318      343.514       19.678      860.610
06/01/2014  10:14:00       87.419     -102.993        8.791       60.425       49.386       40.157     3651.238     2439.017     1612.598        1.301        0.385      135.091       40.857        0.091      343.514       19.678      860.586
06/01/2014  10:15:00       57.850       66.244       43.700       84.216       46.475       39.955     7092.255     2159.901     1596.382        1.024        0.542       87.948       38.422        0.191      343.754       20.088      860.587
06/01/2014  10:16:00      115.666       87.967        6.194       69.251       64.421       44.734     4795.762     4150.123     2001.122        1.605        0.547      145.317       31.876        0.048      343.924       20.375      860.591
06/01/2014  10:17:00       57.037       59.171      -20.357       44.523       51.922       26.252     1982.335     2695.934      689.151        0.627        0.268       82.185       15.708        0.037      343.528       19.702      860.592
06/01/2014  10:18:00      -62.873       16.492      -21.413       27.228       27.646       24.903      741.338      764.295      620.182        0.340        0.106       65.000       18.144        0.078      343.508       19.668      860.575
06/01/2014  10:19:00      -55.400        7.824      -18.700       33.088       27.874       21.867     1094.791      776.967      478.166        0.291        0.117       55.949       17.309        0.096      343.555       19.751      860.582
06/01/2014  10:20:00      -47.420       -7.554       -2.105       22.540       18.050       16.945      508.045      325.804      287.142        0.172        0.056       48.018       12.802        0.071      343.527       19.702      860.565
06/01/2014  10:21:00      -39.018      -15.577       -3.194       13.567       13.745       17.226      184.062      188.938      296.724        0.122        0.033       42.013       12.046        0.082      343.655       19.918      860.558
06/01/2014  10:22:00       21.384      -45.297        1.493       46.402       40.089       35.590     2153.185     1607.142     1266.634        0.377        0.251       50.091       29.325        0.343      344.064       20.617      860.551
06/01/2014  10:23:00      -81.672      -45.762       -3.039       82.169       56.041       31.028     6751.788     3140.623      962.746        0.981        0.543       93.618       21.092        0.051      344.115       20.706      860.519
06/01/2014  10:24:00      -10.191       -5.747       19.602       44.619       41.064       23.843     1990.879     1686.248      568.494        0.238        0.212       11.699       20.241        2.993      344.420       21.226      860.518
06/01/2014  10:25:00       54.981        9.109       21.926       37.291       31.219       33.677     1390.602      974.617     1134.124        0.354        0.175       55.730       26.683        0.229      344.197       20.845      860.522
06/01/2014  10:26:00       67.981      -43.723        4.395       51.304       56.632       34.280     2632.066     3207.153     1175.091        0.678        0.351       80.828       42.607        0.278      344.055       20.604      860.525
06/01/2014  10:27:00       77.858       32.785       10.985       35.961       37.874       34.598     1293.219     1434.416     1197.054        0.559        0.196       84.479       23.838        0.080      343.691       19.982      860.516
06/01/2014  10:28:00      113.838       15.642       24.180      100.585       63.659       54.474    10117.330     4052.453     2967.440        1.546        0.857      114.908       49.010        0.182      344.441       21.262      860.504
06/01/2014  10:29:00       93.072       72.396       29.657       81.635       44.730       39.281     6664.206     2000.764     1542.974        1.249        0.510      117.913       30.464        0.067      344.431       21.245      860.503
06/01/2014  10:30:00       46.788       41.206       23.988       66.980       56.849       38.952     4486.312     3231.798     1517.230        0.685        0.462       62.346       29.782        0.228      344.649       21.618      860.488
06/01/2014  10:31:00      164.425      128.143        0.934       84.458       62.092       58.571     7133.161     3855.399     3430.605        2.894        0.721      208.462       41.142        0.039      344.025       20.548      860.491
06/01/2014  10:32:00      117.205       66.408       21.551       65.492       48.576       52.647     4289.214     2359.666     2771.719        1.401        0.471      134.711       27.419        0.041      344.165       20.789      860.476
06/01/2014  10:33:00      128.268       91.552       50.934       87.189       45.691       63.280     7601.887     2087.710     4004.326        2.056        0.685      157.590       52.784        0.112      344.152       20.767      860.485
06/01/2014  10:34:00       78.916       73.910       64.693       89.964       62.000       52.227     8093.463     3844.054     2727.625        1.527        0.733      108.122       42.785        0.157      343.900       20.337      860.488
06/01/2014  10:35:00       84.485       95.723      118.769      111.765       68.210       67.220    12491.380     4652.590     4518.513        2.603        1.083      127.674       55.351        0.188      344.161       20.782      860.486
06/01/2014  10:36:00      138.758      188.130      156.268      115.264       81.847       93.599    13285.797     6698.985     8760.692        5.390        1.437      233.767       80.315        0.118      343.606       19.831      860.472
06/01/2014  10:37:00       50.952       30.160       73.977       68.863       74.552       50.886     4742.054     5558.014     2589.401        1.093        0.644       59.209       56.582        0.913      343.959       20.437      860.472
06/01/2014  10:38:00      118.925      -44.475       18.504       48.807       53.627       37.011     2382.103     2875.888     1369.847        1.154        0.331      126.970        9.611        0.006      343.593       19.815      860.462
06/01/2014  10:39:00       51.556      -53.503        4.120       92.389       85.477       36.769     8535.789     7306.401     1351.992        1.136        0.860       74.301       47.831        0.414      344.212       20.871      860.461
06/01/2014  10:40:00      181.543      -44.353       64.510       99.447      223.451       95.186     9889.747    49930.452     9060.341        5.397        3.444      186.882      120.806        0.418      344.272       20.971      860.410
06/01/2014  10:41:00       93.346       82.098       66.417       86.534       72.618       46.602     7488.115     5273.312     2171.755        1.740        0.747      124.312       44.053        0.126      344.235       20.908      860.434
06/01/2014  10:42:00      122.234      100.087       62.052       85.504       57.884       58.715     7310.905     3350.516     3447.434        2.146        0.705      157.983       33.523        0.045      344.045       20.584      860.420
06/01/2014  10:43:00      149.139       72.217       68.874      112.243       81.232       65.409    12598.457     6598.697     4278.280        2.783        1.174      165.704       30.192        0.033      344.306       21.030      860.396
06/01/2014  10:44:00      125.173       17.619       73.033      110.275       77.734       64.006    12160.585     6042.530     4096.827        2.180        1.115      126.407       50.567        0.160      344.140       20.746      860.384
06/01/2014  10:45:00       53.789       -4.985       40.851       96.771       60.545       50.506     9364.587     3665.728     2550.885        1.008        0.779       54.020       42.534        0.620      344.573       21.487      860.360
06/01/2014  10:46:00       99.997        0.160       54.571       97.477       96.032       77.537     9501.782     9222.217     6012.033        1.885        1.237       99.997       69.176        0.479      344.297       21.016      860.375
06/01/2014  10:47:00      120.520      -69.735        4.646       79.339       81.472       51.736     6294.620     6637.635     2676.634        1.751        0.780      139.241       29.710        0.046      344.055       20.603      860.378
06/01/2014  10:48:00      -72.448        1.875       -6.196       34.705       28.274       27.962     1204.445      799.399      781.880        0.404        0.139       72.472       10.823        0.022      344.265       20.962      860.354
06/01/2014  10:49:00     -135.064       34.232        3.596       42.088       29.540       24.625     1771.428      872.640      606.403        1.134        0.163      139.334       19.223        0.019      344.091       20.664      860.339
06/01/2014  10:50:00      -94.668      -36.672        2.575       56.881       53.827       30.145     3235.418     2897.384      908.723        0.868        0.352      101.523       23.286        0.053      344.271       20.970      860.312
06/01/2014  10:51:00      -17.299      -45.093       12.338       40.248       40.946       29.624     1619.878     1676.587      877.576        0.333        0.209       48.297       24.743        0.262      344.588       21.515      860.303
06/01/2014  10:52:00       32.421        8.810       40.263       79.386       61.482       39.865     6302.159     3780.036     1589.228        0.721        0.584       33.597       38.521        1.315      344.546       21.440      860.300
06/01/2014  10:53:00       25.483        0.473       26.842       33.963       31.774       31.634     1153.470     1009.592     1000.682        0.227        0.158       25.487       19.604        0.592      344.593       21.523      860.278
06/01/2014  10:54:00       52.219      -10.159       33.150       59.527       53.028       37.411     3543.468     2812.016     1399.578        0.584        0.388       53.198       35.773        0.452      344.666       21.649      860.266
06/01/2014  10:55:00       65.070       -3.212       14.946       45.433       31.424       38.553     2064.200      987.467     1486.357        0.450        0.227       65.149       28.028        0.185      344.578       21.497      860.276
06/01/2014  10:56:00       57.264      -64.214       32.771       69.184       95.317       49.794     4786.365     9085.326     2479.476        1.241        0.818       86.038       61.880        0.517      345.057       22.315      860.286
06/01/2014  10:57:00       72.199      -67.237       20.441       78.770       92.724       53.927     6204.714     8597.783     2908.126        1.393        0.886       98.659       59.204        0.360      344.818       21.906      860.283
06/01/2014  10:58:00       94.299      -45.294       27.998       95.695      117.851       56.316     9157.473    13888.765     3171.478        1.897        1.311      104.613       45.776        0.191      344.917       22.075      860.266
06/01/2014  10:59:00      226.764       97.164       52.273      132.412       82.770       75.593    17532.924     6850.841     5714.312        4.684        1.505      246.704       64.323        0.068      344.715       21.728      860.271
06/01/2014  11:00:00      167.555       93.619       21.258       79.130       68.313       59.031     6261.479     4666.669     3484.706        2.585        0.721      191.935       40.014        0.043      344.732       21.757      860.268
06/01/2014  11:01:00      183.229       58.026       27.583      111.132       73.190       63.856    12350.319     5356.749     4077.612        2.974        1.089      192.197       36.155        0.035      344.808       21.887      860.271
06/01/2014  11:02:00      163.195      134.442       42.550       79.322       89.577       70.701     6291.926     8024.025     4998.660        3.291        0.966      211.441       41.975        0.039      344.534       21.418      860.270
06/01/2014  11:03:00       58.431      -28.717       50.394       54.823      121.642       51.140     3005.580    14796.679     2615.263        1.359        1.021       65.107       59.884        0.846      344.846       21.954      860.236
06/01/2014  11:04:00       92.464       59.591       41.653       61.811       72.041       56.660     3820.539     5189.936     3210.317        1.303        0.611      110.003       44.073        0.161      344.539       21.428      860.228
06/01/2014  11:05:00       61.251     -114.397      -15.859       52.445       57.618       24.105     2750.440     3319.825      581.038        1.187        0.333      129.763        8.119        0.004      344.233       20.905      860.208
06/01/2014  11:06:00       45.060      -30.426       30.348       65.658      107.016       64.704     4310.968    11452.389     4186.596        1.191        0.997       54.371       66.569        1.499      344.719       21.737      860.193
06/01/2014  11:07:00       70.977     -100.580        3.508       54.300       59.370       43.112     2948.536     3524.810     1858.668        1.175        0.417      123.102       38.951        0.100      344.674       21.661      860.202
06/01/2014  11:08:00       21.400        3.839      -15.131       28.315       38.016       29.813      801.762     1445.247      888.824        0.192        0.157       21.741       23.925        1.211      344.640       21.603      860.189
06/01/2014  11:09:00       13.777      -38.313       11.745       69.112       89.804       33.957     4776.484     8064.777     1153.085        0.789        0.700       40.715       47.377        1.354      344.930       22.099      860.177
06/01/2014  11:10:00       35.994      -31.846       28.955       37.212       47.585       38.677     1384.713     2264.325     1495.938        0.415        0.257       48.059       28.502        0.352      345.303       22.739      860.164
06/01/2014  11:11:00        1.367       25.434       62.396       28.766       43.810       29.332      827.455     1919.324      860.358        0.407        0.180       25.471       25.822        1.028      345.581       23.214      860.150
06/01/2014  11:12:00       15.094       49.388       73.271       50.736       58.922       38.075     2574.167     3471.795     1449.694        0.776        0.375       51.643       29.269        0.321      345.128       22.439      860.150
06/01/2014  11:13:00      117.069      110.901       90.768      130.125       80.969       89.516    16932.559     6556.033     8013.140        3.287        1.575      161.258       88.731        0.303      344.628       21.579      860.133
06/01/2014  11:14:00       -3.523       21.411        7.513       55.986       52.388       40.567     3134.478     2744.455     1645.658        0.402        0.376       21.699       25.522        1.383      344.907       22.060      860.141
06/01/2014  11:15:00       61.449       86.929       -0.501       64.149       44.576       44.650     4115.075     1987.055     1993.646        0.971        0.405      106.454       30.374        0.081      344.745       21.782      860.118
06/01/2014  11:16:00       -9.663       91.460      -21.960       40.568       37.053       24.367     1645.771     1372.916      593.727        0.628        0.181       91.969       21.206        0.053      344.672       21.657      860.085
06/01/2014  11:17:00      -17.250       35.128       15.848       37.754       37.386       33.974     1425.360     1397.700     1154.255        0.288        0.199       39.135       26.812        0.469      345.526       23.120      860.070
06/01/2014  11:18:00      -44.285      -10.607        6.734       45.521       41.703       27.322     2072.162     1739.136      746.498        0.334        0.228       45.538       26.473        0.338      344.812       21.899      860.052
06/01/2014  11:19:00       52.788      -19.931       32.187       59.854       52.754       42.391     3582.501     2782.946     1796.990        0.619        0.408       56.425       43.566        0.596      345.652       23.337      860.064
06/01/2014  11:20:00        3.301       16.709       75.202       37.937       81.684       35.030     1439.181     6672.316     1227.067        0.764        0.467       17.032       33.919        3.966      345.494       23.066      860.065
06/01/2014  11:21:00       26.572        7.303       39.181       40.298       51.401       36.022     1623.914     2642.064     1297.565        0.393        0.278       27.557       31.729        1.326      345.330       22.784      860.061
06/01/2014  11:22:00      125.121       98.879       67.642       70.421       85.228       65.529     4959.169     7263.886     4294.009        2.326        0.826      159.475       32.283        0.041      344.979       22.179      860.062
06/01/2014  11:23:00      161.876      122.536       34.607       87.947       74.620       61.479     7734.710     5568.132     3779.643        2.975        0.854      203.025       49.568        0.060      345.344       22.805      860.052
06/01/2014  11:24:00      103.090       83.121       28.459       60.020       48.539       35.856     3602.432     2355.992     1285.633        1.279        0.362      132.426       15.034        0.013      344.674       21.660      860.054
06/01/2014  11:25:00      101.968      168.165        2.714       94.415       71.973       63.335     8914.181     5180.133     4011.275        2.839        0.905      196.664       59.017        0.090      344.783       21.844      860.052
06/01/2014  11:26:00      240.690      147.262       29.328       68.428       61.032       46.272     4682.410     3724.879     2141.135        4.551        0.527      282.166       20.419        0.005      344.759       21.803      860.030
06/01/2014  11:27:00      110.575      160.642      112.055       81.810       72.591       79.764     6692.940     5269.447     6362.308        3.445        0.916      195.020       61.139        0.098      344.718       21.733      860.041
06/01/2014  11:28:00      104.130       73.986       80.145       90.268       62.423       55.364     8148.318     3896.615     3065.167        1.892        0.756      127.738       47.013        0.135      344.669       21.650      860.046
06/01/2014  11:29:00      136.837      100.055       31.162       55.726       64.716       57.421     3105.352     4188.208     3297.208        2.015        0.530      169.515       33.423        0.039      344.550       21.448      860.066
06/01/2014  11:30:00      -12.177      -53.081        1.818       58.021       39.898       21.729     3366.408     1591.842      472.170        0.420        0.272       54.460       21.700        0.159      344.695       21.696      860.057
06/01/2014  11:31:00      -61.258       12.219       20.694       57.677       38.402       27.646     3326.674     1474.688      764.289        0.495        0.278       62.465       28.365        0.206      345.313       22.756      860.009
06/01/2014  11:32:00       -7.924       66.021       27.100       58.008       50.476       36.814     3364.893     2547.818     1355.235        0.621        0.363       66.495       26.435        0.158      345.730       23.468      860.008
06/01/2014  11:33:00       35.993      115.409        0.789       71.745       88.707       41.560     5147.296     7868.985     1727.208        1.468        0.737      120.891       39.040        0.104      345.366       22.845      859.987
06/01/2014  11:34:00       31.868        9.395        6.927       34.238       24.733       22.938     1172.240      611.714      526.156        0.173        0.116       33.224       14.276        0.185      345.462       23.011      859.977
06/01/2014  11:35:00       26.423        0.918       31.862       33.614       36.567       30.973     1129.924     1337.114      959.346        0.257        0.171       26.439       30.175        1.303      345.260       22.664      859.963
06/01/2014  11:36:00       65.311      -20.176       33.254       53.891       67.115       49.078     2904.211     4504.476     2408.655        0.780        0.491       68.357       36.047        0.278      344.994       22.207      859.951
06/01/2014  11:37:00       72.453       27.323       17.344       80.817       45.744       47.845     6531.363     2092.558     2289.135        0.860        0.546       77.434       38.776        0.251      345.747       23.499      859.945
06/01/2014  11:38:00       31.294       38.502       43.625       48.974       57.934       48.196     2398.431     3356.300     2322.827        0.622        0.404       49.616       27.338        0.304      345.973       23.888      859.954
06/01/2014  11:39:00       53.830       32.562       -8.847       53.491       48.842       36.068     2861.285     2385.564     1300.875        0.529        0.327       62.912       17.835        0.080      345.613       23.269      859.962
06/01/2014  11:40:00       69.450       57.675       67.367       72.177       91.154       55.419     5209.547     8309.133     3071.316        1.464        0.829       90.276       49.770        0.304      345.627       23.291      859.964
06/01/2014  11:41:00      147.189     -175.146       -6.068       81.742      110.969       60.058     6681.753    12314.161     3607.012        3.749        1.130      228.780       57.614        0.063      345.279       22.692      859.968
06/01/2014  11:42:00      102.864       78.860       78.871       51.332       62.966       56.379     2634.998     3964.776     3178.593        1.640        0.489      129.614       49.308        0.145      344.976       22.177      859.979
06/01/2014  11:43:00       37.325        6.821        1.258       41.572       30.643       38.460     1728.194      939.020     1479.207        0.279        0.207       37.943       24.553        0.419      345.284       22.704      859.929
06/01/2014  11:44:00       90.152       55.660       85.696       92.815       87.907       56.468     8614.704     7727.562     3188.613        1.905        0.977      105.950       41.547        0.154      345.409       22.918      859.923
06/01/2014  11:45:00       61.189       40.643       47.374       64.111       66.781       52.656     4110.206     4459.714     2772.607        0.949        0.567       73.457       42.986        0.342      344.845       21.953      859.902
06/01/2014  11:46:00      121.253       56.543       59.839       67.573      102.966       58.955     4566.049    10601.999     3475.681        2.006        0.932      133.788       56.920        0.181      345.039       22.282      859.894
06/01/2014  11:47:00       68.752       50.274       40.277       67.189       56.108       33.810     4514.346     3148.104     1143.090        0.884        0.440       85.172       42.035        0.244      345.151       22.478      859.876
06/01/2014  11:48:00       74.667       57.517       34.729       41.473       38.960       37.006     1720.040     1517.886     1369.408        0.735        0.230       94.251       22.864        0.059      345.262       22.666      859.859
06/01/2014  11:49:00       27.253       35.010       47.624       49.066       41.808       35.397     2407.492     1747.933     1252.963        0.482        0.270       44.367       33.813        0.581      345.554       23.167      859.843
06/01/2014  11:50:00      -10.390       30.055       42.713       35.595       35.871       29.302     1266.998     1286.717      858.636        0.312        0.171       31.800       25.608        0.648      345.730       23.470      859.829
06/01/2014  11:51:00        4.826       27.382       24.187       20.519       28.095       27.925      421.017      789.340      779.800        0.167        0.100       27.805       15.909        0.327      346.143       24.180      859.829
06/01/2014  11:52:00       50.132       13.149       35.078       38.307       43.707       31.235     1467.411     1910.286      975.626        0.413        0.218       51.828       21.550        0.173      346.056       24.029      859.820
06/01/2014  11:53:00        7.552       -3.846       41.285       34.229       57.618       29.276     1171.591     3319.873      857.109        0.356        0.267        8.475       28.645       11.424      346.351       24.536      859.792
06/01/2014  11:54:00       93.517       77.096      117.306      113.571      119.967       98.852    12898.415    14392.093     9771.725        3.275        1.853      121.200       80.429        0.440      345.731       23.469      859.782
06/01/2014  11:55:00      219.444      130.506       10.229       85.051       88.749       60.186     7233.601     7876.347     3622.300        4.201        0.937      255.318       43.054        0.028      345.645       23.321      859.771
06/01/2014  11:56:00      107.297       75.932       36.632       78.961       74.885       50.141     6234.801     5607.778     2514.101        1.649        0.718      131.447       29.816        0.051      345.876       23.719      859.761
06/01/2014  11:57:00      151.768      125.278       16.759      147.509       92.649       65.981    21758.914     8583.768     4353.530        3.685        1.735      196.794       47.920        0.059      345.751       23.504      859.751
06/01/2014  11:58:00       46.597      134.806       21.360       99.442      124.775       70.857     9888.624    15568.922     5020.729        2.563        1.524      142.632       62.114        0.190      345.778       23.550      859.727
06/01/2014  11:59:00      105.244       72.824      112.010      111.782      194.105      160.231    12495.277    37676.690    25674.112        5.237        3.792      127.982      142.201        1.235      345.789       23.568      859.697
06/01/2014  12:00:00      262.998     -291.926      -35.159      164.540      209.915      105.774    27073.471    44064.514    11188.243       11.896        4.116      392.924      130.228        0.110      345.528       23.121      859.669
06/01/2014  12:01:00      104.434     -102.840       32.331      112.934       97.660       76.325    12754.020     9537.418     5825.489        2.532        1.406      146.570       88.067        0.361      345.866       23.703      859.718
06/01/2014  12:02:00       97.629      -18.841       95.665      145.147      203.286      144.645    21067.658    41325.387    20922.278        5.116        4.166       99.430      167.384        2.834      345.703       23.421      859.702
06/01/2014  12:03:00      148.846     -195.315      -58.678      122.573      162.433      104.093    15024.062    26384.627    10835.378        5.798        2.612      245.567       95.210        0.150      345.531       23.125      859.701
06/01/2014  12:04:00      156.042     -180.862      -34.964      110.809      105.111       73.962    12278.607    11048.325     5470.342        4.353        1.440      238.873       76.521        0.103      345.497       23.068      859.723
06/01/2014  12:05:00       63.733     -126.178       42.672       96.391      150.608       90.772     9291.207    22682.877     8239.470        3.100        2.011      141.360       87.921        0.387      345.882       23.729      859.720
06/01/2014  12:06:00      151.303     -308.019      -33.436      109.917      133.671       63.815    12081.652    17868.064     4072.411        7.645        1.701      343.174       63.031        0.034      345.371       22.851      859.753
06/01/2014  12:07:00      104.289      -75.111       42.721       90.481       80.671       67.125     8186.869     6507.812     4505.825        1.877        0.960      128.522       54.352        0.179      345.510       23.092      859.766
06/01/2014  12:08:00       30.858      -47.803       17.424       56.823       65.714       34.097     3228.890     4318.267     1162.576        0.612        0.435       56.898       21.836        0.147      345.928       23.811      859.742
06/01/2014  12:09:00     -104.260       13.297        7.928       39.673       37.751       27.298     1573.953     1425.139      745.194        0.743        0.187      105.104       20.502        0.038      345.308       22.746      859.719
06/01/2014  12:10:00       21.254       25.673       15.757       54.955       24.162       28.171     3020.035      583.781      793.591        0.288        0.220       33.329       18.494        0.308      345.830       23.642      859.726
06/01/2014  12:11:00       68.296       90.064        8.352       78.822       58.699       56.648     6212.883     3445.553     3209.035        1.285        0.643      113.031       37.478        0.110      345.749       23.502      859.708
06/01/2014  12:12:00       54.362       56.156       24.025       70.384       43.853       31.567     4953.942     1923.082      996.487        0.728        0.394       78.159       20.859        0.071      345.822       23.628      859.668
06/01/2014  12:13:00        0.413       98.207        4.018       51.382       62.204       36.705     2640.081     3869.277     1347.287        0.876        0.393       98.208       28.980        0.087      345.691       23.404      859.658
06/01/2014  12:14:00      -38.015      -23.248       -4.400       51.750       57.971       24.210     2678.030     3360.635      586.101        0.431        0.331       44.560       16.326        0.134      345.802       23.593      859.639
06/01/2014  12:15:00       47.561       81.726       75.922       54.847       90.002       60.601     3008.182     8100.283     3672.523        1.474        0.739       94.558       53.636        0.322      346.291       24.432      859.601
06/01/2014  12:16:00      191.770      130.228       15.213      139.767       82.973       57.306    19534.858     6884.457     3283.983        4.183        1.485      231.808       36.826        0.025      345.727       23.461      859.611
06/01/2014  12:17:00       64.650       70.412       28.771       96.392       80.255       58.819     9291.346     6440.813     3459.711        1.457        0.960       95.590       53.680        0.315      345.960       23.865      859.587
06/01/2014  12:18:00      161.036       96.102       48.813      127.973       92.690       67.917    16377.081     8591.525     4612.743        3.356        1.479      187.532       46.962        0.063      346.142       24.175      859.569
06/01/2014  12:19:00      198.210      143.192        6.565      134.555       85.836       76.530    18105.009     7367.891     5856.771        4.558        1.566      244.522       56.138        0.053      345.746       23.493      859.568
06/01/2014  12:20:00      167.765      159.048       10.707      115.346       84.666       80.197    13304.653     7168.286     6431.551        4.022        1.345      231.174       44.695        0.037      345.581       23.209      859.562
06/01/2014  12:21:00      108.558      140.541        9.924      111.189       93.865       54.773    12362.913     8810.719     3000.050        2.790        1.209      177.586       43.826        0.061      345.766       23.529      859.542
06/01/2014  12:22:00       66.648      159.142       -7.496       90.099      114.472       69.102     8117.902    13103.844     4775.147        2.791        1.300      172.534       63.990        0.138      345.754       23.509      859.526
06/01/2014  12:23:00       56.081      310.266      -41.666       54.180      105.155       53.352     2935.463    11057.548     2846.469        5.899        0.842      315.293       62.315        0.039      345.432       22.955      859.516
06/01/2014  12:24:00       33.008      184.003      -16.898       54.335       87.773       48.089     2952.250     7704.165     2312.583        2.410        0.648      186.940       44.567        0.057      345.772       23.540      859.505
06/01/2014  12:25:00      133.231      122.270       19.933       71.383       72.179       61.894     5095.573     5209.866     3830.809        2.361        0.707      180.833       46.759        0.067      345.981       23.898      859.494
06/01/2014  12:26:00      231.006      103.531       16.828       82.993       72.822       58.978     6887.819     5303.061     3478.454        4.001        0.783      253.145       34.061        0.018      345.766       23.527      859.489
06/01/2014  12:27:00      126.647       94.284        2.496       56.054       52.929       50.051     3142.002     2801.443     2505.116        1.669        0.422      157.889       24.754        0.025      345.553       23.164      859.484
06/01/2014  12:28:00       20.065      155.485      -22.365       54.651       86.020       45.339     2986.775     7399.389     2055.617        1.876        0.622      156.775       47.322        0.091      345.703       23.422      859.473
06/01/2014  12:29:00      127.469       36.534       20.319       75.826       83.222       48.360     5749.655     6925.942     2338.727        1.650        0.751      132.601       39.928        0.091      345.971       23.884      859.468
06/01/2014  12:30:00       63.994       22.009       24.646       75.100       88.017       50.884     5640.006     7747.015     2589.131        1.058        0.799       67.673       16.267        0.058      346.322       24.486      859.443
06/01/2014  12:31:00       56.620      118.850       -8.997       70.646       81.721       55.477     4990.871     6678.368     3077.667        1.608        0.737      131.648       32.972        0.063      346.184       24.248      859.435
06/01/2014  12:32:00       66.155      133.934       10.856       66.756       85.089       61.190     4456.357     7240.070     3744.261        1.893        0.772      149.381       51.805        0.120      345.825       23.632      859.438
06/01/2014  12:33:00       23.655       57.212        6.146       93.179       23.987       38.515     8682.346      575.358     1483.396        0.730        0.537       61.909       39.307        0.403      345.561       23.178      859.416
06/01/2014  12:34:00       77.292       56.575       36.772       76.910       56.179       52.579     5915.179     3156.041     2764.589        1.118        0.592       95.785       39.722        0.172      346.232       24.332      859.402
06/01/2014  12:35:00       17.973       53.820       50.541       62.111       55.413       37.907     3857.791     3070.607     1436.933        0.707        0.418       56.741       31.403        0.306      346.216       24.305      859.363
06/01/2014  12:36:00      149.468      122.334       40.004      140.797       93.424       65.158    19823.882     8728.074     4245.606        3.585        1.640      193.148       55.406        0.082      346.348       24.530      859.344
06/01/2014  12:37:00      178.620      111.007       11.221      105.779       83.373       58.169    11189.281     6950.999     3383.617        3.293        1.076      210.304       33.483        0.025      345.727       23.461      859.352
06/01/2014  12:38:00       69.635       94.670       -2.465       69.972       63.396       39.904     4896.105     4019.047     1592.290        1.216        0.525      117.522       39.150        0.111      346.134       24.163      859.332
06/01/2014  12:39:00       18.227      149.142       -5.503       54.458      119.508       60.300     2965.698    14282.060     3636.072        2.174        1.044      150.252       67.022        0.199      346.008       23.947      859.327
06/01/2014  12:40:00       -7.438       51.771       -2.914       57.183       38.765       34.992     3269.846     1502.713     1224.408        0.437        0.300       52.303       25.294        0.234      345.958       23.861      859.335
06/01/2014  12:41:00      127.948       78.295       21.178      113.962       64.270       48.965    12987.384     4130.635     2397.569        2.123        0.976      150.002       44.739        0.089      345.987       23.909      859.317
06/01/2014  12:42:00      204.720      142.502       72.381      119.739       75.034       72.059    14337.467     5630.133     5192.552        4.630        1.258      249.434       55.129        0.049      346.381       24.584      859.289
06/01/2014  12:43:00      194.165       99.051       65.625       98.830       89.063       72.990     9767.384     7932.193     5327.492        3.742        1.151      217.971       55.830        0.066      346.166       24.216      859.278
06/01/2014  12:44:00      132.089      101.751       47.845       97.070       83.347       62.311     9422.547     6946.652     3882.687        2.517        1.013      166.736       41.520        0.062      346.385       24.593      859.267
06/01/2014  12:45:00      231.025      158.186       19.278      107.034       80.232       55.107    11456.258     6437.119     3036.812        4.984        1.047      279.992       46.948        0.028      345.913       23.780      859.263
06/01/2014  12:46:00      134.619      125.673       13.765      111.946       89.555       85.121    12531.823     8020.080     7245.531        3.095        1.390      184.163       64.339        0.122      346.091       24.086      859.266
06/01/2014  12:47:00      199.885       94.239       17.759       87.061       75.739       45.545     7579.634     5736.415     2074.362        3.227        0.770      220.986       29.430        0.018      346.153       24.192      859.259
06/01/2014  12:48:00      214.600      168.442       17.105      114.450       78.813       61.360    13098.871     6211.550     3765.020        4.889        1.154      272.812       30.275        0.012      346.004       23.935      859.247
06/01/2014  12:49:00      112.777      129.492        0.382       87.578       75.033       43.461     7669.940     5629.935     1888.832        2.233        0.759      171.717       33.572        0.038      346.156       24.199      859.232
06/01/2014  12:50:00       45.483      105.741        5.455       45.214       59.409       51.630     2044.349     3529.449     2665.625        1.076        0.412      115.108       37.142        0.104      346.179       24.241      859.203
06/01/2014  12:51:00      139.723      156.447       17.832      122.618      101.626       82.849    15035.197    10327.934     6864.002        3.827        1.611      209.758       61.647        0.086      346.124       24.143      859.204
06/01/2014  12:52:00      175.027      172.456      -11.108      119.255      100.863       91.198    14221.788    10173.298     8317.026        4.660        1.636      245.715       63.497        0.067      345.799       23.584      859.184
06/01/2014  12:53:00      228.595      196.210       16.764      158.684       87.308       67.594    25180.678     7622.730     4568.971        6.420        1.869      301.255       48.266        0.026      345.955       23.854      859.167
06/01/2014  12:54:00       71.677      142.564       13.522       79.387      113.091       62.164     6302.360    12789.611     3864.406        2.430        1.148      159.569       59.275        0.138      346.333       24.502      859.155
06/01/2014  12:55:00       90.394      144.579      -22.330       80.460       91.227       45.484     6473.760     8322.368     2068.796        2.322        0.843      170.511       42.634        0.063      346.176       24.234      859.160
06/01/2014  12:56:00      117.556       79.108       12.381       47.261       35.623       41.516     2233.571     1268.967     1723.607        1.273        0.261      141.695       16.924        0.014      345.915       23.787      859.142
06/01/2014  12:57:00      128.809       86.044       34.107       97.277       73.255       46.672     9462.804     5366.304     2178.268        2.108        0.850      154.904       21.977        0.020      346.545       24.868      859.124
06/01/2014  12:58:00      125.666      120.286       17.507       79.209       67.086       55.127     6274.116     4500.562     3039.021        2.219        0.691      173.956       34.862        0.040      346.400       24.620      859.114
06/01/2014  12:59:00       13.753      151.753       -7.265       73.518       71.331       49.260     5404.864     5088.174     2426.553        1.809        0.646      152.375       50.152        0.108      346.447       24.699      859.130
06/01/2014  13:00:00       20.216       97.607        4.402       58.089       78.070       47.867     3374.335     6094.919     2291.209        1.086        0.588       99.679       47.446        0.227      346.474       24.748      859.135
06/01/2014  13:01:00      102.349       35.254       51.319       72.307       97.106       74.161     5228.242     9429.522     5499.795        1.725        1.008      108.250       45.596        0.177      346.399       24.618      859.136
06/01/2014  13:02:00      104.074      -84.792       55.861      104.623      106.185       73.181    10945.884    11275.294     5355.529        2.435        1.379      134.243       61.567        0.210      346.275       24.405      859.090
06/01/2014  13:03:00      122.218       99.499       27.540       90.768       46.756       65.409     8238.790     2186.132     4278.331        2.015        0.735      157.598       56.112        0.127      346.260       24.378      859.087
06/01/2014  13:04:00       61.705       81.580        4.316       64.986       58.286       38.740     4223.231     3397.303     1500.802        0.980        0.456      102.288       27.276        0.071      346.075       24.062      859.100
06/01/2014  13:05:00      202.499      147.748       76.934      159.227      110.052       90.912    25353.322    12111.367     8264.926        5.723        2.286      250.670       83.200        0.110      346.271       24.397      859.073
06/01/2014  13:06:00      219.133      158.433      111.678      141.244      129.777      105.961    19949.845    16841.977    11227.783        6.680        2.401      270.407       93.081        0.118      346.404       24.624      859.029
06/01/2014  13:07:00      154.990      168.927      200.924      151.519      129.613       92.747    22958.051    16799.631     8601.984        7.063        2.418      229.256       93.684        0.167      346.411       24.636      859.037
06/01/2014  13:08:00       93.426      126.121      105.919      127.706       99.939       84.095    16308.704     9987.868     7072.041        3.460        1.668      156.955       60.237        0.147      346.440       24.687      859.055
06/01/2014  13:09:00      117.789       69.323       29.416      106.288       54.582       47.624    11297.109     2979.238     2268.023        1.804        0.827      136.675       26.962        0.039      346.312       24.468      859.053
06/01/2014  13:10:00       68.367       17.856       54.819       75.367       81.417       54.285     5680.184     6628.741     2946.849        1.162        0.763       70.660       48.710        0.475      346.652       25.054      859.036
06/01/2014  13:11:00      111.529      -38.227       23.913       87.117      117.600       71.857     7589.416    13829.809     5163.481        2.052        1.329      117.898       59.532        0.255      346.795       25.298      859.021
06/01/2014  13:12:00       40.696       41.841       26.791       45.825       65.933       46.133     2099.930     4347.178     2128.237        0.635        0.429       58.368       14.500        0.062      347.134       25.883      858.999
06/01/2014  13:13:00      186.305      107.770       84.365      122.939       79.713       89.902    15113.935     6354.208     8082.449        4.149        1.478      215.230       74.689        0.120      346.506       24.799      858.996
06/01/2014  13:14:00      180.790      110.712       42.372      108.343       80.906       64.541    11738.162     6545.858     4165.527        3.459        1.122      211.995       22.791        0.012      346.357       24.544      858.984
06/01/2014  13:15:00      133.920       93.828       13.969      108.631       81.622       64.529    11800.753     6662.174     4164.004        2.478        1.131      163.518       39.675        0.059      346.550       24.877      858.981
06/01/2014  13:16:00      161.792      151.244       15.134      141.363      105.306       88.324    19983.464    11089.402     7801.108        4.407        1.944      221.475       69.543        0.099      346.157       24.201      858.966
06/01/2014  13:17:00      165.595      137.194       13.066      135.215       77.853       70.634    18283.227     6061.154     4989.093        3.787        1.467      215.044       45.938        0.046      346.065       24.044      858.950
06/01/2014  13:18:00      185.519      135.332       26.429       77.907       54.736       60.445     6069.532     2996.079     3653.553        3.307        0.636      229.635       35.733        0.024      346.256       24.369      858.921
06/01/2014  13:19:00       97.219       98.052       18.401       69.890       69.810       53.593     4884.669     4873.440     2872.251        1.601        0.632      138.079       40.428        0.086      346.840       25.376      858.919
06/01/2014  13:20:00       98.181       82.099       23.869       65.804       65.689       49.168     4330.150     4315.062     2417.474        1.400        0.553      127.984       34.241        0.072      346.641       25.034      858.913
06/01/2014  13:21:00      144.517      110.569        3.949       59.355       54.087       37.701     3523.051     2925.405     1421.391        2.050        0.393      181.963       25.133        0.019      346.109       24.119      858.907
06/01/2014  13:22:00      108.354       99.806       43.932       69.134       56.117       55.214     4779.442     3149.062     3048.600        1.730        0.549      147.316       31.036        0.044      346.675       25.092      858.891
06/01/2014  13:23:00       56.613       57.392       38.469       79.832       65.759       61.327     6373.142     4324.193     3761.018        1.122        0.723       80.616       50.130        0.387      346.810       25.328      858.881
06/01/2014  13:24:00       37.527       67.630       74.116       66.895       73.372       47.925     4474.897     5383.475     2296.819        1.181        0.608       77.344       41.355        0.286      347.167       25.940      858.876
06/01/2014  13:25:00       73.827      -13.087       43.356       65.340       72.283       44.130     4269.377     5224.842     1947.421        0.947        0.572       74.978       41.862        0.312      346.986       25.630      858.867
06/01/2014  13:26:00       58.920       53.395       61.215      114.001       60.768       46.919    12996.148     3692.695     2201.388        1.448        0.945       79.514       29.751        0.140      347.165       25.937      858.859
06/01/2014  13:27:00       99.456       89.850       12.697      100.155       84.942       51.280    10030.943     7215.108     2629.668        1.900        0.994      134.032       37.618        0.079      346.550       24.878      858.848
06/01/2014  13:28:00      116.455       82.340       37.429       80.052       85.439       78.184     6408.332     7299.831     6112.762        2.078        0.991      142.625       51.272        0.129      346.293       24.436      858.847
06/01/2014  13:29:00       31.789       32.161       11.942       54.363       54.908       42.822     2955.390     3014.873     1833.716        0.499        0.390       45.220       16.264        0.129      346.755       25.231      858.844
06/01/2014  13:30:00       47.242       55.758       26.961       53.886       49.666       46.318     2903.710     2466.760     2145.331        0.679        0.376       73.080       35.239        0.233      346.943       25.554      858.833
06/01/2014  13:31:00      -24.449       22.744       20.639       30.953       39.687       31.039      958.058     1575.078      963.408        0.252        0.175       33.392       19.545        0.343      347.341       26.239      858.823
06/01/2014  13:32:00       46.647       11.504       18.388       53.200       61.235       45.127     2830.248     3749.754     2036.429        0.563        0.431       48.045       40.105        0.697      347.173       25.950      858.810
06/01/2014  13:33:00       61.069       71.958       11.369       71.541       64.198       44.493     5118.093     4121.364     1979.623        1.013        0.561       94.379       25.575        0.073      346.421       24.657      858.826
06/01/2014  13:34:00       21.357       58.794        0.502       47.159       61.110       46.027     2224.006     3734.460     2118.518        0.599        0.404       62.553       31.809        0.259      346.483       24.763      858.820
06/01/2014  13:35:00       71.019       50.695       -3.546       50.960       54.750       28.588     2596.945     2997.573      817.279        0.702        0.321       87.256       22.084        0.064      346.384       24.593      858.807
06/01/2014  13:36:00       -8.931       37.186       62.026       56.649       61.773       40.546     3209.083     3815.865     1643.993        0.699        0.433       38.244       26.598        0.484      347.132       25.880      858.792
06/01/2014  13:37:00       18.776      -23.262       43.179       46.186       82.104       50.355     2133.172     6741.055     2535.593        0.708        0.570       29.894       55.521        3.449      347.309       26.186      858.787
06/01/2014  13:38:00      -14.281      114.041       17.475       39.207       92.448       53.929     1537.163     8546.614     2908.333        1.325        0.650      114.931       58.627        0.260      346.829       25.358      858.796
06/01/2014  13:39:00       -0.146      131.986        7.810       38.697       45.630       42.981     1497.437     2082.115     1847.337        1.145        0.271      131.986       26.430        0.040      346.605       24.973      858.786
06/01/2014  13:40:00      -32.822      106.541       -6.611       27.896       62.677       37.112      778.178     3928.402     1377.288        0.928        0.304      111.482       42.147        0.143      346.604       24.972      858.778
06/01/2014  13:41:00       25.517       55.264        3.631       46.184       36.077       34.651     2132.947     1301.555     1200.690        0.418        0.232       60.870       16.570        0.074      346.871       25.432      858.762
06/01/2014  13:42:00      151.034       92.596       24.457       68.602       45.645       45.739     4706.195     2083.433     2092.064        2.043        0.444      177.159       15.644        0.008      346.459       24.719      858.744
06/01/2014  13:43:00      155.313       93.863       41.249       73.188       52.236       54.415     5356.502     2728.573     2961.031        2.284        0.552      181.473       36.020        0.039      346.505       24.798      858.720
06/01/2014  13:44:00      211.908      136.674       55.921       88.929       57.433       55.679     7908.358     3298.552     3100.132        4.051        0.715      252.160       36.448        0.021      346.096       24.094      858.692
06/01/2014  13:45:00       36.039       45.275       49.352       84.969       58.194       52.084     7219.765     3386.564     2712.772        0.955        0.666       57.867       42.065        0.528      346.525       24.835      858.669
06/01/2014  13:46:00      144.996      105.717       23.651      117.043       74.423       54.602    13699.115     5538.804     2981.330        2.748        1.111      179.443       37.588        0.044      346.502       24.792      858.654
06/01/2014  13:47:00      130.626       64.991       18.102       84.094       54.209       44.326     7071.791     2938.593     1964.777        1.679        0.599      145.900       36.705        0.063      346.377       24.579      858.656
06/01/2014  13:48:00       26.038       67.971       -2.911       37.080       44.035       28.902     1374.914     1939.055      835.323        0.473        0.207       72.788       21.765        0.089      346.544       24.866      858.637
06/01/2014  13:49:00       -8.023       36.368       -7.631       36.978       47.919       31.575     1367.398     2296.265      997.004        0.305        0.233       37.243       34.261        0.846      346.493       24.781      858.620
06/01/2014  13:50:00       37.508      -48.394      -13.082       28.769       59.871       33.525      827.627     3584.538     1123.901        0.473        0.277       61.227       22.866        0.139      346.568       24.910      858.606
06/01/2014  13:51:00       25.074      -98.780      -20.591       41.087       36.158       30.496     1688.174     1307.383      929.976        0.737        0.196      101.913       16.669        0.027      346.678       25.099      858.583
06/01/2014  13:52:00       65.257       31.831      -22.109       38.806       75.401       46.729     1505.871     5685.350     2183.627        0.757        0.469       72.607       32.562        0.201      346.720       25.171      858.590
06/01/2014  13:53:00        5.363        5.602        5.623       93.092       87.978       42.832     8666.207     7740.152     1834.592        0.916        0.912        7.756       29.933       14.896      347.099       25.823      858.587
06/01/2014  13:54:00      -60.821       42.937      -13.902       41.450       45.024       36.585     1718.101     2027.139     1338.446        0.541        0.254       74.450       18.543        0.062      347.082       25.793      858.585
06/01/2014  13:55:00      -11.534      110.072      -23.703       38.993       78.275       29.199     1520.416     6126.969      852.580        1.065        0.425      110.675       25.383        0.053      346.491       24.776      858.579
06/01/2014  13:56:00       -8.804       22.372        9.361       38.495       39.711       23.083     1481.838     1576.938      532.807        0.213        0.180       24.042       21.985        0.836      347.008       25.666      858.565
06/01/2014  13:57:00       -9.805       -3.711       12.249       23.054       33.755       26.228      531.498     1139.418      687.931        0.131        0.118       10.484       13.508        1.660      347.590       26.670      858.572
06/01/2014  13:58:00      -22.429      -63.775        5.967       30.065       58.482       25.615      903.929     3420.092      656.144        0.479        0.249       67.604       30.784        0.207      346.635       25.026      858.556
06/01/2014  13:59:00       -3.303      -34.293        1.179       15.875       23.263       23.911      252.027      541.164      571.728        0.128        0.068       34.451       14.182        0.169      346.796       25.303      858.554
06/01/2014  14:00:00      -67.792      -33.406        7.734       53.249       38.491       24.750     2835.465     1481.548      612.565        0.535        0.246       75.576       20.367        0.073      346.992       25.638      858.530
06/01/2014  14:01:00      106.201       28.461       50.806       96.161      112.282       68.252     9247.019    12607.265     4658.372        2.059        1.326      109.948       64.873        0.348      346.968       25.596      858.511
06/01/2014  14:02:00       63.730      -51.545       53.517       75.259      132.190       61.169     5663.975    17474.127     3741.707        1.823        1.344       81.965       63.327        0.597      347.170       25.943      858.478
06/01/2014  14:03:00      158.016     -208.843      -22.285      111.713      102.235       73.116    12479.683    10452.031     5346.004        4.867        1.414      261.887       64.245        0.060      347.015       25.676      858.448
06/01/2014  14:04:00      171.555     -148.552       19.365       93.911      160.484       80.104     8819.337    25755.149     6416.646        4.642        2.050      226.934      106.907        0.222      346.610       24.980      858.468
06/01/2014  14:05:00      134.100     -179.567      -13.899      123.308      151.653       81.236    15204.822    22998.729     6599.288        4.760        2.240      224.114      102.697        0.210      346.914       25.501      858.431
06/01/2014  14:06:00      151.494     -237.603      -25.260       99.085       84.287       56.493     9817.863     7104.291     3191.505        5.007        1.006      281.790       56.245        0.040      346.546       24.869      858.432
06/01/2014  14:07:00      130.047     -241.494      -29.559       84.663       90.554       48.061     7167.891     8200.102     2309.888        4.689        0.884      274.284       34.607        0.016      346.736       25.196      858.432
06/01/2014  14:08:00      100.615     -201.667        1.925      103.004      149.836       69.007    10609.842    22450.930     4762.000        4.430        1.891      225.373       66.363        0.087      346.966       25.591      858.424
06/01/2014  14:09:00       44.956     -128.988        5.699       80.130      106.361       70.913     6420.770    11312.638     5028.685        2.072        1.138      136.598       70.293        0.265      346.934       25.537      858.445
06/01/2014  14:10:00       67.961     -125.484       -7.691       68.545       87.303       54.786     4698.389     7621.859     3001.485        1.787        0.766      142.706       61.245        0.184      347.003       25.658      858.438
06/01/2014  14:11:00       44.354      -87.200       23.839       79.565      100.837       49.620     6330.602    10168.142     2462.178        1.455        0.948       97.832       52.975        0.293      346.895       25.470      858.427
06/01/2014  14:12:00       55.502      -95.993       -2.865       53.667       81.386       38.269     2880.186     6623.632     1464.479        1.163        0.548      110.884       38.721        0.122      346.827       25.353      858.421
06/01/2014  14:13:00      -14.468      -25.607       26.002       33.136       74.446       46.112     1098.027     5542.134     2126.272        0.515        0.438       29.411       53.105        3.260      347.402       26.345      858.389
06/01/2014  14:14:00       -4.058      -22.246       20.571       46.867       43.312       33.990     2196.498     1875.936     1155.293        0.308        0.261       22.613       19.021        0.708      347.612       26.707      858.372
06/01/2014  14:15:00       34.419      -68.432       19.253       65.000       76.692       56.993     4224.957     5881.657     3248.216        0.979        0.668       76.600       59.699        0.607      347.302       26.173      858.366
06/01/2014  14:16:00        7.910       10.096       68.106       35.102       75.216       46.660     1232.181     5657.423     2177.128        0.693        0.453       12.826       52.017       16.447      347.217       26.026      858.335
06/01/2014  14:17:00       42.757       61.777       90.377       73.833       47.051       56.975     5451.245     2213.798     3246.167        1.236        0.546       75.130       55.606        0.548      347.086       25.801      858.319
06/01/2014  14:18:00       79.354       33.843        9.558       20.136       50.217       30.467      405.449     2521.785      928.229        0.569        0.193       86.270       21.519        0.062      346.387       24.597      858.320
06/01/2014  14:19:00       66.706       53.430       24.437       51.394       49.816       36.555     2641.362     2481.598     1336.251        0.718        0.323       85.466       26.251        0.094      346.668       25.081      858.297
06/01/2014  14:20:00       61.220       43.495       -6.701       47.640       93.300       36.113     2269.586     8704.838     1304.146        0.898        0.614       75.098       21.848        0.085      346.922       25.518      858.272
06/01/2014  14:21:00      104.730      -75.090       39.716       94.732      151.895       77.100     8974.164    23072.107     5944.484        2.808        1.900      128.868       94.269        0.535      347.030       25.702      858.244
06/01/2014  14:22:00      155.857      124.682      148.772      116.610      115.096       92.979    13597.924    13247.014     8645.114        4.872        1.775      199.592       84.556        0.179      346.807       25.317      858.246
06/01/2014  14:23:00      102.011      -93.287       39.131       93.630      141.007       70.715     8766.663    19883.036     5000.605        2.714        1.683      138.235       91.946        0.442      346.874       25.435      858.238
06/01/2014  14:24:00      157.658      -57.463       24.507       84.571      155.807       96.872     7152.327    24275.955     9384.258        3.478        2.041      167.803      114.052        0.462      346.853       25.396      858.220
06/01/2014  14:25:00      169.958      112.679       58.638       82.067       83.206       60.802     6735.041     6923.199     3696.913        3.118        0.868      203.918       28.799        0.020      346.819       25.337      858.209
06/01/2014  14:26:00      137.718      101.994        6.545       71.522       73.144       36.112     5115.331     5350.016     1304.054        2.059        0.588      171.374       32.355        0.036      346.369       24.563      858.212
06/01/2014  14:27:00       80.983       64.142        1.247       66.883       40.570       36.335     4473.307     1645.943     1320.214        0.906        0.372      103.308       27.018        0.068      346.732       25.192      858.175
06/01/2014  14:28:00       20.683       56.678       -0.027       38.313       53.523       28.484     1467.906     2864.741      811.358        0.439        0.257       60.334       16.258        0.073      346.782       25.278      858.133
06/01/2014  14:29:00      137.305       70.450        9.571       63.591       50.981       35.905     4043.828     2599.034     1289.204        1.592        0.397      154.324       21.698        0.020      346.741       25.204      858.119
06/01/2014  14:30:00       73.530       75.941       37.027       61.821       55.314       65.996     3821.820     3059.676     4355.485        1.189        0.562      105.706       50.063        0.224      346.968       25.598      858.103
06/01/2014  14:31:00       62.005       94.351       90.359       70.689       74.960       66.122     4996.928     5618.989     4372.118        1.795        0.749      112.902       54.149        0.230      347.223       26.037      858.070
06/01/2014  14:32:00       92.979       63.834       74.287       86.456       84.692       55.405     7474.616     7172.680     3069.712        1.797        0.886      112.783       51.909        0.212      347.132       25.878      858.048
06/01/2014  14:33:00      148.851       74.373       57.938      100.817       78.854       71.003    10164.140     6217.899     5041.389        2.623        1.071      166.397       57.937        0.121      347.094       25.811      858.032
06/01/2014  14:34:00       71.831       47.729       61.579       99.312       98.240       81.088     9862.959     9651.153     6575.294        1.865        1.304       86.243       68.015        0.622      347.393       26.327      858.005
06/01/2014  14:35:00       25.756       58.706      125.745       60.326      115.013       78.924     3639.224    13228.042     6228.937        2.150        1.155       64.108       77.261        1.452      347.690       26.839      857.974
06/01/2014  14:36:00       77.323       74.024      142.299      111.916       89.342       69.512    12525.160     7981.926     4831.916        2.852        1.267      107.044       59.767        0.312      347.642       26.757      857.970
06/01/2014  14:37:00       97.365       46.320      101.309      109.010      105.169       94.910    11883.284    11060.478     9007.967        2.691        1.598      107.821       81.061        0.565      347.440       26.409      857.969
06/01/2014  14:38:00       57.457        7.001       86.970       88.977       85.311       55.011     7916.870     7277.957     3026.236        1.456        0.911       57.882       54.592        0.890      347.562       26.620      857.965
06/01/2014  14:39:00       52.524        1.223       60.705       67.776       96.049       75.728     4593.523     9225.462     5734.655        1.300        0.978       52.538       74.076        1.988      347.296       26.163      857.970
06/01/2014  14:40:00      153.854       57.124       39.694      122.079      106.921       75.426    14903.181    11432.083     5689.039        3.026        1.601      164.116       55.165        0.113      347.259       26.095      857.969
06/01/2014  14:41:00      119.546       65.743       19.041       72.444       85.148       66.819     5248.101     7250.254     4464.734        1.797        0.848      136.431       59.754        0.192      347.190       25.979      857.986
06/01/2014  14:42:00       96.768       30.570       47.753       88.415      119.847       60.571     7817.283    14363.328     3668.807        1.921        1.292      101.482       60.331        0.353      347.265       26.108      858.007
06/01/2014  14:43:00       82.022     -105.613        4.402       96.947      106.300       65.681     9398.629    11299.716     4313.998        2.145        1.251      133.723       73.641        0.303      347.509       26.528      857.970
06/01/2014  14:44:00       57.573        1.256       61.370       69.049      104.650       61.529     4767.781    10951.588     3785.822        1.329        0.975       57.586       69.462        1.455      347.471       26.464      857.974
06/01/2014  14:45:00       -1.685       36.531       91.908       33.090       48.731       31.849     1094.960     2374.693     1014.353        0.713        0.224       36.570       28.360        0.601      347.711       26.878      857.955
06/01/2014  14:46:00      -24.448       37.059       57.297       38.063       44.681       34.737     1448.766     1996.362     1206.651        0.495        0.233       44.397       35.926        0.655      347.635       26.747      857.932
06/01/2014  14:47:00      -38.929       14.093       15.391       32.663       32.337       22.487     1066.870     1045.706      505.647        0.228        0.131       41.401       14.415        0.121      347.611       26.706      857.919
06/01/2014  14:48:00       13.650       20.934       28.177       38.804       15.327       16.515     1505.755      234.924      272.759        0.172        0.101       24.991        9.912        0.157      347.820       27.066      857.907
06/01/2014  14:49:00       25.537       23.685       34.941       35.189       35.635       23.674     1238.241     1269.870      560.447        0.275        0.153       34.830       17.662        0.257      347.691       26.845      857.902
06/01/2014  14:50:00       67.330     -119.244      -31.158       64.566       91.837       53.304     4168.724     8434.024     2841.315        1.758        0.772      136.940       52.491        0.147      347.284       26.140      857.890
06/01/2014  14:51:00       57.705      -76.778        4.666       65.771       86.656       47.880     4325.826     7509.281     2292.533        1.168        0.706       96.046       48.003        0.250      347.533       26.572      857.874
06/01/2014  14:52:00       94.236      -33.266       31.400      106.397      202.878       75.866    11320.412    41159.619     5755.650        3.459        2.912       99.935       77.247        0.597      347.470       26.460      857.845
06/01/2014  14:53:00      157.062      100.417      117.636      166.251      130.796       85.909    27639.382    17107.605     7380.378        5.035        2.606      186.419       97.859        0.276      347.302       26.169      857.835
06/01/2014  14:54:00      167.209      164.761        0.220      149.506       78.415       66.777    22351.936     6148.946     4459.210        4.403        1.648      234.745       40.471        0.030      347.046       25.729      857.827
06/01/2014  14:55:00       -1.641       96.660       -9.790       47.458       53.331       37.383     2252.287     2844.189     1397.459        0.797        0.325       96.674       28.324        0.086      346.887       25.458      857.819
06/01/2014  14:56:00       11.322       39.619        8.442       32.854       38.380       30.044     1079.357     1473.015      902.613        0.261        0.173       41.205       23.781        0.333      347.255       26.091      857.799
06/01/2014  14:57:00       86.737       21.603        6.945       57.012       50.170       39.811     3250.383     2517.039     1584.909        0.769        0.368       89.387       31.591        0.125      347.210       26.013      857.786
06/01/2014  14:58:00      119.096       -3.074       11.377       52.584       59.395       37.099     2765.067     3527.766     1376.329        1.099        0.383      119.136       22.365        0.035      347.277       26.129      857.774
06/01/2014  14:59:00      112.509        0.583       42.046      151.291      106.665       60.776    22889.050    11377.448     3693.728        2.619        1.898      112.511       45.725        0.165      347.582       26.655      857.747
06/01/2014  15:00:00      161.743       17.669       57.938       89.354       95.197       57.387     7984.086     9062.423     3293.259        2.508        1.017      162.705       47.666        0.086      347.356       26.263      857.730
06/01/2014  15:01:00      187.535      112.705       69.652      158.798       75.276       67.264    25216.920     5666.461     4524.499        4.406        1.770      218.796       60.425        0.076      347.503       26.517      857.702
06/01/2014  15:02:00      216.594      111.097       85.751      122.149       97.500       82.115    14920.286     9506.158     6742.893        4.888        1.558      243.424       69.707        0.082      347.231       26.047      857.682
06/01/2014  15:03:00      180.184      100.975        6.079       89.984       80.011       65.936     8097.150     6401.725     4347.549        3.077        0.942      206.548       26.951        0.017      347.082       25.790      857.684
06/01/2014  15:04:00      212.075      113.305      118.122      107.153      118.529       79.424    11481.857    14049.229     6308.113        5.180        1.592      240.445       49.896        0.043      347.322       26.203      857.678
06/01/2014  15:05:00       72.402     -154.364        7.689       94.819      130.835       54.237     8990.597    17117.749     2941.665        2.908        1.453      170.500       60.900        0.128      347.278       26.128      857.686
06/01/2014  15:06:00       60.777     -145.474       -4.279       61.643       70.573       44.846     3799.915     4980.496     2011.149        1.783        0.540      157.660       15.576        0.010      347.523       26.552      857.668
06/01/2014  15:07:00      108.592      -51.715       47.395       97.922      123.118       82.534     9588.643    15158.005     6811.942        2.413        1.578      120.278       84.286        0.491      347.773       26.982      857.646
06/01/2014  15:08:00       52.534      -41.007       54.885       81.295      121.543       64.877     6608.841    14772.637     4209.018        1.652        1.280       66.644       77.992        1.370      347.910       27.222      857.653
06/01/2014  15:09:00       71.014      -11.750       70.159      110.680      101.260       60.690    12250.164    10253.677     3683.323        1.814        1.309       71.979       59.171        0.676      347.983       27.347      857.653
06/01/2014  15:10:00      103.855       66.931      120.957      118.831      163.667      100.677    14120.775    26786.837    10135.831        4.046        2.552      123.554      126.600        1.050      347.363       26.276      857.665
06/01/2014  15:11:00       98.012       19.962       96.450      111.487       99.526       71.956    12429.296     9905.373     5177.727        2.340        1.376      100.024       78.334        0.613      347.473       26.465      857.658
06/01/2014  15:12:00       68.793       94.048      117.561       89.243       82.351       59.151     7964.389     6781.681     3498.841        2.282        0.912      116.522       53.730        0.213      347.430       26.392      857.657
06/01/2014  15:13:00       11.434       48.737       84.400       39.128       59.507       41.071     1531.026     3541.112     1686.810        0.819        0.338       50.060       41.373        0.683      347.704       26.867      857.645
06/01/2014  15:14:00       63.417      -11.396       19.386       45.512       40.521       33.278     2071.357     1641.967     1107.405        0.467        0.241       64.432       27.589        0.183      347.309       26.185      857.624
06/01/2014  15:15:00      -11.726      -28.083       24.129       38.837       53.225       34.606     1508.322     2832.948     1197.594        0.352        0.277       30.432       26.485        0.757      347.759       26.961      857.594
06/01/2014  15:16:00       25.008      -26.438       24.673       32.295       36.725       31.651     1042.948     1348.753     1001.758        0.266        0.170       36.392       18.118        0.248      347.817       27.061      857.584
06/01/2014  15:17:00      110.136       -1.807       47.872       75.672      108.566       63.341     5726.239    11786.510     4012.114        1.797        1.076      110.151       61.847        0.315      347.413       26.363      857.576
06/01/2014  15:18:00      113.032      -57.811       76.446      117.794      178.895       91.138    13875.407    32003.568     8306.167        3.806        2.709      126.958      110.210        0.754      347.403       26.343      857.524
06/01/2014  15:19:00      235.318     -205.943      -17.548      117.599      152.595       76.823    13829.449    23285.212     5901.731        7.055        2.151      312.710       87.188        0.078      347.253       26.085      857.540
06/01/2014  15:20:00      158.613     -114.554       45.378      133.682      189.451      114.596    17870.838    35891.644    13132.291        5.360        3.345      195.655      140.471        0.515      347.203       25.999      857.531
06/01/2014  15:21:00      106.337      -37.353       71.236      112.311      128.911       94.495    12613.649    16618.050     8929.306        2.796        1.908      112.707       94.290        0.700      347.267       26.110      857.539
06/01/2014  15:22:00       49.664       97.903      108.039       63.508       65.828       81.800     4033.258     4333.331     6691.213        1.939        0.753      109.780       47.774        0.189      347.299       26.167      857.558
06/01/2014  15:23:00        3.431      -63.762        5.105       34.194       45.444       39.608     1169.205     2065.174     1568.822        0.445        0.240       63.854       30.774        0.232      347.275       26.127      857.523
06/01/2014  15:24:00       50.276       46.835       28.578       71.180       44.100       51.341     5066.576     1944.806     2635.885        0.759        0.482       68.711       33.820        0.242      347.662       26.793      857.482
06/01/2014  15:25:00      -14.918       40.631       16.624       37.240       38.181       29.969     1386.835     1457.808      898.150        0.295        0.187       43.283       26.453        0.374      347.821       27.069      857.454
06/01/2014  15:26:00      -20.138       37.726       35.099       35.403       41.597       25.429     1253.341     1730.311      646.651        0.334        0.182       42.764       20.220        0.224      347.659       26.789      857.431
06/01/2014  15:27:00     -141.671     -129.113       -0.973       89.812       53.614       41.707     8066.154     2874.456     1739.449        2.471        0.634      191.679       24.983        0.017      347.318       26.198      857.417
06/01/2014  15:28:00     -177.527     -140.296       -2.504       87.398       66.370       50.270     7638.410     4405.016     2527.115        3.288        0.729      226.271       47.179        0.043      347.219       26.027      857.392
06/01/2014  15:29:00     -105.051      -12.845       -3.904       39.808       56.451       27.143     1584.699     3186.727      736.753        0.836        0.275      105.833       21.531        0.041      347.126       25.871      857.389
06/01/2014  15:30:00      -59.780      -13.483       -9.843       36.845       28.973       13.970     1357.534      839.453      195.151        0.312        0.120       61.282       11.332        0.034      347.265       26.109      857.386
06/01/2014  15:31:00      -57.082      -37.164       -1.266       62.788       78.679       33.193     3942.301     6190.363     1101.787        0.794        0.562       68.115       32.933        0.234      347.433       26.399      857.412
06/01/2014  15:32:00      -79.726      -30.130        2.479       42.270       42.149       32.078     1786.723     1776.498     1028.992        0.593        0.230       85.229       30.125        0.125      347.661       26.791      857.423
06/01/2014  15:33:00       29.587      -92.429       -5.477       58.554       94.180       31.732     3428.570     8869.855     1006.910        1.137        0.665       97.049       44.570        0.211      347.908       27.217      857.428
06/01/2014  15:34:00       78.205     -160.179       -3.058       89.592       67.684       49.792     8026.772     4581.158     2479.275        2.343        0.754      178.251       34.798        0.038      347.515       26.538      857.428
06/01/2014  15:35:00       16.545     -118.082       16.993       84.908      101.753       47.677     7209.362    10353.633     2273.053        1.717        0.992      119.236       60.177        0.255      347.622       26.723      857.428
06/01/2014  15:36:00       20.313      -89.896        4.598       65.155       71.273       42.070     4245.188     5079.799     1769.910        0.980        0.555       92.162       37.707        0.167      347.772       26.983      857.417
06/01/2014  15:37:00       54.469      -71.969       11.919       66.037       77.490       47.226     4360.950     6004.631     2230.340        1.044        0.630       90.257       48.479        0.289      347.860       27.137      857.415
06/01/2014  15:38:00       52.301      -13.851       59.703       55.157       82.372       55.642     3042.327     6785.227     3096.075        0.971        0.646       54.104       59.120        1.194      348.016       27.406      857.404
06/01/2014  15:39:00       86.237      -51.818       38.839       76.279      101.102       55.432     5818.546    10221.705     3072.744        1.537        0.956      100.607       66.229        0.433      347.811       27.050      857.417
06/01/2014  15:40:00       79.112     -198.108      -24.086       67.428       46.735       34.125     4546.497     2184.146     1164.504        2.699        0.395      213.321       30.157        0.020      347.768       26.974      857.419
06/01/2014  15:41:00      -38.180      -54.727       -7.418      106.211       85.507       41.802    11280.833     7311.409     1747.410        1.242        1.017       66.729       35.184        0.278      348.130       27.602      857.398
06/01/2014  15:42:00     -166.079     -121.532       13.431      135.883       78.993       59.770    18464.196     6239.948     3572.501        3.540        1.414      205.796       59.954        0.085      347.815       27.056      857.403
06/01/2014  15:43:00     -190.771     -203.018        4.642      131.756       91.885       61.086    17359.573     8442.849     3731.558        5.358        1.477      278.586       51.654        0.034      347.496       26.504      857.396
06/01/2014  15:44:00     -156.015     -203.923       -0.247      127.927      105.710       61.127    16365.208    11174.645     3736.534        4.859        1.564      256.759       60.622        0.056      347.373       26.292      857.391
06/01/2014  15:45:00     -137.038     -162.086       -0.714      105.076       79.463       66.501    11040.989     6314.321     4422.375        3.341        1.089      212.252       55.606        0.069      347.492       26.497      857.375
06/01/2014  15:46:00     -196.234     -145.945       -7.473      107.657       90.464       50.726    11589.922     8183.713     2573.176        4.110        1.117      244.556       45.953        0.035      347.390       26.322      857.374
06/01/2014  15:47:00     -103.288      -68.429      -10.189      110.305      100.227       40.776    12167.224    10045.403     1662.710        1.966        1.194      123.899       56.832        0.210      347.348       26.251      857.370
06/01/2014  15:48:00      108.836       70.008       53.272       91.043       63.447       41.221     8288.761     4025.478     1699.163        1.680        0.701      129.408       36.705        0.080      347.487       26.491      857.349
06/01/2014  15:49:00      126.211      116.031       -1.507       85.902       54.418       42.550     7379.191     2961.269     1810.472        2.077        0.608      171.442       31.067        0.033      347.121       25.859      857.324
06/01/2014  15:50:00       25.408      -10.150       10.927       41.415       51.952       36.531     1715.173     2698.993     1334.479        0.331        0.287       27.360       22.531        0.678      347.640       26.756      857.298
06/01/2014  15:51:00       29.120     -120.948        5.114       47.900       86.751       29.834     2294.413     7525.682      890.087        1.310        0.536      124.404       31.405        0.064      347.481       26.480      857.293
06/01/2014  15:52:00      -40.779      -82.393        2.712       55.645       71.064       33.065     3096.328     5050.055     1093.264        0.885        0.462       91.933       28.840        0.098      347.422       26.380      857.284
06/01/2014  15:53:00      -42.277     -123.612      -12.105       41.181       36.544       27.320     1695.889     1335.487      746.410        1.050        0.189      130.642       14.524        0.012      347.228       26.044      857.276
06/01/2014  15:54:00     -103.928      -16.975        7.468       46.558       37.929       26.722     2167.654     1438.605      714.057        0.773        0.216      105.305       22.515        0.046      347.821       27.067      857.251
06/01/2014  15:55:00      -29.872      -55.369       16.683       61.674       37.805       25.215     3803.699     1429.255      635.814        0.505        0.293       62.913       28.557        0.206      348.129       27.599      857.245
06/01/2014  15:56:00      -35.354      -51.313       -8.925       59.839       56.945       37.458     3580.752     3242.707     1403.100        0.609        0.411       62.313       30.480        0.239      347.780       26.997      857.238
06/01/2014  15:57:00      -18.099      -72.990       -1.266       67.681       85.058       50.386     4580.664     7234.834     2538.713        1.000        0.718       75.200       35.748        0.226      348.049       27.459      857.249
06/01/2014  15:58:00       -2.700       -0.900       53.846       62.828       67.705       52.906     3947.419     4583.944     2799.009        0.712        0.567        2.846       59.061      430.685      347.921       27.242      857.223
06/01/2014  15:59:00     -114.627      -90.328       -1.106      116.439       60.738       46.011    13558.009     3689.151     2117.056        2.033        0.968      145.940       52.867        0.131      347.802       27.033      857.206
06/01/2014  16:00:00     -163.352     -159.257      -14.252       84.565       72.191       39.059     7151.164     5211.488     1525.578        3.307        0.694      228.138       28.947        0.016      347.409       26.353      857.196
06/01/2014  16:01:00     -113.177     -152.373        1.344       96.720       99.866       54.637     9354.723     9973.144     2985.225        2.917        1.116      189.807       22.433        0.014      347.487       26.489      857.188
06/01/2014  16:02:00      -61.269      -74.674       -6.841       48.863      102.694       39.802     2387.558    10546.031     1584.188        1.194        0.726       96.592       49.090        0.258      347.345       26.247      857.195
06/01/2014  16:03:00       44.970     -123.464        7.211       90.196       74.341       61.731     8135.230     5526.614     3810.673        1.739        0.874      131.399       44.269        0.114      347.603       26.690      857.177
06/01/2014  16:04:00        7.571        4.902       31.240       33.084       52.177       42.075     1094.584     2722.405     1770.296        0.332        0.279        9.019       31.337       12.073      347.693       26.847      857.178
06/01/2014  16:05:00       -3.965      -66.858       19.497       62.032       70.415       35.729     3847.988     4958.218     1276.534        0.747        0.504       66.976       39.960        0.356      347.702       26.863      857.169
06/01/2014  16:06:00      100.059     -112.683       31.075       99.987      174.019       97.135     9997.312    30282.615     9435.131        3.669        2.486      150.696      103.905        0.475      347.518       26.543      857.125
06/01/2014  16:07:00       70.219      -65.716       30.676       81.063      114.629       60.137     6571.146    13139.770     3616.487        1.675        1.166       96.174       75.203        0.611      347.671       26.808      857.151
06/01/2014  16:08:00       53.235      -23.938       35.867       81.752      104.038       60.195     6683.431    10823.867     3623.457        1.291        1.057       58.369       66.469        1.297      347.886       27.179      857.158
06/01/2014  16:09:00       69.804       49.731       22.748       95.072      117.005       63.785     9038.632    13690.275     4068.549        1.732        1.340       85.708       67.492        0.620      347.292       26.153      857.130
06/01/2014  16:10:00     -139.046     -107.350      -13.096       65.274       44.016       35.524     4260.639     1937.407     1261.923        1.924        0.373      175.664       30.666        0.030      347.319       26.202      857.084
06/01/2014  16:11:00     -130.646      -84.768      -15.076       48.975       40.089       24.949     2398.559     1607.099      622.449        1.455        0.231      155.737       18.293        0.014      347.294       26.158      857.067
06/01/2014  16:12:00     -111.066      -11.971       -8.123       32.264       56.291       28.815     1040.970     3168.648      830.277        0.879        0.252      111.709       21.260        0.036      347.355       26.265      857.045
06/01/2014  16:13:00      -66.317       21.556       -7.184       35.502       34.859       22.128     1260.403     1215.118      489.633        0.394        0.148       69.732       16.316        0.055      347.533       26.571      857.028
06/01/2014  16:14:00       39.707      -43.305        3.673       39.488       34.274       32.474     1559.266     1174.678     1054.586        0.363        0.189       58.754       19.013        0.105      347.517       26.542      857.015
06/01/2014  16:15:00       56.057      -21.163       11.004       31.064       34.479       26.508      964.965     1188.795      702.673        0.328        0.143       59.919       27.733        0.214      347.587       26.665      856.996
06/01/2014  16:16:00      -57.820        7.025        3.924       48.368       34.670       26.475     2339.451     1201.998      700.928        0.382        0.212       58.245       25.224        0.188      347.720       26.894      856.950
06/01/2014  16:17:00      -29.234      -20.458       15.917       60.725       48.474       34.884     3687.522     2349.695     1216.921        0.439        0.363       35.682       37.764        1.120      348.047       27.458      856.939
06/01/2014  16:18:00        7.564      -60.798       -3.397       69.845       92.399       41.461     4878.262     8537.593     1719.032        0.945        0.757       61.267       37.570        0.376      347.939       27.272      856.920
06/01/2014  16:19:00       98.228     -124.975        4.427       69.175      106.520       48.830     4785.229    11346.412     2384.358        2.190        0.926      158.957       40.749        0.066      347.987       27.354      856.911
06/01/2014  16:20:00       73.314        9.615       72.691       76.802      101.573       58.567     5898.487    10317.167     3430.111        1.519        0.982       73.942       66.899        0.819      348.070       27.498      856.900
06/01/2014  16:21:00       38.147     -122.552      -12.552       59.779       48.360       37.958     3573.478     2338.676     1440.773        1.199        0.368      128.352       30.826        0.058      347.955       27.299      856.886
06/01/2014  16:22:00       48.035      -79.237        6.789       35.012       56.680       36.247     1225.859     3212.664     1313.810        0.719        0.288       92.660       34.018        0.135      348.023       27.417      856.893
06/01/2014  16:23:00       78.967      -88.991       22.632       88.062       96.422       57.266     7754.992     9297.152     3279.394        1.750        1.017      118.976       62.111        0.273      347.989       27.356      856.895
06/01/2014  16:24:00       44.034       55.168       51.449       74.365       52.735       51.813     5530.170     2780.975     2684.625        0.931        0.550       70.587       39.313        0.310      347.972       27.328      856.876
06/01/2014  16:25:00       30.954       39.330       25.803       55.885       44.644       37.725     3123.175     1993.069     1423.165        0.485        0.327       50.049       27.294        0.297      348.139       27.617      856.862
06/01/2014  16:26:00       40.127       11.681       86.023       84.316      109.351       81.394     7109.221    11957.533     6625.041        1.741        1.285       41.793       74.263        3.157      348.254       27.815      856.849
06/01/2014  16:27:00       74.541     -112.098       23.627      104.558      134.538       83.511    10932.435    18100.557     6974.061        2.734        1.800      134.620       89.817        0.445      347.954       27.295      856.833
06/01/2014  16:28:00       81.252      -21.751       67.635      109.389       95.945       63.103    11965.930     9205.502     3982.015        1.840        1.258       84.113       61.843        0.541      348.133       27.608      856.812
06/01/2014  16:29:00      224.190     -168.106       -7.964      137.115      169.339      110.591    18800.421    28675.765    12230.360        6.913        2.985      280.215      113.450        0.164      347.780       26.994      856.780
06/01/2014  16:30:00       71.269      -20.052       53.776       86.100      109.768       95.314     7413.252    12048.985     9084.786        1.845        1.427       74.036       71.384        0.930      347.714       26.882      856.780
06/01/2014  16:31:00       64.316      -67.619       22.025       64.920       66.359       54.941     4214.666     4403.502     3018.527        1.041        0.582       93.321       44.061        0.223      347.706       26.870      856.783
06/01/2014  16:32:00      -21.361      -77.706       -1.651      110.561       67.079       36.951    12223.689     4499.542     1365.378        1.229        0.904       80.589       27.664        0.118      347.896       27.196      856.785
06/01/2014  16:33:00      -42.409      -22.026        6.894      101.141       76.634       43.952    10229.470     5872.778     1931.743        1.018        0.902       47.788       45.546        0.908      347.953       27.295      856.774
06/01/2014  16:34:00       14.115     -106.561        5.382       74.538       76.542       43.732     5555.899     5858.606     1912.490        1.245        0.666      107.492       39.260        0.133      348.098       27.545      856.784
06/01/2014  16:35:00       55.044     -124.553       -2.147       77.981       86.342       49.362     6081.021     7454.929     2436.574        1.726        0.799      136.174       52.883        0.151      348.096       27.541      856.786
06/01/2014  16:36:00      147.318     -154.403      -33.408       80.856       99.875       62.324     6537.759     9975.010     3884.231        3.352        1.020      213.408       52.852        0.061      347.754       26.949      856.776
06/01/2014  16:37:00       61.896      -61.955       25.376       64.931       65.837       46.566     4216.094     4334.509     2168.439        0.951        0.536       87.576       37.347        0.182      348.018       27.409      856.783
06/01/2014  16:38:00      135.263      -22.439       47.991      114.671      106.303       73.627    13149.356    11300.302     5420.883        2.548        1.494      137.111       84.142        0.377      347.955       27.298      856.774
06/01/2014  16:39:00      103.181       69.625       66.734       76.515       68.900       71.594     5854.579     4747.254     5125.767        1.783        0.786      124.475       62.801        0.255      347.598       26.682      856.783
06/01/2014  16:40:00      178.821      113.560       45.740       98.814       59.448       55.920     9764.217     3534.044     3127.017        3.169        0.821      211.832       50.896        0.058      347.632       26.740      856.775
06/01/2014  16:41:00      109.696       65.982       32.876       73.564       67.492       47.240     5411.709     4555.218     2231.609        1.483        0.610      128.011       30.909        0.058      347.724       26.900      856.812
06/01/2014  16:42:00       58.599       39.000        9.255       56.554       39.504       30.482     3198.311     1560.550      929.137        0.536        0.284       70.391       18.610        0.070      347.680       26.823      856.850
06/01/2014  16:43:00      -84.212       44.138      -11.081       57.769       51.435       22.617     3337.276     2645.566      511.513        0.783        0.325       95.078       22.780        0.057      347.933       27.262      856.870
06/01/2014  16:44:00     -103.935       64.753        6.877       79.082       94.659       41.822     6253.937     8960.233     1749.078        1.600        0.848      122.455       24.833        0.041      348.233       27.777      856.873
06/01/2014  16:45:00      -12.603      -29.646        6.167       79.492       43.172       39.223     6318.958     1863.840     1538.428        0.540        0.486       32.214       38.492        1.428      348.179       27.688      856.859
06/01/2014  16:46:00     -255.277      -77.433       -1.217      128.817       86.882       43.766    16593.865     7548.443     1915.482        4.861        1.303      266.762       46.491        0.030      347.845       27.106      856.839
06/01/2014  16:47:00     -311.393     -117.947      -22.963      123.021      119.077       66.291    15134.246    14179.392     4394.517        7.255        1.685      332.982       56.573        0.029      348.017       27.402      856.818
06/01/2014  16:48:00     -233.183     -151.513       15.946      175.587      117.941       81.576    30830.823    13910.059     6654.656        6.448        2.570      278.084       91.784        0.109      347.920       27.237      856.784
06/01/2014  16:49:00     -179.258      -63.624        1.899      104.788      101.141       51.252    10980.601    10229.496     2626.783        3.001        1.192      190.214       53.562        0.079      348.057       27.475      856.775
06/01/2014  16:50:00     -253.201      -19.718      -18.869       88.807       71.401       51.554     7886.609     5098.140     2657.782        4.025        0.782      253.968       52.585        0.043      347.902       27.204      856.775
06/01/2014  16:51:00     -264.387        0.472      -31.714       99.556      106.702       52.536     9911.443    11385.395     2760.033        4.748        1.203      264.388       41.517        0.025      347.978       27.335      856.739
06/01/2014  16:52:00     -384.023      -99.690       -8.215      156.121      133.076       73.250    24373.795    17709.163     5365.528       10.245        2.372      396.751       78.457        0.039      347.855       27.121      856.773
06/01/2014  16:53:00     -399.085     -132.137      -21.612      150.684      113.810       72.621    22705.601    12952.614     5273.849       10.906        2.047      420.391       63.483        0.023      347.787       27.005      856.768
06/01/2014  16:54:00     -328.811     -183.116      -13.133      214.757      135.269       87.540    46120.441    18297.692     7663.181       10.694        3.604      376.362      103.608        0.076      347.829       27.078      856.740
06/01/2014  16:55:00     -288.059     -182.232       -0.448      178.848      134.234       63.477    31986.620    18018.637     4029.292        8.510        2.702      340.862       74.723        0.048      347.781       26.997      856.720
06/01/2014  16:56:00     -312.299     -135.825        5.259      161.925      130.133       86.840    26219.707    16934.529     7541.227        8.334        2.535      340.557       94.937        0.078      347.924       27.241      856.688
06/01/2014  16:57:00     -233.701     -138.672       13.220      143.950      104.234       68.742    20721.601    10864.800     4725.483        5.516        1.816      271.746       81.653        0.090      347.993       27.362      856.692
06/01/2014  16:58:00     -154.547     -139.938        7.076      117.682      111.532       62.240    13849.155    12439.422     3873.805        3.683        1.508      208.489       62.700        0.090      347.920       27.236      856.693
06/01/2014  16:59:00     -276.169     -110.999      -15.623      125.628       95.309       62.690    15782.385     9083.744     3930.035        5.881        1.440      297.641       68.993        0.054      347.940       27.269      856.696
06/01/2014  17:00:00     -398.812      -82.006      -15.044      164.933      143.516       75.088    27202.793    20596.789     5638.143       10.971        2.672      407.156       72.371        0.032      347.985       27.348      856.698
06/01/2014  17:01:00     -328.952     -185.094       -8.233      154.967      140.172       83.904    24014.822    19648.302     7039.914        9.661        2.535      377.451       97.075        0.066      347.999       27.370      856.685
06/01/2014  17:02:00     -141.374     -164.293       22.353      150.600      102.333       75.702    22680.245    10472.139     5730.791        4.317        1.944      216.746       80.098        0.137      348.122       27.586      856.694
06/01/2014  17:03:00      -63.548      -17.758       11.255      137.873       84.015       64.329    19008.953     7058.478     4138.192        1.734        1.510       65.982       72.228        1.198      348.315       27.920      856.681
06/01/2014  17:04:00     -426.678     -133.953      -27.059      163.406      114.811       63.778    26701.648    13181.453     4067.631       12.233        2.198      447.211       67.616        0.023      347.949       27.285      856.706
06/01/2014  17:05:00     -171.101      -62.147      -10.764      124.167       84.207       50.108    15417.407     7090.811     2510.858        2.913        1.251      182.038       51.414        0.080      347.933       27.259      856.681
06/01/2014  17:06:00     -173.052      -90.154       -9.158      147.926       84.048       53.528    21881.959     7064.114     2865.272        3.498        1.591      195.127       56.747        0.085      348.207       27.731      856.673
06/01/2014  17:07:00     -143.360       -8.184        8.672      109.096       79.342       61.535    11901.940     6295.077     3786.602        2.133        1.099      143.593       48.164        0.113      348.279       27.857      856.669
06/01/2014  17:08:00     -199.309      -12.587      -30.782      123.232       99.659       56.164    15186.008     9931.963     3154.362        3.455        1.414      199.706       45.303        0.051      348.287       27.870      856.673
06/01/2014  17:09:00     -276.653      -69.364      -20.024      105.854       87.937       53.866    11204.976     7732.912     2901.581        5.179        1.092      285.216       43.788        0.024      347.949       27.285      856.690
06/01/2014  17:10:00     -121.872      -51.589        4.517       80.890       91.837       48.140     6543.237     8434.101     2317.418        1.741        0.865      132.341       30.804        0.054      348.182       27.691      856.680
06/01/2014  17:11:00     -155.658      -28.122       -7.874      124.082       84.736       58.667    15396.291     7180.167     3441.875        2.555        1.301      158.178       54.956        0.121      348.142       27.622      856.669
06/01/2014  17:12:00     -390.224       20.269      -31.228      117.737      171.925       65.450    13862.033    29558.376     4283.673       10.067        2.385      390.750       60.875        0.024      347.910       27.218      856.676
06/01/2014  17:13:00     -323.012       -2.099      -22.680      142.001       82.457       54.499    20164.158     6799.216     2970.146        6.739        1.497      323.019       64.477        0.040      347.919       27.234      856.698
06/01/2014  17:14:00     -156.946      -25.797        5.255      130.130      102.811       62.183    16933.775    10570.062     3866.785        2.834        1.569      159.052       71.014        0.199      348.138       27.614      856.685
06/01/2014  17:15:00     -307.251      -75.292       27.807      298.384      186.496      109.919    89032.900    34780.725    12082.248       11.834        6.795      316.341      148.472        0.220      348.105       27.556      856.713
06/01/2014  17:16:00     -432.945      -15.493      -37.742      140.969      140.543       61.450    19872.275    19752.396     3776.055       11.624        2.170      433.222       54.859        0.016      347.709       26.872      856.745
06/01/2014  17:17:00     -366.425      -16.519      -13.792      176.634      154.782       77.068    31199.599    23957.415     5939.524        9.790        3.055      366.797       85.526        0.054      347.925       27.245      856.716
06/01/2014  17:18:00     -353.811     -150.989      -20.394      166.966      133.564       81.161    27877.703    17839.372     6587.157       10.034        2.615      384.681       79.024        0.042      347.855       27.121      856.709
06/01/2014  17:19:00     -273.476     -114.731      -23.701      105.788       82.009       47.783    11191.012     6725.557     2283.169        5.435        1.010      296.567       48.835        0.027      347.583       26.654      856.689
06/01/2014  17:20:00     -329.387       31.715      -38.863      149.636       65.647       51.282    22390.863     4309.508     2629.819        7.016        1.467      330.910       64.278        0.038      347.955       27.296      856.689
06/01/2014  17:21:00     -184.643      -50.134      -19.268      117.718      113.989       56.950    13857.522    12993.511     3243.313        3.353        1.505      191.328       52.838        0.076      348.045       27.452      856.721
06/01/2014  17:22:00     -173.732      -45.209      -12.476      139.427      109.753       69.801    19440.008    12045.709     4872.162        3.436        1.818      179.518       58.716        0.107      348.211       27.739      856.713
06/01/2014  17:23:00     -447.691       57.922      -44.654      234.084      118.218       76.367    54795.096    13975.495     5831.869       14.017        3.730      451.423       86.964        0.037      347.812       27.051      856.683
06/01/2014  17:24:00     -342.298       24.193      -21.840      187.232      235.707       85.860    35055.794    55557.595     7372.000       10.809        4.899      343.152       86.879        0.064      347.966       27.314      856.645
06/01/2014  17:25:00     -438.265     -196.931      -13.867      164.029      139.179       80.672    26905.639    19370.809     6508.049       14.191        2.639      480.477       81.513        0.029      347.856       27.125      856.650
06/01/2014  17:26:00     -275.128      -90.482       -5.638      141.567      105.142       73.117    20041.260    11054.903     5346.099        6.017        1.822      289.625       72.175        0.062      347.965       27.313      856.681
06/01/2014  17:27:00     -225.380      -50.890      -11.666      120.590      139.752       60.963    14541.883    19530.735     3716.435        4.565        1.889      231.054       38.233        0.027      347.992       27.360      856.710
06/01/2014  17:28:00     -448.492     -300.797      -21.218      265.051      185.930      104.131    70252.138    34569.784    10843.222       20.385        5.783      540.022      124.555        0.053      347.721       26.893      856.723
06/01/2014  17:29:00     -345.787     -189.105      -12.825      206.205      136.884       77.112    42520.690    18737.199     5946.329       11.134        3.360      394.119       98.425        0.062      347.611       26.702      856.715
06/01/2014  17:30:00     -260.291     -147.833      -13.615      113.892      114.876       74.338    12971.415    13196.503     5526.155        6.074        1.585      299.342       60.439        0.041      347.779       26.992      856.698
06/01/2014  17:31:00     -268.694      -69.877       -8.673      167.625      118.507       79.764    28098.143    14043.842     6362.238        6.282        2.425      277.632       66.856        0.058      347.763       26.965      856.682
06/01/2014  17:32:00     -233.026      -61.610        2.232      124.113      107.848       61.181    15404.015    11631.228     3743.124        4.443        1.539      241.033       56.801        0.056      347.747       26.938      856.682
06/01/2014  17:33:00     -369.416      -91.149      -13.678      163.290      120.923       66.856    26663.707    14622.456     4469.742        9.535        2.288      380.495       68.326        0.032      347.936       27.262      856.685
06/01/2014  17:34:00     -336.069     -118.351      -19.291      235.338      150.266       92.972    55384.040    22579.884     8643.875       10.695        4.330      356.300      126.156        0.125      347.754       26.950      856.698
06/01/2014  17:35:00     -386.801      -44.794       -6.253      189.135      161.771       91.502    35772.163    26169.964     8372.701       11.097        3.516      389.386       82.862        0.045      347.769       26.975      856.672
06/01/2014  17:36:00     -369.701     -126.654       -6.592      192.134      170.301       89.059    36915.427    29002.396     7931.523       11.329        3.692      390.795      101.421        0.067      347.740       26.924      856.649
06/01/2014  17:37:00     -402.664      -54.600      -24.313      228.480      121.194       83.828    52203.220    14687.912     7027.180       11.980        3.696      406.349      111.668        0.076      347.736       26.920      856.671
06/01/2014  17:38:00     -654.176      -97.227      -41.196      203.938      151.508       97.791    41590.818    22954.644     9563.133       25.659        3.705      661.362       79.832        0.015      347.617       26.713      856.685
06/01/2014  17:39:00     -563.399       47.031      -44.814      167.012      145.774       71.758    27893.153    21250.148     5149.242       18.795        2.715      565.359       72.834        0.017      347.595       26.673      856.709
06/01/2014  17:40:00     -327.474       -8.155      -24.559      161.594      107.313       63.484    26112.646    11516.062     4030.253        7.478        2.083      327.575       57.957        0.031      347.704       26.863      856.688
06/01/2014  17:41:00     -428.776      -45.739      -29.038      151.815      127.839       65.026    23047.714    16342.741     4228.428       11.519        2.181      431.209       64.812        0.023      347.733       26.911      856.660
06/01/2014  17:42:00     -342.984      -87.870      -16.578      116.709      125.142       58.781    13620.978    15660.501     3455.150        7.918        1.637      354.061       56.477        0.025      347.761       26.961      856.635
06/01/2014  17:43:00     -324.356      -69.026      -15.487      181.039      137.294       70.622    32775.016    18849.747     4987.522        8.340        2.831      331.619       82.399        0.062      347.825       27.072      856.628
06/01/2014  17:44:00     -428.283     -122.574       -5.937      167.112      138.556       85.180    27926.299    19197.635     7255.668       12.642        2.719      445.478       77.184        0.030      347.636       26.745      856.625
06/01/2014  17:45:00     -358.595      -58.813      -11.342      179.065      138.978       80.452    32064.255    19314.905     6472.603        9.500        2.893      363.386       75.073        0.043      347.787       27.006      856.617
06/01/2014  17:46:00     -358.691      -87.323      -19.045      226.427      183.581       84.507    51269.405    33702.031     7141.355       11.436        4.606      369.167       85.231        0.053      347.673       26.809      856.605
06/01/2014  17:47:00     -207.935     -133.848        4.028      169.005      154.853       95.600    28562.608    23979.409     9139.402        6.141        3.084      247.290      100.531        0.165      347.688       26.836      856.600
06/01/2014  17:48:00     -248.803     -201.018       -7.620      185.089      151.695       92.494    34257.988    23011.516     8555.094        8.408        3.291      319.861       97.222        0.092      347.631       26.737      856.596
06/01/2014  17:49:00      -80.180      -25.209       18.339      150.595      114.604       73.754    22678.942    13134.064     5439.704        2.432        2.063       84.050       61.213        0.530      347.877       27.162      856.599
06/01/2014  17:50:00     -433.662      -73.311      -12.655      175.774      118.526       70.105    30896.326    14048.472     4914.766       12.172        2.493      439.815       89.017        0.041      347.635       26.744      856.623
06/01/2014  17:51:00     -371.101      -69.899      -22.788      165.189      127.399       65.374    27287.397    16230.392     4273.768        9.545        2.390      377.627       70.734        0.035      347.542       26.584      856.598
06/01/2014  17:52:00     -301.137      -22.615      -15.533      152.524      138.448       71.420    23263.677    19167.828     5100.794        6.947        2.377      301.985       80.467        0.071      347.617       26.712      856.575
06/01/2014  17:53:00     -220.767      -10.065       -6.287       93.514      106.086       46.425     8744.871    11254.220     2155.272        3.551        1.108      220.997       46.150        0.044      347.778       26.992      856.548
06/01/2014  17:54:00     -238.020      -60.202      -13.511      163.761       73.257       57.528    26817.522     5366.516     3309.525        4.797        1.775      245.516       79.123        0.104      347.593       26.672      856.560
06/01/2014  17:55:00     -143.501     -297.022       -4.147       95.047      171.262       71.508     9033.955    29330.744     5113.341        7.615        2.174      329.870       54.011        0.027      347.730       26.906      856.572
06/01/2014  17:56:00     -449.476     -215.021      -13.553      187.654      146.400       85.428    35214.178    21433.042     7297.977       15.618        3.197      498.260       89.101        0.032      347.602       26.687      856.568
06/01/2014  17:57:00     -357.989     -168.565       -2.284      201.062      162.016       84.331    40425.988    26249.102     7111.654       11.517        3.689      395.690       87.879        0.049      347.578       26.645      856.559
06/01/2014  17:58:00     -343.830     -321.807       -1.187      181.595      140.961       84.399    32976.590    19870.087     7123.190       14.086        2.998      470.934       76.223        0.026      347.524       26.551      856.525
06/01/2014  17:59:00     -515.982     -207.754      -17.633      255.363      190.480       97.232    65210.439    36282.515     9454.003       21.031        5.547      556.237      124.391        0.050      347.538       26.577      856.545
06/01/2014  18:00:00     -357.713     -133.188      -20.217      149.987      132.042       84.559    22496.150    17435.191     7150.208        9.658        2.354      381.704       76.113        0.040      347.645       26.759      856.588
06/01/2014  18:01:00     -264.020      -82.168       -2.448      182.534      111.557       73.576    33318.609    12444.879     5413.490        6.381        2.559      276.511       87.824        0.101      347.573       26.637      856.588
06/01/2014  18:02:00     -162.406      -63.968       13.649      147.364      100.788       66.756    21716.294    10158.204     4456.339        3.349        1.817      174.550       77.545        0.197      347.555       26.606      856.569
06/01/2014  18:03:00     -234.242     -170.532        9.903      168.324      134.083       72.033    28332.993    17978.170     5188.760        6.776        2.575      289.742       77.946        0.072      347.623       26.725      856.572
06/01/2014  18:04:00     -185.652     -109.536       14.990      246.566      175.734      106.564    60794.700    30882.378    11355.792        7.484        5.152      215.557      132.508        0.378      347.657       26.781      856.564
06/01/2014  18:05:00     -379.797     -262.777      -30.578      173.217      100.591       83.934    30004.266    10118.626     7044.861       13.069        2.358      461.841       93.062        0.041      347.487       26.488      856.580
06/01/2014  18:06:00     -331.490     -195.518       -7.974      165.816      129.092       82.106    27494.995    16664.688     6741.451        9.953        2.545      384.854       86.452        0.050      347.551       26.599      856.568
06/01/2014  18:07:00     -332.060     -168.229      -22.925      206.428      148.587       77.601    42612.524    22078.225     6021.880       10.489        3.536      372.244       89.551        0.058      347.479       26.475      856.564
06/01/2014  18:08:00     -296.911     -112.009      -19.176      146.825      115.604       66.144    21557.606    13364.179     4375.016        7.018        1.965      317.336       61.466        0.038      347.510       26.528      856.581
06/01/2014  18:09:00     -264.611      -78.609        2.148      194.316      131.576       85.071    37758.605    17312.288     7237.121        6.924        3.115      276.040       99.157        0.129      347.570       26.631      856.579
06/01/2014  18:10:00     -334.186     -172.019        4.235      176.707      149.163       77.579    31225.293    22249.457     6018.501       10.038        2.975      375.861       80.781        0.046      347.499       26.509      856.558
06/01/2014  18:11:00     -408.865     -241.162        2.560      207.511      160.014       92.550    43060.732    25604.562     8565.570       15.127        3.862      474.689       97.261        0.042      347.471       26.459      856.553
06/01/2014  18:12:00     -385.002     -270.305        5.937      234.837      158.291      106.461    55148.578    25056.036    11333.849       15.641        4.577      470.416      117.185        0.062      347.425       26.381      856.537
06/01/2014  18:13:00     -441.583     -213.439      -13.277      210.508      171.457       94.236    44313.741    29397.569     8880.402       16.164        4.130      490.461      103.591        0.045      347.388       26.316      856.550
06/01/2014  18:14:00     -266.779     -196.673       13.231      183.192      201.038      108.828    33559.344    40416.377    11843.615        9.791        4.291      331.438      113.711        0.118      347.453       26.430      856.553
06/01/2014  18:15:00     -395.814     -226.015      -22.154      198.308      160.798       75.581    39326.245    25855.840     5712.536       13.955        3.545      455.797       88.093        0.037      347.397       26.334      856.562
06/01/2014  18:16:00     -316.851     -199.038        1.456      195.697      143.083       81.794    38297.459    20472.625     6690.214       10.272        3.273      374.180       92.630        0.061      347.398       26.334      856.562
06/01/2014  18:17:00     -400.236     -172.914      -14.501      174.199      145.099       83.029    30345.121    21053.845     6893.805       12.428        2.915      435.991       93.253        0.046      347.404       26.347      856.564
06/01/2014  18:18:00     -396.696     -312.623       -9.761      216.096      189.069      100.510    46697.571    35747.228    10102.288       17.385        4.627      505.076      113.526        0.051      347.332       26.221      856.551
06/01/2014  18:19:00     -427.713     -294.360       -4.275      173.175      153.608       85.103    29989.623    23595.477     7242.527       16.520        3.041      519.217       88.454        0.029      347.294       26.156      856.530
06/01/2014  18:20:00     -368.595     -168.561       -4.725      179.948      162.203       84.996    32381.151    26309.695     7224.283       11.509        3.296      405.308       90.934        0.050      347.363       26.273      856.531
06/01/2014  18:21:00     -284.214     -120.372        8.341      164.975      149.158       77.341    27216.899    22248.127     5981.693        7.538        2.772      308.653       77.196        0.063      347.459       26.439      856.566
06/01/2014  18:22:00     -341.580     -189.839        9.347      186.526      146.429       83.280    34791.911    21441.567     6935.496       10.797        3.158      390.788       86.133        0.049      347.416       26.367      856.565
06/01/2014  18:23:00     -205.506      -91.486        4.212      212.910      145.505       89.072    45330.785    21171.842     7933.740        6.251        3.722      224.950      109.171        0.236      347.449       26.423      856.561
06/01/2014  18:24:00     -314.835     -222.503       -3.771      175.619      132.205       72.938    30842.182    17478.180     5319.915       10.113        2.682      385.524       83.870        0.047      347.336       26.228      856.538
06/01/2014  18:25:00     -323.965     -215.748      -30.528      184.047      134.177       79.548    33873.341    18003.586     6327.864       10.531        2.910      389.231       88.223        0.051      347.409       26.354      856.534
06/01/2014  18:26:00     -428.061     -168.407      -27.769      213.790      206.277       86.836    45706.096    42550.009     7540.449       15.406        4.790      459.997       83.651        0.033      347.446       26.417      856.526
06/01/2014  18:27:00     -289.946     -110.708        1.792      230.205      148.364       81.439    52994.517    22011.847     6632.341        8.897        4.082      310.363      107.246        0.119      347.420       26.373      856.511
06/01/2014  18:28:00     -327.307     -133.536      -13.135      175.015      152.626       94.142    30630.349    23294.700     8862.661        9.395        3.139      353.499      100.732        0.081      347.379       26.300      856.503
06/01/2014  18:29:00     -216.613      -57.446        7.057      144.236      136.204       78.510    20804.087    18551.561     6163.836        4.789        2.276      224.101       65.349        0.085      347.483       26.482      856.492
06/01/2014  18:30:00     -317.847      -56.279        6.036      174.434      125.240       75.055    30427.086    15685.099     5633.296        7.798        2.587      322.791       76.830        0.057      347.449       26.424      856.484
06/01/2014  18:31:00     -270.080     -156.675        0.016      188.922      114.173       60.242    35691.652    13035.370     3629.156        7.491        2.618      312.235       77.292        0.061      347.473       26.464      856.501
06/01/2014  18:32:00     -342.116     -154.653       -3.373      188.196      102.091       78.135    35417.761    10422.522     6105.067        9.645        2.597      375.447       88.219        0.055      347.420       26.372      856.485
06/01/2014  18:33:00     -380.257     -260.015        0.610      242.256      177.414      101.670    58688.062    31475.851    10336.853       15.633        5.025      460.655      100.843        0.048      347.366       26.279      856.484
06/01/2014  18:34:00     -514.823     -321.337      -13.499      240.800      193.037      120.878    57984.483    37263.284    14611.530       23.915        5.493      606.878      136.199        0.050      347.243       26.068      856.491
06/01/2014  18:35:00     -418.076     -280.502       13.331      228.368      185.170      114.909    52152.053    34287.899    13204.183       17.663        4.982      503.457      127.396        0.064      347.187       25.972      856.484
06/01/2014  18:36:00     -431.170     -237.631      -28.613      198.567      189.019       91.525    39428.680    35728.345     8376.820       16.335        4.177      492.317       91.891        0.035      347.179       25.957      856.484
06/01/2014  18:37:00     -327.920     -153.892      -20.232      171.453      165.257       78.489    29396.000    27309.827     6160.450        9.723        3.143      362.235       76.304        0.044      347.279       26.130      856.508
06/01/2014  18:38:00     -332.785     -178.375      -13.123      170.639      181.364       91.509    29117.541    32893.024     8373.867       10.655        3.519      377.576       97.864        0.067      347.272       26.116      856.507
06/01/2014  18:39:00     -448.911     -108.522      -14.661      162.295      141.384       75.540    26339.770    19989.494     5706.228       13.276        2.602      461.842       77.186        0.028      347.244       26.068      856.523
06/01/2014  18:40:00     -327.889       58.001      -22.669      155.996      114.329       72.636    24334.859    13071.142     5275.937        7.703        2.134      332.979       69.886        0.044      347.341       26.237      856.542
06/01/2014  18:41:00      -67.421      -80.660       35.170      133.484      102.207       94.704    17818.014    10446.193     8968.778        2.475        1.862      105.126       90.895        0.748      347.369       26.286      856.525
06/01/2014  18:42:00     -130.398     -104.592        0.827      122.463      106.105       60.592    14997.251    11258.222     3671.378        2.893        1.496      167.162       71.727        0.184      347.242       26.066      856.506
06/01/2014  18:43:00     -263.091      -82.768      -13.082      134.766      122.570       65.337    18161.885    15023.456     4268.913        5.684        1.873      275.803       67.877        0.061      347.359       26.267      856.526
06/01/2014  18:44:00     -384.609     -236.284      -14.919      160.400      128.236       78.587    25728.130    16444.415     6175.865       12.615        2.417      451.391       74.261        0.027      347.253       26.084      856.541
06/01/2014  18:45:00     -269.911     -145.051       -5.898      167.913      116.231       70.901    28194.709    13509.590     5026.881        7.032        2.337      306.418       74.433        0.059      347.279       26.128      856.532
06/01/2014  18:46:00     -521.990     -253.241      -21.119      171.459      130.932       91.648    29398.199    17143.106     8399.366       19.598        2.747      580.176       82.182        0.020      347.162       25.930      856.519
06/01/2014  18:47:00     -246.833     -213.661       18.663      186.229      200.562       93.547    34681.177    40224.986     8751.098        9.527        4.183      326.462      100.576        0.095      347.196       25.988      856.522
06/01/2014  18:48:00     -483.195     -321.951       -3.598      220.954      155.907      103.501    48820.612    24306.860    10712.354       21.047        4.192      580.629      106.693        0.034      347.091       25.805      856.498
06/01/2014  18:49:00     -502.248     -308.566      -12.103      214.626      176.319      104.981    46064.452    31088.286    11021.023       21.788        4.409      589.462      103.505        0.031      347.122       25.859      856.478
06/01/2014  18:50:00     -483.683     -232.325       -8.384      202.663      161.908       98.783    41072.383    26214.332     9758.153       18.250        3.852      536.585      107.248        0.040      347.144       25.898      856.491
06/01/2014  18:51:00     -399.196     -128.042       -8.895      176.185      132.978       75.793    31041.160    17683.149     5744.629       11.514        2.723      419.228       84.966        0.041      347.194       25.984      856.512
06/01/2014  18:52:00     -395.582     -128.515       -0.809      217.861      124.229       83.283    47463.558    15432.767     6935.993       12.140        3.492      415.934       98.818        0.056      347.142       25.893      856.527
06/01/2014  18:53:00     -276.568      -55.692      -16.748      162.957      117.326       72.926    26554.841    13765.497     5318.237        6.275        2.282      282.120       64.106        0.052      347.189       25.975      856.525
06/01/2014  18:54:00     -431.031      -94.441      -20.658      170.034      144.033       74.420    28911.478    20745.368     5538.405       12.515        2.760      441.256       81.982        0.035      347.186       25.969      856.534
06/01/2014  18:55:00     -282.714      -73.958        1.514      183.847      119.896       75.286    33799.606    14375.020     5668.007        6.961        2.692      292.227       86.311        0.087      347.184       25.967      856.532
06/01/2014  18:56:00     -220.731      -81.147       22.558      150.619      143.510       66.346    22686.145    20595.104     4401.844        5.174        2.384      235.175       65.820        0.078      347.193       25.983      856.549
06/01/2014  18:57:00     -394.456      -81.906      -11.365      184.481      139.916       68.632    34033.302    19576.368     4710.288       11.036        2.916      402.870       82.851        0.042      347.127       25.869      856.549
06/01/2014  18:58:00     -406.977       25.459      -22.061      142.881      117.360       72.977    20415.118    13773.304     5325.662       10.313        1.976      407.773       72.687        0.032      347.106       25.830      856.539
06/01/2014  18:59:00     -190.807      -75.134        4.656      108.182      120.800       62.947    11703.452    14592.621     3962.330        3.616        1.513      205.067       56.285        0.075      347.187       25.973      856.538
06/01/2014  19:00:00     -105.083      -50.489       14.088      133.731      114.641       75.929    17883.983    13142.468     5765.228        2.528        1.840      116.583       83.598        0.514      347.150       25.907      856.535
06/01/2014  19:01:00     -339.554      -66.262       -9.930      195.215      109.442       71.596    38108.711    11977.483     5125.980        8.749        2.761      345.959       86.684        0.063      347.131       25.873      856.541
06/01/2014  19:02:00     -302.713     -170.871       -7.579      176.005      164.761       88.690    30977.903    27146.268     7865.837        9.343        3.300      347.609       94.479        0.074      347.032       25.705      856.525
06/01/2014  19:03:00     -436.020      -90.583      -26.182      132.359      104.246       69.666    17518.979    10867.128     4853.356       11.612        1.662      445.330       75.533        0.029      347.035       25.710      856.514
06/01/2014  19:04:00     -399.860     -118.938      -15.265      209.540      172.958       91.219    43907.061    29914.629     8320.829       12.819        4.107      417.174      102.321        0.060      347.048       25.730      856.496
06/01/2014  19:05:00     -358.866      -62.677       -5.618      190.170      165.338       90.955    36164.717    27336.698     8272.759       10.225        3.589      364.298       96.074        0.070      347.029       25.699      856.476
06/01/2014  19:06:00     -249.752     -176.435       -2.010      148.598      122.052       74.740    22081.226    14896.718     5586.048        6.803        2.128      305.787       83.361        0.074      347.066       25.764      856.496
06/01/2014  19:07:00     -266.712     -135.636       -7.037      161.614      109.531       62.841    26119.142    11996.962     3948.995        6.582        2.103      299.220       65.090        0.047      347.076       25.780      856.510
06/01/2014  19:08:00     -313.683     -193.212       -2.816      182.061      151.566       96.807    33146.100    22972.192     9371.556       10.060        3.274      368.413       98.173        0.071      347.049       25.733      856.498
06/01/2014  19:09:00     -291.092     -183.873        2.353      160.232      139.392       79.594    25674.302    19430.212     6335.251        8.498        2.572      344.302       87.394        0.064      347.044       25.724      856.513
06/01/2014  19:10:00     -353.203     -224.243      -17.866      180.131      204.994       95.330    32447.269    42022.612     9087.874       12.944        4.178      418.374      106.629        0.065      346.989       25.629      856.515
06/01/2014  19:11:00     -303.209     -238.310       -4.182      233.652      198.794      110.711    54593.158    39519.033    12256.887       12.754        5.318      385.652      131.613        0.116      346.955       25.572      856.505
06/01/2014  19:12:00     -308.336     -180.036        1.078      183.652      172.178       89.790    33727.924    29645.182     8062.213        9.945        3.572      357.049       98.277        0.076      346.954       25.568      856.516
06/01/2014  19:13:00     -223.509     -147.172        9.214      195.742      149.089       98.751    38314.751    22227.556     9751.766        7.098        3.515      267.612      105.914        0.157      346.960       25.579      856.534
06/01/2014  19:14:00     -288.355     -107.022       -6.296      189.375      138.172       71.674    35862.857    19091.399     5137.131        7.735        3.005      307.575       83.848        0.074      346.993       25.637      856.550
06/01/2014  19:15:00     -326.837     -169.622      -21.022      141.686      154.297       74.325    20075.020    23807.470     5524.273        9.271        2.470      368.231       61.581        0.028      346.969       25.594      856.557
06/01/2014  19:16:00     -283.800      -97.428        4.917      170.472      138.751       80.521    29060.850    19251.898     6483.688        7.242        2.740      300.058       86.447        0.083      346.974       25.606      856.576
06/01/2014  19:17:00     -449.650      -82.075      -26.309      170.688      133.221       82.925    29134.260    17747.886     6876.519       13.168        2.688      457.079       76.439        0.028      346.919       25.508      856.587
06/01/2014  19:18:00     -613.998     -172.579      -41.024      254.786      183.479       93.013    64915.677    33664.396     8651.331       25.782        5.362      637.791      111.471        0.031      346.811       25.323      856.569
06/01/2014  19:19:00     -484.838     -138.439      -27.439      207.683      175.252       71.994    43132.072    30713.252     5183.147       16.699        3.951      504.216       78.155        0.024      346.809       25.320      856.570
06/01/2014  19:20:00     -387.498     -122.060      -17.146      254.276      136.622       84.816    64656.244    18665.671     7193.791       12.791        4.526      406.267      105.922        0.068      346.813       25.328      856.595
06/01/2014  19:21:00     -300.199      -68.845       -3.158      233.905      119.820       79.409    54711.665    14356.787     6305.866        8.511        3.769      307.992       96.739        0.099      346.832       25.361      856.588
06/01/2014  19:22:00     -172.244     -126.338       21.703      152.672      129.106       74.788    23308.713    16668.319     5593.208        4.583        2.279      213.610       83.799        0.154      346.802       25.307      856.600
06/01/2014  19:23:00     -197.044     -160.220       -8.795      141.938       97.927       65.921    20146.348     9589.606     4345.594        4.932        1.704      253.962       75.706        0.089      346.800       25.306      856.586
06/01/2014  19:24:00     -127.690      -86.966       13.804      126.825      108.114       54.287    16084.552    11688.660     2947.095        2.738        1.536      154.492       36.826        0.057      346.853       25.397      856.587
06/01/2014  19:25:00     -364.325      -72.179      -10.318      155.234      114.596       67.533    24097.655    13132.263     4560.749        8.991        2.090      371.406       85.250        0.053      346.764       25.242      856.587
06/01/2014  19:26:00     -204.386     -114.104        1.827      192.870      130.541       72.697    37198.882    17040.972     5284.809        5.715        2.976      234.080       94.636        0.163      346.764       25.244      856.594
06/01/2014  19:27:00     -343.590     -130.733      -12.799      180.018      132.818       67.613    32406.307    17640.693     4571.557        9.495        2.731      367.621       65.233        0.031      346.747       25.213      856.594
06/01/2014  19:28:00     -177.440      -37.517        7.591      179.556      123.158       74.934    32240.461    15167.809     5615.086        4.298        2.651      181.363       82.405        0.206      346.752       25.222      856.591
06/01/2014  19:29:00     -362.016     -101.363       -7.910      177.742      103.399       82.447    31592.214    10691.380     6797.549        9.523        2.454      375.939       86.106        0.052      346.690       25.115      856.614
06/01/2014  19:30:00     -246.206      -91.161        1.829      158.584      140.572       84.176    25148.820    19760.395     7085.639        6.045        2.600      262.541       90.880        0.120      346.704       25.140      856.627
06/01/2014  19:31:00     -140.094      -35.470       23.777      181.847      131.100       80.129    33068.484    17187.143     6420.664        3.905        2.834      144.514       90.967        0.396      346.745       25.211      856.627
06/01/2014  19:32:00     -498.119      -96.500      -23.402      130.247      140.572       64.850    16964.368    19760.616     4205.585       14.945        2.047      507.381       56.073        0.012      346.651       25.049      856.640
06/01/2014  19:33:00     -344.505     -107.135       -4.660      151.702      127.996       74.110    23013.633    16382.997     5492.358        8.753        2.244      360.779       70.760        0.038      346.653       25.053      856.653
06/01/2014  19:34:00     -162.430       -6.083       20.170      132.658       97.745       66.674    17598.109     9554.172     4445.396        2.921        1.580      162.544       64.447        0.157      346.674       25.088      856.655
06/01/2014  19:35:00     -212.621     -186.808       -4.025      117.187      109.968       71.574    13732.849    12092.885     5122.869        5.553        1.547      283.028       67.887        0.058      346.657       25.060      856.667
06/01/2014  19:36:00     -353.159      -45.287      -27.081      175.498      150.090       81.744    30799.694    22527.007     6682.098        9.375        3.000      356.051       90.577        0.065      346.620       24.997      856.685
06/01/2014  19:37:00     -243.354     -127.302        8.686      175.303      133.144       89.369    30731.041    17727.225     7986.765        6.596        2.822      274.640       92.433        0.113      346.610       24.978      856.671
06/01/2014  19:38:00     -414.212     -203.587      -13.336      160.250      142.803       85.640    25680.121    20392.563     7334.262       13.329        2.670      461.540       95.425        0.043      346.596       24.953      856.688
06/01/2014  19:39:00     -196.942      -48.892       30.750      190.079      150.441       78.566    36129.999    22632.472     6172.565        5.352        3.247      202.920      102.292        0.254      346.539       24.857      856.696
06/01/2014  19:40:00     -213.827      -81.608        4.420      135.679      136.693       69.048    18408.728    18685.030     4767.633        4.712        2.093      228.871       60.396        0.070      346.571       24.911      856.711
06/01/2014  19:41:00     -330.025        5.396      -11.992      172.746      134.718       64.898    29841.037    18149.016     4211.711        8.064        2.610      330.069       65.469        0.039      346.550       24.877      856.711
06/01/2014  19:42:00     -342.972     -105.863       -9.592      157.575      123.684       69.723    24830.020    15297.633     4861.234        8.695        2.249      358.938       76.488        0.045      346.530       24.842      856.724
06/01/2014  19:43:00     -147.344     -106.975        7.710      135.903      120.727       71.846    18469.688    14575.114     5161.850        3.570        1.910      182.083       81.378        0.200      346.485       24.765      856.737
06/01/2014  19:44:00     -209.733     -155.046       10.638      155.668      133.707       70.281    24232.379    17877.624     4939.390        5.759        2.352      260.820       75.865        0.085      346.503       24.795      856.741
06/01/2014  19:45:00     -265.684     -132.100       -5.729      163.069      158.824       70.943    26591.530    25224.964     5032.947        7.245        2.842      296.713       87.566        0.087      346.490       24.774      856.736
06/01/2014  19:46:00     -285.180      -51.900        6.158      172.751      121.211       70.322    29842.907    14692.104     4945.175        6.676        2.474      289.865       75.703        0.068      346.469       24.736      856.738
06/01/2014  19:47:00     -243.956     -113.660        3.021      118.828      131.504       66.812    14120.052    17293.408     4463.789        5.415        1.794      269.134       59.789        0.049      346.470       24.738      856.743
06/01/2014  19:48:00     -205.855      -22.245        2.161      176.707      118.545       65.304    31225.357    14053.029     4264.576        4.620        2.477      207.054       87.986        0.181      346.382       24.588      856.753
06/01/2014  19:49:00     -257.632     -101.669      -13.565      153.141      113.634       61.221    23452.013    12912.590     3748.001        5.850        2.006      276.967       66.111        0.057      346.442       24.689      856.755
06/01/2014  19:50:00     -305.771     -199.218       -5.520      234.155      179.468       96.484    54828.700    32208.763     9309.130       11.476        4.817      364.943      111.251        0.093      346.439       24.683      856.749
06/01/2014  19:51:00     -333.503      -78.653       -7.874      151.509       84.664       64.544    22954.890     7167.941     4165.945        7.587        1.714      342.652       76.467        0.050      346.405       24.624      856.769
06/01/2014  19:52:00     -413.676     -162.931       -8.743      260.167      151.179       95.894    67686.836    22855.025     9195.648       14.872        4.987      444.605      104.645        0.055      346.368       24.560      856.757
06/01/2014  19:53:00     -481.386     -224.905      -29.987      178.646      149.330       79.452    31914.508    22299.573     6312.584       17.186        3.026      531.334       87.270        0.027      346.353       24.536      856.776
06/01/2014  19:54:00     -308.649     -147.081      -14.400      193.618      139.099       88.916    37487.859    19348.420     7906.142        9.091        3.237      341.902       97.519        0.081      346.311       24.467      856.801
06/01/2014  19:55:00     -362.579     -108.777      -18.077      242.771      118.396       88.177    58937.742    14017.670     7775.227       11.216        4.037      378.544      109.647        0.084      346.302       24.450      856.818
06/01/2014  19:56:00     -298.816     -134.042        0.077      181.068      127.098       75.394    32785.763    16153.974     5684.269        8.093        2.731      327.503       95.733        0.085      346.251       24.361      856.831
06/01/2014  19:57:00     -186.510      -39.489       10.051      137.989      125.161       66.729    19041.040    15665.293     4452.807        3.779        1.958      190.645       82.495        0.187      346.226       24.318      856.848
06/01/2014  19:58:00     -160.001        4.213        6.109       96.152       91.084       56.312     9245.188     8296.337     3171.040        2.318        1.036      160.056       41.171        0.066      346.202       24.277      856.852
06/01/2014  19:59:00     -176.029      -78.618       -7.183      104.796       98.891       56.549    10982.302     9779.478     3197.826        3.058        1.198      192.788       54.745        0.081      346.257       24.371      856.846
06/01/2014  20:00:00     -171.619      -87.297       -0.345      102.834       85.618       49.095    10574.845     7330.378     2410.300        2.869        1.016      192.546       46.558        0.058      346.161       24.205      856.857
06/01/2014  20:01:00     -232.308      -26.424       -8.447      185.053      113.378       70.785    34244.686    12854.676     5010.464        5.341        2.605      233.806       94.336        0.163      346.076       24.061      856.856
06/01/2014  20:02:00     -371.329     -145.809      -15.658      229.940      154.566       78.908    52872.409    23890.788     6226.537       12.117        4.149      398.930      108.209        0.074      346.123       24.142      856.853
06/01/2014  20:03:00     -308.600     -121.096       -3.134      172.886      121.216       75.625    29889.520    14693.251     5719.103        8.009        2.515      331.509       87.212        0.069      346.115       24.128      856.823
06/01/2014  20:04:00     -406.281     -156.389      -14.966      198.015      162.165       76.353    39210.066    26297.544     5829.736       13.053        3.567      435.341       78.546        0.033      346.101       24.103      856.831
06/01/2014  20:05:00     -355.517      -58.936      -26.788      157.276      107.373       73.207    24735.585    11528.868     5359.211        8.610        2.081      360.369       71.051        0.039      346.112       24.121      856.828
06/01/2014  20:06:00     -259.098     -151.913       -0.649      170.316      141.608       78.099    29007.438    20052.928     6099.473        7.267        2.758      300.349       85.667        0.081      346.078       24.061      856.837
06/01/2014  20:07:00     -216.896      -68.242       -4.425      147.766      104.267       63.973    21834.868    10871.541     4092.579        4.425        1.840      227.378       56.848        0.063      346.065       24.042      856.842
06/01/2014  20:08:00     -290.676      -99.822       -0.532      163.006      138.334       89.750    26571.003    19136.422     8055.140        7.410        2.688      307.339       97.654        0.101      346.061       24.031      856.835
06/01/2014  20:09:00     -258.018     -171.084        6.323      151.728      134.651       78.586    23021.290    18130.782     6175.693        7.160        2.366      309.585       77.700        0.063      346.035       23.989      856.850
06/01/2014  20:10:00     -378.080      -61.494      -11.300      189.332      129.810       80.657    35846.753    16850.510     6505.553       10.302        2.960      383.048       91.012        0.056      346.012       23.951      856.879
06/01/2014  20:11:00     -314.431      -42.011       -7.248      130.927      130.690       69.291    17141.862    17079.964     4801.252        6.985        1.951      317.225       67.041        0.045      345.988       23.909      856.892
06/01/2014  20:12:00     -378.124     -142.744      -22.854      124.033      123.359       68.297    15384.233    15217.389     4664.509        9.956        1.763      404.170       51.456        0.016      345.981       23.898      856.917
06/01/2014  20:13:00     -231.926      -52.060       -7.066      134.543       91.892       61.969    18101.875     8444.140     3840.106        4.346        1.519      237.697       74.230        0.098      345.944       23.835      856.918
06/01/2014  20:14:00     -356.166      -10.059      -18.121      201.462      115.292       64.681    40586.859    13292.291     4183.685        9.266        2.903      356.308       82.293        0.053      345.922       23.796      856.920
06/01/2014  20:15:00     -204.847      -30.648       -4.903      136.989       84.384       61.288    18765.908     7120.698     3756.206        3.628        1.482      207.127       69.138        0.111      345.917       23.787      856.905
06/01/2014  20:16:00     -332.866      -21.400      -28.155       98.274      109.471       49.093     9657.808    11983.826     2410.164        6.805        1.203      333.553       47.229        0.020      345.901       23.760      856.913
06/01/2014  20:17:00     -241.358      -25.065      -12.440       76.916       79.044       44.576     5916.135     6247.890     1987.006        3.659        0.708      242.656       42.521        0.031      345.849       23.671      856.914
06/01/2014  20:18:00     -182.490      -19.641       -6.630      102.529       78.303       43.308    10512.148     6131.325     1875.548        2.612        0.926      183.544       42.887        0.055      345.819       23.621      856.919
06/01/2014  20:19:00     -158.598      -88.937        5.606      114.300       92.889       54.575    13064.468     8628.299     2978.466        2.888        1.234      181.833       60.849        0.112      345.795       23.579      856.903
06/01/2014  20:20:00     -163.303      -53.860       -5.939      107.986       97.011       43.255    11660.953     9411.071     1870.992        2.627        1.147      171.956       48.188        0.079      345.789       23.570      856.901
06/01/2014  20:21:00     -226.641      -13.567      -20.943       85.893       65.648       48.231     7377.692     4309.654     2326.265        3.300        0.701      227.047       45.309        0.040      345.791       23.571      856.893
06/01/2014  20:22:00     -284.867      -42.898       -9.713      115.167      118.415       52.731    13263.444    14022.060     2780.571        5.657        1.503      288.079       47.854        0.028      345.757       23.511      856.879
06/01/2014  20:23:00     -181.746      -50.143       -5.225      154.598       87.664       52.942    23900.602     7685.017     2802.846        3.497        1.719      188.536       67.912        0.130      345.721       23.453      856.885
06/01/2014  20:24:00     -226.034     -121.917        3.461      177.011      103.923       67.460    31333.002    10799.977     4550.845        5.632        2.334      256.817       83.861        0.107      345.715       23.440      856.876
06/01/2014  20:25:00     -235.391      -43.091        6.796      126.486       98.368       51.878    15998.649     9676.261     2691.348        4.283        1.418      239.303       59.758        0.062      345.694       23.404      856.873
06/01/2014  20:26:00     -202.725     -115.942      -10.800      103.623      100.620       66.181    10737.813    10124.452     4379.869        3.994        1.262      233.538       54.285        0.054      345.727       23.461      856.873
06/01/2014  20:27:00     -113.673      -55.784       21.673      133.353      109.831       61.195    17782.974    12062.819     3744.780        2.504        1.680      126.624       74.090        0.342      345.678       23.378      856.873
06/01/2014  20:28:00     -386.626      -47.988      -23.252      184.074      112.664       76.281    33883.325    12693.254     5818.786       10.235        2.620      389.593       84.590        0.047      345.713       23.438      856.881
06/01/2014  20:29:00     -260.174      -75.011       11.928      177.893      115.836       83.761    31646.071    13418.034     7015.972        6.276        2.604      270.771      105.591        0.152      345.672       23.367      856.894
06/01/2014  20:30:00     -237.396       -9.510       -3.741      124.949       98.498       61.502    15612.154     9701.800     3782.521        4.277        1.455      237.587       61.782        0.068      345.655       23.338      856.908
06/01/2014  20:31:00     -223.182      -38.718       -1.307       97.093       81.782       41.962     9426.997     6688.222     1760.771        3.459        0.894      226.515       40.641        0.032      345.615       23.268      856.921
06/01/2014  20:32:00     -434.381      -75.958      -25.175      148.000      107.002       60.403    21904.017    11449.511     3648.529       11.604        1.850      440.973       63.369        0.021      345.680       23.382      856.918
06/01/2014  20:33:00     -341.116      -53.781      -25.754      135.204       80.232       46.782    18280.250     6437.241     2188.537        7.341        1.345      345.330       58.236        0.028      345.624       23.283      856.912
06/01/2014  20:34:00     -311.911      -57.950      -11.212      101.826       78.818       57.412    10368.504     6212.271     3296.085        6.032        0.994      317.249       50.264        0.025      345.585       23.216      856.913
06/01/2014  20:35:00     -363.214     -115.600       -6.586      123.554       98.836       50.796    15265.509     9768.635     2580.227        8.647        1.381      381.167       59.330        0.024      345.552       23.161      856.906
06/01/2014  20:36:00     -310.468      -47.215       -6.364       91.083       86.223       56.494     8296.077     7434.416     3191.528        5.879        0.946      314.037       51.443        0.027      345.515       23.095      856.921
06/01/2014  20:37:00     -312.393      -52.919       -4.546      119.837       99.122       62.409    14360.787     9825.175     3894.883        6.424        1.404      316.844       59.644        0.035      345.497       23.066      856.910
06/01/2014  20:38:00     -251.326      -21.581       -2.204      142.362      108.370       66.864    20266.880    11743.998     4470.774        5.005        1.824      252.250       49.954        0.039      345.460       23.003      856.914
06/01/2014  20:39:00     -329.848      -38.209      -10.804      115.779      117.278       65.118    13404.815    13754.121     4240.344        7.088        1.570      332.054       61.967        0.035      345.459       23.000      856.930
06/01/2014  20:40:00     -424.306      -76.992      -12.189      145.024      137.554       62.982    21031.901    18921.238     3966.693       11.501        2.196      431.235       55.064        0.016      345.458       22.998      856.934
06/01/2014  20:41:00     -362.341      -47.717      -12.580      160.356      125.590       67.213    25713.976    15772.922     4517.528        8.986        2.300      365.470       72.735        0.040      345.468       23.016      856.935
06/01/2014  20:42:00     -413.090      -41.211      -27.919      165.958       84.368       61.348    27541.914     7117.906     3763.530       10.576        1.921      415.141       64.209        0.024      345.466       23.011      856.945
06/01/2014  20:43:00     -287.031     -107.537      -17.961      146.646      109.649       63.854    21505.006    12022.926     4077.312        6.593        1.880      306.514       62.055        0.041      345.439       22.966      856.951
06/01/2014  20:44:00     -363.643      -17.709      -36.204      117.987      111.059       55.237    13920.959    12334.059     3051.136        8.158        1.465      364.074       49.231        0.018      345.428       22.949      856.966
06/01/2014  20:45:00     -259.111      -69.354        1.517      142.870      114.452       61.890    20411.773    13099.175     3830.372        5.464        1.867      268.232       67.220        0.063      345.438       22.963      856.979
06/01/2014  20:46:00     -399.083      -45.092      -33.643      154.423      161.455       64.700    23846.407    26067.604     4186.128       10.826        2.705      401.623       74.246        0.034      345.457       22.996      856.982
06/01/2014  20:47:00     -387.573      -26.615      -29.978       98.962       99.527       61.289     9793.543     9905.618     3756.390        8.763        1.173      388.485       53.551        0.019      345.466       23.011      856.975
06/01/2014  20:48:00     -286.420      -42.346      -11.126      106.335       91.051       62.185    11307.080     8290.238     3866.932        5.370        1.173      289.534       61.817        0.046      345.421       22.936      856.972
06/01/2014  20:49:00     -252.319      -38.571       -9.026      134.652      143.770       66.691    18131.206    20669.779     4447.708        5.423        2.162      255.250       67.929        0.071      345.371       22.852      856.973
06/01/2014  20:50:00     -406.797      -80.049       -4.446      121.089      137.846       64.029    14662.594    19001.465     4099.724       10.483        1.888      414.598       61.279        0.022      345.394       22.888      856.975
06/01/2014  20:51:00     -258.922      -33.257       -3.810      122.488       95.242       60.769    15003.283     9071.052     3692.872        4.796        1.388      261.049       63.699        0.060      345.366       22.841      856.993
06/01/2014  20:52:00     -191.813      -71.649      -17.933      166.353      111.980       62.796    27673.374    12539.609     3943.391        4.319        2.208      204.758       67.207        0.108      345.357       22.828      856.989
06/01/2014  20:53:00     -363.879     -165.909      -23.844      145.815      122.715       62.887    21262.047    15059.094     3954.726       10.038        2.014      399.917       66.082        0.027      345.343       22.803      856.989
06/01/2014  20:54:00     -381.173      -72.026      -14.666      145.045      105.406       65.961    21038.114    11110.351     4350.861        9.359        1.825      387.918       62.622        0.026      345.340       22.798      857.013
06/01/2014  20:55:00     -423.515      -67.820      -29.906      137.759      118.921       62.667    18977.639    14142.180     3927.147       11.095        1.852      428.911       58.611        0.019      345.326       22.773      857.008
06/01/2014  20:56:00     -396.029     -125.334      -22.934      136.670      105.390       52.940    18678.664    11107.060     2802.661       10.282        1.629      415.389       55.325        0.018      345.308       22.740      857.026
06/01/2014  20:57:00     -470.798      -67.368      -14.232      175.914      119.701       81.488    30945.696    14328.282     6640.273       13.914        2.596      475.594       96.446        0.041      345.301       22.729      857.039
06/01/2014  20:58:00     -408.722      -62.878      -16.397      145.123      106.808       73.178    21060.719    11407.963     5354.991       10.454        1.891      413.530       72.407        0.031      345.324       22.768      857.046
06/01/2014  20:59:00     -389.636      -58.018      -21.618      167.368      128.348       76.604    28012.057    16473.211     5868.209       10.299        2.518      393.932       75.727        0.037      345.310       22.744      857.064
06/01/2014  21:00:00     -249.344      -44.859        9.453      185.603       87.492       70.307    34448.581     7654.791     4943.130        5.565        2.352      253.347       86.724        0.117      345.283       22.700      857.093
06/01/2014  21:01:00     -284.521      -95.343       -5.352      132.527       99.042       61.066    17563.462     9809.297     3729.116        6.058        1.555      300.071       66.425        0.049      345.275       22.687      857.100
06/01/2014  21:02:00     -313.223        1.627      -27.409      114.177      105.918       59.680    13036.285    11218.715     3561.673        6.333        1.391      313.227       51.767        0.027      345.287       22.707      857.081
06/01/2014  21:03:00     -307.671      -16.357      -15.367      188.982       84.916       72.634    35714.280     7210.769     5275.734        7.167        2.410      308.106       97.283        0.100      345.234       22.615      857.074
06/01/2014  21:04:00     -211.808      -52.323        3.759      120.101       86.820       54.227    14424.342     7537.673     2940.546        3.625        1.245      218.175       61.916        0.081      345.217       22.586      857.090
06/01/2014  21:05:00     -299.231      -25.669      -13.034      113.071       89.423       48.433    12784.976     7996.456     2345.769        5.674        1.156      300.330       50.657        0.028      345.191       22.541      857.108
06/01/2014  21:06:00     -213.929      -45.716       -3.397      115.434      122.744       57.601    13324.976    15066.024     3317.923        3.978        1.585      218.760       52.563        0.058      345.170       22.507      857.091
06/01/2014  21:07:00     -316.141       11.866      -16.597      107.853      102.486       57.369    11632.323    10503.472     3291.177        6.289        1.271      316.363       48.875        0.024      345.203       22.563      857.093
06/01/2014  21:08:00     -306.475      -15.281       -9.358      171.092       97.486       68.036    29272.495     9503.568     4628.848        6.882        2.170      306.855       81.640        0.071      345.192       22.543      857.086
06/01/2014  21:09:00     -312.710      -70.071       -6.133      170.631      120.290       73.402    29114.999    14469.593     5387.884        7.584        2.449      320.465       80.792        0.064      345.178       22.520      857.095
06/01/2014  21:10:00     -336.898     -140.612       -2.395      140.420      121.448       66.476    19717.676    14749.528     4419.123        8.607        1.944      365.064       63.022        0.030      345.184       22.530      857.109
06/01/2014  21:11:00     -302.991      -93.491      -12.921      174.677      120.911       65.509    30511.952    14619.518     4291.391        7.506        2.471      317.087       77.359        0.060      345.167       22.500      857.138
06/01/2014  21:12:00     -412.625      -49.833      -33.851      169.739      136.706       84.757    28811.288    18688.559     7183.732       11.428        2.734      415.623       89.781        0.047      345.262       22.662      857.136
06/01/2014  21:13:00     -244.020      -58.880      -16.390      163.004      111.202       57.651    26570.372    12365.841     3323.663        5.276        2.113      251.023       70.623        0.079      345.208       22.571      857.149
06/01/2014  21:14:00     -282.655      -61.461       -4.259      142.482      139.973       65.919    20301.155    19592.550     4345.255        6.396        2.212      289.260       63.948        0.049      345.183       22.528      857.174
06/01/2014  21:15:00     -275.547      -58.191       -2.334      150.520      104.385       65.941    22656.305    10896.188     4348.165        5.860        1.895      281.625       79.205        0.079      345.128       22.435      857.209
06/01/2014  21:16:00     -389.849     -137.392       -5.796      131.983       95.809       57.785    17419.520     9179.436     3339.125       10.041        1.497      413.350       55.620        0.018      345.172       22.509      857.241
06/01/2014  21:17:00     -301.225      -51.070      -11.345      113.984       83.819       52.420    12992.425     7025.599     2747.866        5.811        1.138      305.523       55.351        0.033      345.226       22.600      857.250
06/01/2014  21:18:00     -196.163      -17.634       -8.072       77.344       71.205       41.969     5982.132     5070.142     1761.389        2.583        0.641      196.954       35.604        0.033      345.173       22.514      857.239
06/01/2014  21:19:00     -291.897      -40.040      -23.210       77.857      104.582       46.148     6061.672    10937.364     2129.625        5.323        0.956      294.631       30.703        0.011      345.177       22.517      857.241
06/01/2014  21:20:00     -250.711      -37.694      -16.006      136.107       86.241       52.598    18524.989     7437.463     2766.548        4.663        1.436      253.529       64.766        0.065      345.121       22.421      857.261
06/01/2014  21:21:00     -293.904      -90.724      -14.775      135.619      140.459       63.774    18392.450    19728.801     4067.121        6.850        2.109      307.588       59.486        0.037      345.163       22.493      857.272
06/01/2014  21:22:00     -218.687      -35.185      -14.362      109.591       94.332       48.245    12010.184     8898.481     2327.594        3.625        1.162      221.499       48.690        0.048      345.148       22.469      857.274
06/01/2014  21:23:00     -245.962     -126.547       15.767      107.256      108.137       57.426    11503.927    11693.524     3297.795        5.162        1.325      276.607       49.621        0.032      345.156       22.482      857.277
06/01/2014  21:24:00     -390.607      -40.490      -19.696      127.814       87.621       60.832    16336.340     7677.411     3700.589        9.115        1.386      392.700       59.335        0.023      345.185       22.532      857.304
06/01/2014  21:25:00     -206.200      -52.068        5.909       94.489       96.134       55.484     8928.210     9241.744     3078.473        3.325        1.062      212.672       51.433        0.058      345.109       22.402      857.320
06/01/2014  21:26:00     -291.460      -21.372      -16.410      161.905       96.460       61.780    26213.335     9304.467     3816.808        6.250        1.967      292.243       86.064        0.087      345.124       22.427      857.328
06/01/2014  21:27:00     -285.836      -40.147      -21.580      122.873       99.439       54.810    15097.849     9888.125     3004.189        5.588        1.400      288.642       55.639        0.037      345.141       22.456      857.355
06/01/2014  21:28:00     -253.745      -93.264       -0.455       96.433      123.133       53.125     9299.257    15161.632     2822.222        5.018        1.364      270.341       44.380        0.027      345.147       22.465      857.352
06/01/2014  21:29:00     -287.078      -58.620      -16.589      128.181       99.185       52.718    16430.440     9837.698     2779.236        5.758        1.452      293.002       54.113        0.034      345.144       22.461      857.360
06/01/2014  21:30:00     -354.238       14.876      -48.006      116.927       70.815       49.226    13671.886     5014.742     2423.241        7.456        1.055      354.551       41.159        0.013      345.158       22.484      857.365
06/01/2014  21:31:00     -351.710       30.037      -32.690      107.012       93.529       43.331    11451.473     8747.612     1877.559        7.387        1.104      352.990       36.318        0.011      345.131       22.437      857.386
06/01/2014  21:32:00     -327.609      -46.535      -23.773      126.414      108.625       56.307    15980.502    11799.498     3170.526        7.050        1.548      330.898       61.296        0.034      345.078       22.348      857.398
06/01/2014  21:33:00     -170.395      -26.623       -0.125       90.144       77.995       48.161     8125.869     6083.220     2319.463        2.313        0.826      172.463       39.091        0.051      345.016       22.245      857.414
06/01/2014  21:34:00     -308.462       63.080      -17.915      117.490       83.886       50.751    13803.862     7036.781     2575.625        6.143        1.171      314.846       40.889        0.017      345.063       22.324      857.424
06/01/2014  21:35:00     -267.485       38.010      -16.511      103.421       70.241       52.997    10695.826     4933.866     2808.640        4.585        0.922      270.172       52.071        0.037      345.076       22.345      857.443
06/01/2014  21:36:00     -279.372       13.298      -29.147       77.922       60.056       39.712     6071.882     3606.738     1577.062        4.516        0.563      279.688       39.177        0.020      345.066       22.328      857.464
06/01/2014  21:37:00     -199.300        7.774      -16.060       99.368       88.931       46.604     9873.911     7908.641     2171.979        2.999        0.998      199.451       47.551        0.057      345.089       22.368      857.469
06/01/2014  21:38:00     -347.472      -45.194      -22.090      109.881      100.978       51.056    12073.842    10196.620     2606.696        7.407        1.244      350.399       50.523        0.021      345.109       22.402      857.481
06/01/2014  21:39:00     -347.281      -23.746      -38.441       98.155       85.822       45.708     9634.424     7365.466     2089.234        7.086        0.954      348.092       44.226        0.016      345.090       22.368      857.515
06/01/2014  21:40:00     -150.556      -12.224      -10.304       80.742       62.513       39.510     6519.321     3907.876     1561.023        1.745        0.599      151.051       40.110        0.071      345.003       22.221      857.537
06/01/2014  21:41:00     -117.311       59.248      -12.502       86.593       81.777       37.104     7498.262     6687.413     1376.702        1.649        0.778      131.424       34.253        0.068      345.031       22.271      857.547
06/01/2014  21:42:00     -124.437      183.182      -20.481       74.826       78.979       50.100     5598.875     6237.746     2509.962        3.190        0.717      221.450       54.753        0.061      344.974       22.171      857.572
06/01/2014  21:43:00      -96.882      118.997      -18.857       63.539       66.293       38.388     4037.209     4394.785     1473.661        1.690        0.495      153.449       30.489        0.039      344.947       22.127      857.605
06/01/2014  21:44:00     -113.452      167.744      -21.568       75.741       64.790       50.389     5736.747     4197.747     2539.057        2.697        0.624      202.508       37.135        0.034      344.954       22.136      857.612
06/01/2014  21:45:00     -147.803      132.040      -24.702       79.791       67.454       43.789     6366.648     4549.998     1917.433        2.636        0.642      198.193       34.346        0.030      344.982       22.184      857.657
06/01/2014  21:46:00      -92.913      162.011      -26.933       55.800       70.870       29.885     3113.643     5022.627      893.134        2.232        0.451      186.763       23.868        0.016      345.016       22.243      857.674
06/01/2014  21:47:00      -63.881      177.659      -24.636       60.164       74.334       34.553     3619.743     5525.492     1193.892        2.329        0.517      188.795       35.660        0.036      345.051       22.303      857.694
06/01/2014  21:48:00       -7.223      209.749      -33.088       58.947       43.923       27.780     3474.708     1929.254      771.731        2.566        0.309      209.873       24.945        0.014      345.091       22.371      857.689
06/01/2014  21:49:00        0.608      147.199      -25.924       41.091       53.195       31.486     1688.452     2829.700      991.399        1.392        0.275      147.200       27.343        0.035      345.030       22.268      857.665
06/01/2014  21:50:00      -48.376      190.451      -19.455       52.015       50.758       27.445     2705.574     2576.397      753.219        2.251        0.302      196.498       24.899        0.016      345.118       22.418      857.728
06/01/2014  21:51:00       -6.841      119.551      -10.083       23.897       40.834       19.695      571.044     1667.410      387.896        0.853        0.131      119.746       22.924        0.037      345.148       22.473      857.729
06/01/2014  21:52:00      -19.945       67.677       -2.247       29.274       34.447       17.306      856.947     1186.618      299.514        0.366        0.117       70.555       17.738        0.063      345.013       22.241      857.741
06/01/2014  21:53:00      -24.579      145.754      -13.458       55.179       67.059       32.867     3044.720     4496.914     1080.248        1.532        0.431      147.812       36.192        0.060      345.005       22.225      857.755
06/01/2014  21:54:00      -38.924      223.222      -39.848       50.152       61.124       25.711     2515.242     3736.094      661.060        2.992        0.346      226.590       20.866        0.008      345.135       22.447      857.773
06/01/2014  21:55:00     -104.542      153.207      -19.296       56.601       53.698       27.821     3203.691     2883.488      773.999        2.082        0.343      185.476       22.954        0.015      344.984       22.190      857.801
06/01/2014  21:56:00     -152.790       96.622      -24.991       45.436       93.905       34.457     2064.453     8818.230     1187.278        2.269        0.603      180.777       20.383        0.013      344.979       22.182      857.809
06/01/2014  21:57:00      -94.140       94.127      -12.517       68.392       53.511       38.218     4677.462     2863.454     1460.642        1.344        0.450      133.125       43.569        0.107      344.851       21.963      857.810
06/01/2014  21:58:00     -151.083      172.954      -29.470       69.294       55.443       33.148     4801.718     3073.942     1098.771        3.129        0.449      229.650       35.695        0.024      344.979       22.179      857.808
06/01/2014  21:59:00     -175.454       51.448      -26.407       62.265       98.260       28.773     3876.969     9655.090      827.879        2.424        0.718      182.841       22.288        0.015      344.986       22.192      857.818
06/01/2014  22:00:00      -93.520      -51.547      -10.570       47.839       45.130       31.238     2288.566     2036.739      975.840        0.841        0.265      106.785       30.737        0.083      344.870       21.996      857.823
06/01/2014  22:01:00      -64.057      -13.300       -5.887       39.959       27.464       15.642     1596.710      754.272      244.659        0.345        0.130       65.423       16.014        0.060      344.848       21.958      857.834
06/01/2014  22:02:00     -135.745       38.252       -0.042       68.712       43.685       34.924     4721.334     1908.391     1219.685        1.387        0.392      141.032       30.345        0.046      344.992       22.204      857.827
06/01/2014  22:03:00     -108.896       92.410      -12.521       56.904       41.988       29.515     3238.028     1762.969      871.106        1.321        0.294      142.821       22.788        0.025      344.925       22.089      857.823
06/01/2014  22:04:00     -122.685       34.000       -7.763       62.511       39.268       28.236     3907.649     1541.997      797.282        1.126        0.312      127.309       32.000        0.063      345.025       22.261      857.831
06/01/2014  22:05:00      -55.120       19.885        0.934       81.500       28.568       26.112     6642.196      816.144      681.860        0.579        0.407       58.597       42.265        0.520      344.851       21.962      857.824
06/01/2014  22:06:00     -194.732       13.191      -12.160       46.787       57.000       27.841     2189.014     3248.986      775.129        2.223        0.311      195.178       21.449        0.012      344.928       22.093      857.839
06/01/2014  22:07:00      -41.071      -30.693       -7.848       79.181       29.100       22.275     6269.611      846.817      496.179        0.515        0.381       51.273       22.385        0.191      344.648       21.616      857.820
06/01/2014  22:08:00      -45.912      -25.789        4.839       30.888       25.035       18.337      954.045      626.768      336.236        0.236        0.096       52.659        9.446        0.032      344.387       21.170      857.800
06/01/2014  22:09:00      -67.176       35.689       -1.915       28.894       41.325       18.793      834.887     1707.797      353.187        0.434        0.145       76.067        9.030        0.014      344.754       21.797      857.835
06/01/2014  22:10:00      -96.022        4.749       -0.724       31.900       33.235       16.742     1017.580     1104.594      280.281        0.582        0.120       96.140       13.570        0.020      344.729       21.754      857.860
06/01/2014  22:11:00      -72.802       48.992      -14.377       34.236       47.152       24.069     1172.090     2223.271      579.328        0.594        0.199       87.752       20.402        0.054      344.726       21.748      857.871
06/01/2014  22:12:00     -166.513       22.105      -20.592       32.329       37.061       25.156     1045.191     1373.488      632.818        1.584        0.153      167.974       21.404        0.016      344.722       21.739      857.881
06/01/2014  22:13:00      -59.096       29.679       -4.940       40.333       52.684       26.173     1626.767     2775.643      685.045        0.474        0.254       66.130       24.833        0.141      344.568       21.481      857.889
06/01/2014  22:14:00      -41.108       89.832        8.472       62.991       86.583       45.004     3967.808     7496.629     2025.395        1.166        0.674       98.791       34.564        0.122      344.626       21.577      857.892
06/01/2014  22:15:00     -120.651      195.281      -27.088      103.892       61.917       52.823    10793.513     3833.744     2790.232        3.542        0.871      229.546       45.846        0.040      344.733       21.759      857.881
06/01/2014  22:16:00      -70.530      182.177      -19.891       57.539       74.251       32.204     3310.738     5513.259     1037.088        2.421        0.493      195.354       29.936        0.023      344.678       21.665      857.872
06/01/2014  22:17:00      -76.418      168.030      -16.760       65.369       88.585       37.677     4273.134     7847.388     1419.572        2.394        0.677      184.591       35.611        0.037      344.642       21.602      857.894
06/01/2014  22:18:00     -143.326       50.467      -27.227       63.532       50.359       32.257     4036.317     2536.045     1040.487        1.572        0.381      151.951       27.370        0.032      344.684       21.676      857.916
06/01/2014  22:19:00     -147.527       96.907      -26.744      118.655       79.560       36.579    14078.931     6329.775     1338.001        2.680        1.087      176.508       38.022        0.046      344.718       21.734      857.925
06/01/2014  22:20:00      -89.074      136.223      -22.672       52.602       70.241       36.046     2767.009     4933.841     1299.315        1.800        0.450      162.760       31.465        0.037      344.732       21.758      857.923
06/01/2014  22:21:00      -77.085      220.126      -13.652       94.968       83.523       52.512     9018.941     6976.084     2757.520        3.666        0.938      233.233       42.694        0.034      344.736       21.763      857.932
06/01/2014  22:22:00     -112.477      188.913      -19.700       62.868       88.865       42.944     3952.357     7897.061     1844.157        3.121        0.685      219.861       35.688        0.026      344.685       21.676      857.969
06/01/2014  22:23:00     -112.657       46.975       -3.546       72.245       66.453       32.810     5219.337     4415.955     1076.516        1.281        0.536      122.058       21.879        0.032      344.626       21.578      857.971
06/01/2014  22:24:00      -84.424       63.656       -7.623       40.104       45.299       23.325     1608.353     2052.001      544.043        0.772        0.210      105.733       17.600        0.028      344.622       21.571      857.971
06/01/2014  22:25:00     -105.337      119.625      -23.095       34.246       53.759       27.088     1172.760     2890.066      733.782        1.537        0.240      159.393       23.863        0.022      344.617       21.563      857.978
06/01/2014  22:26:00     -133.882      201.914      -36.700       56.347       72.995       26.760     3174.932     5328.301      716.109        3.463        0.461      242.268       27.368        0.013      344.599       21.528      857.967
06/01/2014  22:27:00     -122.109      184.483      -37.365       40.718       56.298       26.681     1657.974     3169.465      711.882        2.794        0.277      221.234       20.736        0.009      344.522       21.397      857.967
06/01/2014  22:28:00      -60.588      157.165      -19.713       70.931       78.206       37.043     5031.214     6116.134     1372.209        2.064        0.626      168.439       43.626        0.067      344.556       21.456      857.958
06/01/2014  22:29:00      -82.345      337.600      -27.890      106.276      136.950       62.076    11294.522    18755.355     3853.369        7.771        1.695      347.498       53.358        0.024      344.646       21.609      857.957
06/01/2014  22:30:00      -85.776      220.769      -32.397       62.188       84.125       38.695     3867.293     7077.003     1497.298        3.479        0.622      236.847       30.873        0.017      344.597       21.526      857.943
06/01/2014  22:31:00     -127.159      119.006      -27.118       56.864       53.496       39.235     3233.478     2861.785     1539.381        1.935        0.382      174.160       33.471        0.037      344.468       21.306      857.958
06/01/2014  22:32:00     -167.063      139.452      -35.771       47.326       69.719       36.307     2239.708     4860.766     1318.172        2.853        0.421      217.617       34.575        0.025      344.485       21.333      857.948
06/01/2014  22:33:00     -116.506      114.216      -17.916       54.244       46.303       34.839     2942.411     2143.930     1213.733        1.662        0.315      163.153       28.936        0.031      344.443       21.265      857.926
06/01/2014  22:34:00      -98.987      130.685      -19.081       43.505       44.513       33.942     1892.676     1981.380     1152.048        1.613        0.251      163.942       28.983        0.031      344.350       21.106      857.922
06/01/2014  22:35:00     -129.906       72.649      -16.777       46.025       34.544       31.353     2118.335     1193.299      983.024        1.336        0.215      148.840       26.030        0.031      344.430       21.243      857.931
06/01/2014  22:36:00      -97.507      108.546      -10.623       64.771       67.749       46.883     4195.321     4589.913     2198.035        1.619        0.549      145.910       39.919        0.075      344.468       21.306      857.929
06/01/2014  22:37:00     -201.480       42.283      -18.982       71.656       62.314       37.211     5134.627     3882.979     1384.629        2.657        0.520      205.869       33.890        0.027      344.445       21.265      857.918
06/01/2014  22:38:00     -125.512       85.574      -23.945       78.369       49.420       41.077     6141.723     2442.292     1687.359        1.696        0.514      151.909       42.214        0.077      344.495       21.352      857.893
06/01/2014  22:39:00     -137.917       69.081      -14.843       62.233       52.063       37.604     3872.911     2710.526     1414.093        1.600        0.400      154.251       29.322        0.036      344.388       21.170      857.894
06/01/2014  22:40:00     -171.547      182.119      -41.899       72.830       80.499       45.009     5304.165     6480.083     2025.778        3.908        0.691      250.192       47.975        0.037      344.441       21.258      857.895
06/01/2014  22:41:00     -118.606      130.627      -20.042       58.086       54.347       31.874     3373.955     2953.606     1015.953        1.944        0.367      176.439       27.046        0.023      344.296       21.011      857.899
06/01/2014  22:42:00     -108.341      125.013      -28.038       52.443       71.003       31.981     2750.314     5041.447     1022.759        1.848        0.441      165.427       21.020        0.016      344.356       21.114      857.899
06/01/2014  22:43:00     -174.857       43.363      -28.145       57.672       46.696       38.002     3326.022     2180.520     1444.129        2.010        0.348      180.154       27.542        0.023      344.442       21.263      857.900
06/01/2014  22:44:00     -121.455        6.978      -12.330       64.944       69.984       36.104     4217.784     4897.806     1303.465        1.268        0.521      121.655       26.375        0.047      344.475       21.319      857.903
06/01/2014  22:45:00      -97.913        5.017       -1.789       80.509       83.605       47.624     6481.664     6989.751     2268.073        1.267        0.787       98.042       36.313        0.137      344.396       21.184      857.914
06/01/2014  22:46:00      -92.536       36.548       -6.833       57.396       70.519       37.829     3294.339     4972.887     1431.054        0.982        0.485       99.492       37.072        0.139      344.372       21.143      857.920
06/01/2014  22:47:00      -82.128       92.327       -8.973       81.388       98.571       50.372     6624.032     9716.207     2537.345        1.711        0.944      123.569       48.159        0.152      344.362       21.124      857.923
06/01/2014  22:48:00     -166.558       79.105      -32.967       63.229       76.919       41.050     3997.903     5916.459     1685.123        2.334        0.580      184.388       30.279        0.027      344.425       21.233      857.918
06/01/2014  22:49:00     -101.545       57.218       -8.865       43.976       64.566       30.809     1933.893     4168.746      949.195        1.036        0.353      116.556       20.309        0.030      344.388       21.170      857.912
06/01/2014  22:50:00      -94.011        1.517       -4.877       61.745       61.801       31.348     3812.396     3819.343      982.720        0.874        0.431       94.023       15.392        0.027      344.350       21.105      857.912
06/01/2014  22:51:00     -159.372       20.746       -8.098       77.688       62.363       36.824     6035.369     3889.095     1356.006        1.859        0.564      160.717       40.470        0.063      344.410       21.209      857.903
06/01/2014  22:52:00     -187.743       50.123      -11.511       84.743       72.547       40.395     7181.298     5263.075     1631.791        2.598        0.704      194.319       39.865        0.042      344.389       21.171      857.902
06/01/2014  22:53:00     -255.741       -6.295      -29.439      114.909       59.694       39.302    13204.061     3563.394     1544.642        4.231        0.916      255.819       27.190        0.011      344.301       21.019      857.886
06/01/2014  22:54:00     -158.730        8.164      -28.929       54.328       80.203       36.106     2951.575     6432.563     1303.627        1.839        0.534      158.939       25.281        0.025      344.281       20.989      857.859
06/01/2014  22:55:00     -119.832       -8.096       -9.989       41.100       45.302       33.839     1689.218     2052.232     1145.108        0.970        0.244      120.106       19.002        0.025      344.263       20.957      857.844
06/01/2014  22:56:00     -175.864      -30.864      -18.853       72.442       59.989       37.134     5247.857     3598.679     1378.949        2.123        0.511      178.552       28.383        0.025      344.217       20.877      857.823
06/01/2014  22:57:00     -243.748      -76.376      -17.443       74.434       59.931       39.163     5540.411     3591.688     1533.760        3.811        0.533      255.433       30.351        0.014      344.158       20.775      857.807
06/01/2014  22:58:00     -246.156      -70.537      -12.443       86.335       70.937       46.865     7453.801     5032.064     2196.320        4.020        0.734      256.063       43.508        0.029      344.192       20.833      857.787
06/01/2014  22:59:00     -120.451      -47.859        2.366       68.671       92.442       45.356     4715.735     8545.536     2057.205        1.606        0.766      129.611       37.063        0.082      344.170       20.797      857.791
06/01/2014  23:00:00     -131.677      -11.341      -12.732       51.613       50.585       32.207     2663.879     2558.858     1037.307        1.194        0.313      132.164       11.303        0.007      344.130       20.730      857.793
06/01/2014  23:01:00     -149.490      -62.201      -19.754       54.185       60.806       37.185     2936.006     3697.322     1382.728        1.731        0.401      161.914       26.962        0.028      344.095       20.669      857.806
06/01/2014  23:02:00     -230.053      -28.754      -11.333       93.020       79.751       47.587     8652.722     6360.234     2264.508        3.558        0.864      231.843       52.691        0.052      344.101       20.677      857.828
06/01/2014  23:03:00     -132.599      -21.954       -5.683       61.933       45.758       31.742     3835.749     2093.770     1007.534        1.252        0.347      134.404       35.046        0.068      344.061       20.613      857.838
06/01/2014  23:04:00      -80.828       51.404       -2.623       49.112       45.097       30.135     2412.014     2033.696      908.097        0.727        0.268       95.789       32.387        0.114      344.031       20.562      857.829
06/01/2014  23:05:00      -44.743      127.935      -10.702       37.254       53.554       30.100     1387.859     2868.021      906.017        1.182        0.258      135.533       23.126        0.029      344.032       20.562      857.824
06/01/2014  23:06:00     -101.797       91.218       -6.201       51.094       91.815       43.422     2610.618     8429.965     1885.440        1.582        0.646      136.687       30.359        0.049      343.986       20.484      857.850
06/01/2014  23:07:00     -130.910      -13.767       -9.430       74.218       46.977       41.161     5508.348     2206.825     1694.260        1.341        0.470      131.632       40.314        0.094      344.020       20.541      857.868
06/01/2014  23:08:00     -143.494      -40.028       -1.129       82.012       85.533       41.314     6725.894     7315.934     1706.850        1.897        0.787      148.973       36.347        0.060      344.041       20.577      857.878
06/01/2014  23:09:00     -203.403       17.886       -3.315       76.080       86.243       46.920     5788.208     7437.907     2201.522        2.856        0.771      204.188       43.098        0.045      344.112       20.697      857.888
06/01/2014  23:10:00     -115.059      -33.941       -8.941       63.684       34.206       26.564     4055.648     1170.048      705.623        1.020        0.297      119.961       31.243        0.068      344.068       20.624      857.902
06/01/2014  23:11:00     -115.675       12.468       -9.936       54.195       64.380       33.994     2937.144     4144.802     1155.602        1.093        0.412      116.345       34.834        0.090      344.154       20.770      857.905
06/01/2014  23:12:00     -106.125       59.896      -14.349       47.888       25.850       19.327     2293.233      668.245      373.551        0.919        0.167      121.861       21.678        0.032      344.070       20.628      857.908
06/01/2014  23:13:00      -78.933       58.382       -5.994       46.305       73.488       26.489     2144.148     5400.525      701.684        0.896        0.412       98.178       20.619        0.044      344.012       20.528      857.917
06/01/2014  23:14:00     -113.587      -21.287      -20.025       46.020       37.255       24.516     2117.825     1387.927      601.010        0.893        0.205      115.564       18.097        0.025      344.077       20.641      857.911
06/01/2014  23:15:00     -116.538      -39.545      -17.997       41.610       48.726       36.399     1731.402     2374.219     1324.884        1.045        0.272      123.065       11.779        0.009      343.994       20.499      857.901
06/01/2014  23:16:00     -125.943      -42.172      -11.971       48.399       48.557       25.314     2342.491     2357.817      640.817        1.156        0.267      132.817       11.493        0.007      343.919       20.370      857.907
06/01/2014  23:17:00      -69.417       14.647      -14.246       41.984       22.202       13.090     1762.647      492.908      171.358        0.383        0.121       70.945       13.943        0.039      343.888       20.315      857.915
06/01/2014  23:18:00     -150.559      -58.084      -20.639       77.449       59.772       39.260     5998.414     3572.684     1541.313        1.879        0.556      161.375       39.552        0.060      343.910       20.352      857.913
06/01/2014  23:19:00     -152.650      -46.502      -10.912       54.768       39.496       27.146     2999.487     1559.965      736.897        1.544        0.265      159.576       15.588        0.010      343.961       20.441      857.922
06/01/2014  23:20:00      -82.173       17.753        2.184       49.418       34.782       29.948     2442.169     1209.777      896.868        0.581        0.227       84.069       18.225        0.047      343.938       20.405      857.921
06/01/2014  23:21:00     -113.734      -50.776        6.090       86.586       66.814       33.867     7497.064     4464.138     1146.957        1.433        0.655      124.554       38.016        0.093      343.906       20.346      857.923
06/01/2014  23:22:00      -26.184      -34.430        2.320       51.347       48.206       30.507     2636.520     2323.848      930.679        0.388        0.295       43.256       34.800        0.647      343.821       20.203      857.926
06/01/2014  23:23:00      -89.463       46.395      -10.752       34.351       56.735       29.571     1180.020     3218.808      874.417        0.777        0.264      100.778       33.044        0.108      344.026       20.553      857.931
06/01/2014  23:24:00      -45.507       63.135      -12.616       27.657       37.835       28.831      764.926     1431.463      831.202        0.462        0.151       77.826       26.371        0.115      343.987       20.488      857.930
06/01/2014  23:25:00      -76.410      -40.695       -6.071       37.794       30.792       14.371     1428.402      948.133      206.539        0.506        0.129       86.571        8.832        0.010      343.992       20.494      857.940
06/01/2014  23:26:00      -46.241      -16.588       10.538       45.981       38.866       25.471     2114.298     1510.588      648.788        0.340        0.214       49.127       25.751        0.275      343.862       20.274      857.932
06/01/2014  23:27:00     -164.883      -53.775      -12.617       46.679       63.090       27.762     2178.920     3980.332      770.723        1.858        0.346      173.431       18.050        0.011      343.939       20.403      857.935
06/01/2014  23:28:00     -143.374      -29.507      -10.055       24.253       32.220       24.159      588.208     1038.143      583.662        1.187        0.111      146.379       15.594        0.011      344.013       20.531      857.927
06/01/2014  23:29:00      -77.090      -11.000      -22.356       42.553       28.463       27.476     1810.743      810.169      754.958        0.497        0.169       77.871       25.792        0.110      344.067       20.622      857.925
06/01/2014  23:30:00      -22.976      -22.500        0.238       37.066       45.797       20.133     1373.884     2097.396      405.332        0.245        0.194       32.159       20.306        0.399      343.878       20.300      857.921
06/01/2014  23:31:00      -51.720      -45.673       14.878       67.086       49.583       31.343     4500.578     2458.467      982.356        0.646        0.397       69.000       36.256        0.276      343.805       20.176      857.910
06/01/2014  23:32:00      -83.111       -4.143       10.125       53.415       40.773       29.614     2853.158     1662.439      876.972        0.621        0.270       83.214       31.870        0.147      343.912       20.357      857.902
06/01/2014  23:33:00      -79.371      -70.470        4.142       45.367       42.319       24.072     2058.120     1790.887      579.456        0.785        0.221      106.140       21.194        0.040      343.873       20.290      857.907
06/01/2014  23:34:00        0.079      -23.857        2.339       32.435       17.308       19.779     1052.011      299.562      391.223        0.116        0.087       23.857        8.152        0.117      343.535       19.715      857.916
06/01/2014  23:35:00      -35.589      -49.180       -5.247       63.593       31.343       13.796     4044.027      982.374      190.340        0.446        0.261       60.706       16.445        0.073      343.403       19.492      857.919
06/01/2014  23:36:00      -77.847      -70.777        3.258       51.552       38.932       22.972     2657.612     1515.663      527.691        0.789        0.235      105.212       11.666        0.012      343.806       20.176      857.923
06/01/2014  23:37:00      -52.346      -44.977        8.683       63.651       39.605       29.541     4051.446     1568.562      872.654        0.566        0.325       69.015       34.316        0.247      343.852       20.254      857.918
06/01/2014  23:38:00      -35.025      -40.932        2.765       36.172       30.095       22.829     1308.394      905.720      521.148        0.282        0.137       53.872       18.270        0.115      343.757       20.093      857.929
06/01/2014  23:39:00      -36.848      -41.236        3.808       40.387       16.018       14.245     1631.125      256.580      202.920        0.258        0.105       55.300       18.335        0.110      343.871       20.287      857.932
06/01/2014  23:40:00      -26.124      -32.667        1.603       37.811       26.591       22.715     1429.695      707.073      515.968        0.220        0.133       41.828       15.978        0.146      343.892       20.323      857.927
06/01/2014  23:41:00      -78.665      -68.326      -11.003       30.969       29.842       15.099      959.084      890.556      227.966        0.653        0.104      104.195       11.473        0.012      343.952       20.428      857.927
06/01/2014  23:42:00      -32.733      -46.489        2.398       36.609       28.602       18.255     1340.185      818.086      333.262        0.286        0.125       56.856       17.896        0.099      343.841       20.237      857.925
06/01/2014  23:43:00      -47.289      -39.587       12.207       41.485       32.205       21.396     1720.981     1037.155      457.776        0.358        0.161       61.672       21.150        0.118      343.737       20.060      857.932
06/01/2014  23:44:00      -41.443      -24.288        3.612       40.725       16.444       14.707     1658.516      270.389      216.303        0.223        0.107       48.036       17.830        0.138      343.713       20.018      857.931
06/01/2014  23:45:00      -22.803      -30.753       10.198       64.472       40.484       26.513     4156.698     1638.959      702.954        0.403        0.325       38.285       27.011        0.498      343.556       19.751      857.919
06/01/2014  23:46:00      -79.115      -28.383        0.523       49.004       53.660       31.685     2401.368     2879.409     1003.925        0.667        0.314       84.053       40.567        0.233      343.663       19.935      857.914
06/01/2014  23:47:00      -87.997      -13.486       -3.734       29.483       19.193       15.294      869.264      368.358      233.901        0.471        0.074       89.024       12.759        0.021      343.733       20.054      857.911
06/01/2014  23:48:00     -128.688       24.802      -10.354       23.502       19.957       14.855      552.323      398.300      220.669        0.923        0.059      131.057       14.468        0.012      343.753       20.087      857.906
06/01/2014  23:49:00     -118.273       13.364      -15.480       33.389       27.772       13.858     1114.827      771.267      192.036        0.824        0.104      119.026       13.567        0.013      343.787       20.144      857.904
06/01/2014  23:50:00     -132.744       21.724       -9.520       43.976       23.490       15.929     1933.852      551.798      253.731        1.046        0.137      134.510       17.490        0.017      343.702       20.001      857.896
06/01/2014  23:51:00     -142.029      -13.533       -2.072       44.327       45.780       28.710     1964.905     2095.783      824.257        1.262        0.244      142.672       26.927        0.036      343.637       19.889      857.885
06/01/2014  23:52:00     -180.366       -2.624      -30.238       35.485       36.877       21.040     1259.184     1359.903      442.701        1.826        0.153      180.385       18.880        0.011      343.691       19.981      857.871
06/01/2014  23:53:00     -136.090      -25.502      -18.472       37.930       53.394       26.981     1438.706     2850.929      727.988        1.226        0.251      138.459       23.275        0.028      343.723       20.036      857.859
06/01/2014  23:54:00     -131.791      -23.413      -12.035       48.516       28.250       23.747     2353.796      798.049      563.911        1.089        0.186      133.854       18.182        0.018      343.603       19.830      857.850
06/01/2014  23:55:00     -194.670      -31.573      -22.056       58.800       47.502       28.823     3457.474     2256.402      830.752        2.296        0.327      197.213       27.465        0.019      343.651       19.911      857.853
06/01/2014  23:56:00     -197.284      -41.388      -17.461       67.873       65.555       29.957     4606.708     4297.418      897.419        2.537        0.490      201.578       27.913        0.019      343.726       20.036      857.855
06/01/2014  23:57:00     -128.395      -78.489        2.265       68.666       52.438       35.999     4715.027     2749.714     1295.926        1.570        0.438      150.485       30.860        0.042      343.599       19.823      857.854
06/01/2014  23:58:00     -102.049      -59.768       13.089      101.834       86.781       55.812    10370.182     7530.993     3114.936        1.758        1.051      118.263       64.698        0.299      343.804       20.172      857.844
06/01/2014  23:59:00     -178.350      -22.702      -17.003       89.413       55.584       31.517     7994.722     3089.604      993.307        2.234        0.604      179.789       40.749        0.051      343.917       20.364      857.854
